[[{"header":{"parameterUnit":"m.s-1","parameterCategory":1,"la1":30.6,"la2":28.766,"lo1":-90.7593,"lo2":-88.6598,"dy":0.0162,"dx":0.0183,"nx":116,"ny":114,"refTime":"2023-05-19T12:00:00:Z","depth":0,"parameterNumber":2,"parameterNumberName":"U-component_of_WINDS"},"data":[0.0,0.0,0.0,0.0,0.0,0.0,0.0,0.0,0.0,0.0,0.0,0.0,0.0,0.0,0.0,0.0,0.0,0.0,0.0,0.0,0.0,0.0,0.0,0.0,0.0,0.0,0.0,0.0,0.0,0.0,0.0,0.0,0.0,0.0,0.0,0.0,0.0,0.0,0.0,0.0,0.0,0.0,0.0,0.0,0.0,0.0,0.0,0.0,0.0,0.0,0.0,0.0,0.0,0.0,0.0,0.0,0.0,0.0,0.0,0.0,0.0,0.0,0.0,0.0,0.0,0.0,0.0,0.0,0.0,0.0,0.0,0.0,0.0,0.0,0.0,0.0,0.0,0.0,0.0,0.0,0.0,0.0,0.0,0.0,0.0,0.0,0.0,0.0,0.0,0.0,0.0,0.0,0.0,0.0,0.0,0.0,0.0,0.0,0.0,0.0,0.0,0.0,0.0,0.0,0.0,0.0,0.0,0.0,0.0,0.0,0.0,0.0,0.0,0.0,0.0,0.0,0.0,0.0,0.0,0.0,0.0,0.0,0.0,0.0,0.0,0.0,0.0,0.0,0.0,0.0,0.0,0.0,0.0,0.0,0.0,0.0,0.0,0.0,0.0,0.0,0.0,0.0,0.0,0.0,0.0,0.0,0.0,0.0,0.0,0.0,0.0,0.0,0.0,0.0,0.0,0.0,0.0,0.0,0.0,0.0,0.0,0.0,0.0,0.0,0.0,0.0,0.0,0.0,0.0,0.0,0.0,0.0,0.0,0.0,0.0,0.0,0.0,0.0,0.0,0.0,0.0,0.0,0.0,0.0,0.0,0.0,0.0,0.0,0.0,0.0,0.0,0.0,0.0,0.0,0.0,0.0,0.0,0.0,0.0,0.0,0.0,0.0,0.0,0.0,0.0,0.0,0.0,0.0,0.0,0.0,0.0,0.0,0.0,0.0,0.0,0.0,0.0,0.0,0.0,0.0,0.0,0.0,0.0,0.0,0.0,0.0,0.0,0.0,0.0,0.0,0.0,0.0,0.0,0.0,0.0,0.0,0.0,0.0,0.0,0.0,0.0,0.0,0.0,0.0,0.0,0.0,0.0,0.0,0.0,0.0,0.0,0.0,0.0,0.0,0.0,0.0,0.0,0.0,0.0,0.0,0.0,0.0,0.0,0.0,0.0,0.0,0.0,0.0,0.0,0.0,0.0,0.0,0.0,0.0,0.0,0.0,0.0,0.0,0.0,0.0,0.0,0.0,0.0,0.0,0.0,0.0,0.0,0.0,0.0,0.0,0.0,0.0,0.0,0.0,0.0,0.0,0.0,0.0,0.0,0.0,0.0,0.0,0.0,0.0,0.0,0.0,0.0,0.0,0.0,0.0,0.0,0.0,0.0,0.0,0.0,0.0,0.0,0.0,0.0,0.0,0.0,0.0,0.0,0.0,0.0,0.0,0.0,0.0,0.0,0.0,0.0,0.0,0.0,0.0,0.0,0.0,0.0,0.0,0.0,0.0,0.0,0.0,0.0,0.0,0.0,0.0,0.0,0.0,0.0,0.0,0.0,0.0,0.0,0.0,0.0,0.0,0.0,0.0,0.0,0.0,0.0,0.0,0.0,0.0,0.0,0.0,0.0,0.0,0.0,0.0,0.0,0.0,0.0,0.0,0.0,0.0,0.0,0.0,0.0,0.0,0.0,0.0,0.0,0.0,0.0,0.0,0.0,0.0,0.0,0.0,0.0,0.0,0.0,0.0,0.0,0.0,0.0,0.0,0.0,0.0,0.0,0.0,0.0,0.0,0.0,0.0,0.0,0.0,0.0,0.0,0.0,0.0,0.0,0.0,0.0,0.0,0.0,0.0,0.0,0.0,0.0,0.0,0.0,0.0,0.0,0.0,0.0,0.0,0.0,0.0,0.0,0.0,0.0,0.0,0.0,0.0,0.0,0.0,0.0,0.0,0.0,0.0,0.0,0.0,0.0,0.0,0.0,0.0,0.0,0.0,0.0,0.0,0.0,0.0,0.0,0.0,0.0,0.0,0.0,0.0,0.0,0.0,0.0,0.0,0.0,0.0,0.0,0.0,0.0,0.0,0.0,0.0,0.0,0.0,0.0,0.0,0.0,0.0,0.0,0.0,0.0,0.0,0.0,0.0,0.0,0.0,0.0,0.0,0.0,0.0,0.0,0.0,0.0,0.0,0.0,0.0,0.0,0.0,0.0,0.0,0.0,0.0,0.0,0.0,0.0,0.0,0.0,0.0,0.0,0.0,0.0,0.0,0.0,0.0,0.0,0.0,0.0,0.0,0.0,0.0,0.0,0.0,0.0,0.0,0.0,0.0,0.0,0.0,0.0,0.0,0.0,0.0,0.0,0.0,0.0,0.0,0.0,0.0,0.0,0.0,0.0,0.0,0.0,0.0,0.0,0.0,0.0,0.0,0.0,0.0,0.0,0.0,0.0,0.0,0.0,0.0,0.0,0.0,0.0,0.0,0.0,0.0,0.0,0.0,0.0,0.0,0.0,0.0,0.0,0.0,0.0,0.0,0.0,0.0,0.0,0.0,0.0,0.0,0.0,0.0,0.0,0.0,0.0,0.0,0.0,0.0,0.0,0.0,0.0,0.0,0.0,0.0,0.0,0.0,0.0,0.0,0.0,0.0,0.0,0.0,0.0,0.0,0.0,0.0,0.0,0.0,0.0,0.0,0.0,0.0,0.0,0.0,0.0,0.0,0.0,0.0,0.0,0.0,0.0,0.0,0.0,0.0,0.0,0.0,0.0,0.0,0.0,0.0,0.0,0.0,0.0,0.0,0.0,0.0,0.0,0.0,0.0,0.0,0.0,0.0,0.0,0.0,0.0,0.0,0.0,0.0,0.0,0.0,0.0,0.0,0.0,0.0,0.0,0.0,0.0,0.0,0.0,0.0,0.0,0.0,0.0,0.0,0.0,0.0,0.0,0.0,0.0,0.0,0.0,0.0,0.0,0.0,0.0,0.0,0.0,0.0,0.0,0.0,0.0,0.0,0.0,0.0,0.0,0.0,0.0,0.0,0.0,0.0,0.0,0.0,0.0,0.0,0.0,0.0,0.0,0.0,0.0,0.0,0.0,0.0,0.0,0.0,0.0,0.0,0.0,0.0,0.0,0.0,0.0,0.0,0.0,0.0,0.0,0.0,0.0,0.0,0.0,0.0,0.0,0.0,0.0,0.0,0.0,0.0,0.0,0.0,0.0,0.0,0.0,0.0,0.0,0.0,0.0,0.0,0.0,0.0,0.0,0.0,0.0,0.0,0.0,0.0,0.0,0.0,0.0,0.0,0.0,0.0,0.0,0.0,0.0,0.0,0.0,0.0,0.0,0.0,0.0,0.0,0.0,0.0,0.0,0.0,0.0,0.0,0.0,0.0,0.0,0.0,0.0,0.0,0.0,0.0,0.0,0.0,0.0,0.0,0.0,0.0,0.0,0.0,0.0,0.0,0.0,0.0,0.0,0.0,0.0,0.0,0.0,0.0,0.0,0.0,0.0,0.0,0.0,0.0,0.0,0.0,0.0,0.0,0.0,0.0,0.0,0.0,0.0,0.0,0.0,0.0,0.0,0.0,0.0,0.0,0.0,0.0,0.0,0.0,0.0,0.0,0.0,0.0,0.0,0.0,0.0,0.0,0.0,0.0,0.0,0.0,0.0,0.0,0.0,0.0,0.0,0.0,0.0,0.0,0.0,0.0,0.0,0.0,0.0,0.0,0.0,0.0,0.0,0.0,0.0,0.0,0.0,0.0,0.0,0.0,0.0,0.0,0.0,0.0,0.0,0.0,0.0,0.0,0.0,0.0,0.0,0.0,0.0,0.0,0.0,0.0,0.0,0.0,0.0,0.0,0.0,0.0,0.0,0.0,0.0,0.0,0.0,0.0,0.0,0.0,0.0,0.0,0.0,0.0,0.0,0.0,0.0,0.0,0.0,0.0,0.0,0.0,0.0,0.0,0.0,0.0,0.0,0.0,0.0,0.0,0.0,0.0,0.0,0.0,0.0,0.0,0.0,0.0,0.0,0.0,0.0,0.0,0.0,0.0,0.0,0.0,0.0,0.0,0.0,0.0,0.0,0.0,0.0,0.0,0.0,0.0,0.0,0.0,0.0,0.0,0.0,0.0,0.0,0.0,0.0,0.0,0.0,0.0,0.0,0.0,0.0,0.0,0.0,0.0,0.0,0.0,0.0,0.0,0.0,0.0,0.0,0.0,0.0,0.0,0.0,0.0,0.0,0.0,0.0,0.0,0.0,0.0,0.0,0.0,0.0,0.0,0.0,0.0,0.0,0.0,0.0,0.0,0.0,0.0,0.0,0.0,0.0,0.0,0.0,0.0,0.0,0.0,0.0,0.0,0.0,0.0,0.0,0.0,0.0,0.0,0.0,0.0,0.0,0.0,0.0,0.0,0.0,0.0,0.0,0.0,0.0,0.0,0.0,0.0,0.0,0.0,0.0,0.0,0.0,0.0,0.0,0.0,0.0,0.0,0.0,0.0,0.0,0.0,0.0,0.0,0.0,0.0,0.0,0.0,0.0,0.0,0.0,0.0,0.0,0.0,0.0,0.0,0.0,0.0,0.0,0.0,0.0,0.0,0.0,0.0,0.0,0.0,0.0,0.0,0.0,0.0,0.0,0.0,0.0,0.0,0.0,0.0,0.0,0.0,0.0,0.0,0.0,0.0,0.0,0.0,0.0,0.0,0.0,0.0,0.0,0.0,0.0,0.0,0.0,0.0,0.0,0.0,0.0,0.0,0.0,0.0,0.0,0.0,0.0,0.0,0.0,0.0,0.0,0.0,0.0,0.0,0.0,0.0,0.0,0.0,0.0,0.0,0.0,0.0,0.0,0.0,0.0,0.0,0.0,0.0,0.0,0.0,0.0,0.0,0.0,0.0,0.0,0.0,0.0,0.0,0.0,0.0,0.0,0.0,0.0,0.0,0.0,0.0,0.0,0.0,0.0,0.0,0.0,0.0,0.0,0.0,0.0,0.0,0.0,0.0,0.0,0.0,0.0,0.0,0.0,0.0,0.0,0.0,0.0,0.0,0.0,0.0,0.0,0.0,0.0,0.0,0.0,0.0,0.0,0.0,0.0,0.0,0.0,0.0,0.0,0.0,0.0,0.0,0.0,0.0,0.0,0.0,0.0,0.0,0.0,0.0,0.0,0.0,0.0,0.0,0.0,0.0,0.0,0.0,0.0,0.0,0.0,0.0,0.0,0.0,0.0,0.0,0.0,0.0,0.0,0.0,0.0,0.0,0.0,0.0,0.0,0.0,0.0,0.0,0.0,0.0,0.0,0.0,0.0,0.0,0.0,0.0,0.0,0.0,0.0,0.0,0.0,0.0,0.0,0.0,0.0,0.0,0.0,0.0,0.0,0.0,0.0,0.0,0.0,0.0,0.0,0.0,0.0,0.0,0.0,0.0,0.0,0.0,0.0,0.0,0.0,0.0,0.0,0.0,0.0,0.0,0.0,0.0,0.0,0.0,0.0,0.0,0.0,0.0,0.0,0.0,0.0,0.0,0.0,0.0,0.0,0.0,0.0,0.0,0.0,0.0,0.0,0.0,0.0,0.0,0.0,0.0,0.0,0.0,0.0,0.0,0.0,0.0,0.0,0.0,0.0,0.0,0.0,0.0,0.0,0.0,0.0,0.0,0.0,0.0,0.0,0.0,0.0,0.0,0.0,0.0,0.0,0.0,0.0,0.0,0.0,0.0,0.0,0.0,0.0,0.0,0.0,0.0,0.0,0.0,0.0,0.0,0.0,0.0,0.0,0.0,0.0,0.0,0.0,0.0,0.0,0.0,0.0,0.0,0.0,0.0,0.0,0.0,0.0,0.0,0.0,0.0,0.0,0.0,0.0,0.0,0.0,0.0,0.0,0.0,0.0,0.0,0.0,0.0,0.0,0.0,0.0,0.0,0.0,0.0,0.0,0.0,0.0,0.0,0.0,0.0,0.0,0.0,0.0,0.0,0.0,0.0,0.0,0.0,0.0,0.0,0.0,0.0,0.0,0.0,0.0,0.0,0.0,0.0,0.0,0.0,0.0,0.0,0.0,0.0,0.0,0.0,0.0,0.0,0.0,0.0,0.0,0.0,-0.7664,-0.796,0.0,0.0,0.0,0.0,0.0,0.0,0.0,0.0,0.0,0.0,0.0,0.0,0.0,0.0,0.0,0.0,0.0,0.0,0.0,0.0,0.0,0.0,0.0,0.0,0.0,0.0,0.0,0.0,0.0,0.0,0.0,0.0,0.0,0.0,0.0,0.0,0.0,0.0,0.0,0.0,0.0,0.0,0.0,0.0,0.0,0.0,0.0,0.0,0.0,0.0,0.0,0.0,0.0,0.0,0.0,0.0,0.0,0.0,0.0,0.0,0.0,0.0,0.0,0.0,0.0,0.0,0.0,0.0,0.0,0.0,0.0,0.0,0.0,0.0,0.0,0.0,0.0,0.0,0.0,0.0,0.0,0.0,0.0,0.0,0.0,0.0,0.0,0.0,0.0,0.0,0.0,0.0,0.0,0.0,0.0,0.0,0.0,0.0,0.0,0.0,0.0,0.0,0.0,0.0,0.0,0.0,0.0,0.0,0.0,0.0,0.0,0.0,0.0,0.0,-0.8049,-0.8103,0.0,0.0,0.0,0.0,0.0,0.0,0.0,0.0,0.0,0.0,0.0,0.0,0.0,0.0,0.0,0.0,0.0,0.0,0.0,0.0,0.0,0.0,0.0,0.0,0.0,0.0,0.0,0.0,0.0,0.0,0.0,0.0,0.0,0.0,0.0,0.0,0.0,0.0,0.0,0.0,0.0,0.0,0.0,0.0,0.0,0.0,0.0,0.0,0.0,0.0,0.0,0.0,0.0,0.0,0.0,0.0,0.0,0.0,0.0,0.0,0.0,0.0,0.0,0.0,0.0,0.0,0.0,0.0,0.0,0.0,0.0,0.0,0.0,0.0,0.0,0.0,0.0,0.0,0.0,0.0,0.0,0.0,0.0,0.0,0.0,0.0,0.0,0.0,0.0,0.0,0.0,0.0,0.0,0.0,0.0,0.0,0.0,0.0,0.0,0.0,0.0,0.0,0.0,0.0,0.0,0.0,0.0,0.0,-0.5845,-0.6633,-0.7788,-0.7854,-0.8234,-0.8825,-0.8174,-0.8262,-0.8804,-0.8804,0.0,0.0,0.0,0.0,0.0,0.0,0.0,0.0,0.0,0.0,0.0,0.0,0.0,0.0,0.0,0.0,0.0,0.0,0.0,0.0,0.0,-0.8427,-0.8262,-0.702,-0.745,-0.7509,0.0,0.0,0.0,0.0,0.0,0.0,0.0,0.0,0.0,0.0,0.0,0.0,-0.5617,-0.5148,-0.4991,-0.5129,-0.6165,0.0,0.0,0.0,0.0,0.0,0.0,0.0,0.0,0.0,0.0,0.0,0.0,0.0,0.0,0.0,0.0,0.0,0.0,0.0,0.0,0.0,0.0,0.0,0.0,0.0,0.0,0.0,0.0,0.0,0.0,0.0,0.0,0.0,0.0,0.0,0.0,0.0,0.0,0.0,0.0,0.0,0.0,0.0,-0.4948,-0.4948,0.0,0.0,0.0,0.0,0.0,0.0,0.0,0.0,0.0,0.0,0.0,0.0,0.0,-0.4599,-0.4519,-0.5467,-0.581,-0.5542,-0.7107,-0.7941,-0.8163,-0.8483,-0.8837,-0.911,-0.8804,0.0,-0.8804,-0.8804,0.0,0.0,0.0,0.0,0.0,0.0,0.0,0.0,0.0,0.0,0.0,0.0,0.0,0.0,0.0,0.0,0.0,0.0,0.0,0.0,0.0,-0.7723,-0.7777,-0.6696,-0.7028,-0.7044,-0.6647,0.0,0.0,0.0,0.0,0.0,0.0,0.0,0.0,0.0,-0.5217,-0.5016,-0.518,-0.4987,-0.4986,-0.5126,-0.567,-0.5679,-0.5247,-0.5098,0.0,0.0,0.0,0.0,0.0,0.0,0.0,0.0,0.0,0.0,0.0,0.0,0.0,0.0,0.0,0.0,0.0,0.0,0.0,0.0,0.0,0.0,0.0,0.0,0.0,0.0,0.0,0.0,0.0,0.0,0.0,0.0,0.0,0.0,0.0,0.0,0.0,0.0,0.0,-0.5077,-0.5036,-0.5036,-0.4891,-0.4799,0.0,0.0,0.0,0.0,0.0,0.0,0.0,0.0,0.0,-0.4718,-0.4782,-0.4785,-0.4718,-0.5727,-0.6311,-0.6539,-0.7661,-0.8476,-0.9017,-0.9013,-0.9064,-0.919,-0.9285,-0.9205,-0.9038,-0.8878,-0.8804,-0.8804,0.0,0.0,0.0,0.0,-0.8804,-0.8804,0.0,0.0,0.0,0.0,0.0,0.0,0.0,0.0,0.0,0.0,0.0,0.0,-0.6465,-0.6966,-0.7041,-0.6174,-0.6374,-0.6444,-0.6128,-0.5832,0.0,0.0,0.0,0.0,0.0,0.0,0.0,-0.5591,-0.507,-0.4901,-0.5094,-0.5237,-0.5386,-0.5532,-0.5532,-0.5308,-0.4918,-0.4862,-0.4769,0.0,0.0,0.0,0.0,0.0,0.0,0.0,0.0,0.0,0.0,0.0,0.0,0.0,0.0,0.0,0.0,0.0,0.0,0.0,0.0,0.0,0.0,0.0,0.0,0.0,0.0,0.0,0.0,0.0,0.0,0.0,0.0,0.0,0.0,0.0,0.0,0.0,0.0,-0.5098,-0.5077,-0.5077,-0.485,-0.4735,0.0,0.0,0.0,0.0,0.0,0.0,-0.4796,-0.4769,-0.4816,-0.4969,-0.4972,-0.4955,-0.4918,-0.6079,-0.6862,-0.7289,-0.8242,-0.9054,-0.9786,-0.9486,-0.9336,-0.9416,-0.9619,-0.9512,-0.9176,-0.9092,-0.9031,-0.9025,-0.8951,-0.8918,-0.8911,-0.8838,-0.8804,-0.8804,0.0,0.0,0.0,0.0,0.0,0.0,0.0,0.0,0.0,0.0,0.0,-0.7074,-0.5684,-0.6199,-0.6179,-0.4894,-0.527,-0.5357,-0.4843,-0.512,-0.543,0.0,0.0,0.0,0.0,0.0,0.0,-0.7013,-0.5709,-0.526,-0.5559,-0.5701,-0.5847,-0.5996,-0.5996,-0.5833,-0.5603,-0.5238,-0.5195,-0.5287,0.0,0.0,0.0,0.0,0.0,0.0,0.0,0.0,0.0,0.0,0.0,0.0,0.0,0.0,0.0,0.0,0.0,0.0,0.0,0.0,0.0,0.0,0.0,0.0,0.0,0.0,0.0,0.0,0.0,0.0,0.0,0.0,0.0,0.0,0.0,0.0,0.0,0.0,0.0,-0.4928,-0.4789,0.0,0.0,0.0,0.0,-0.468,-0.4946,-0.5098,-0.5101,-0.4982,-0.4972,-0.5114,-0.5121,-0.5053,-0.4921,-0.6899,-0.7714,-0.7349,-0.9149,-1.002,-1.0087,-0.9793,-0.9813,-1.006,-0.9793,-0.9512,-0.9203,-0.9526,-0.9639,-0.9613,-0.9332,-0.9163,-0.913,-0.8911,-0.8804,-0.8804,0.0,0.0,0.0,0.0,0.0,0.0,0.0,0.0,0.0,-0.6487,-0.7115,-0.6982,-0.5304,-0.6203,-0.6601,-0.586,-0.6302,-0.6515,-0.6235,-0.6318,-0.6315,0.0,0.0,0.0,0.0,0.0,-0.5972,-0.7215,-0.5905,-0.5481,-0.5874,-0.5925,-0.603,-0.6183,-0.6274,-0.6371,-0.6399,-0.5794,-0.5428,-0.5185,-0.4867,-0.4643,0.0,0.0,0.0,0.0,0.0,0.0,0.0,0.0,0.0,0.0,0.0,0.0,0.0,0.0,0.0,0.0,0.0,0.0,0.0,0.0,0.0,0.0,0.0,0.0,0.0,0.0,0.0,0.0,0.0,0.0,0.0,0.0,0.0,0.0,0.0,0.0,0.0,-0.5192,-0.5155,0.0,-0.526,-0.525,-0.5191,-0.5125,-0.5243,-0.5339,-0.542,-0.5379,-0.5376,-0.5423,-0.5426,-0.5613,-0.6085,-0.7366,-0.8206,-0.8612,-0.9598,-1.0214,-1.0388,-1.0094,-1.002,-1.012,-1.0207,-1.008,-0.9826,-1.0127,-0.9913,-0.9406,-0.9492,-0.9526,-0.9512,-0.9412,-0.9372,-0.9345,0.0,0.0,0.0,0.0,0.0,0.0,0.0,0.0,0.0,-0.6299,-0.7081,-0.7219,-0.5809,-0.6609,-0.7086,-0.6757,-0.7012,-0.7065,-0.6696,-0.6713,-0.6489,0.0,0.0,0.0,0.0,-0.6856,-0.6599,-0.7642,-0.6252,-0.5766,-0.6108,-0.6156,-0.6261,-0.6417,-0.6563,-0.6774,-0.6887,-0.6373,-0.5943,-0.5484,-0.5164,-0.5064,-0.4942,0.0,0.0,0.0,0.0,0.0,0.0,0.0,0.0,0.0,0.0,0.0,0.0,0.0,0.0,0.0,0.0,0.0,0.0,0.0,0.0,0.0,0.0,0.0,0.0,0.0,0.0,0.0,0.0,0.0,0.0,0.0,0.0,0.0,0.0,0.0,-0.5413,-0.5569,-0.5542,-0.5549,-0.565,-0.5569,-0.5508,-0.5508,-0.5606,-0.5708,-0.581,-0.5766,-0.5739,-0.5739,-0.6036,-0.6333,-0.6751,-0.7941,-0.8826,-0.9332,-0.9981,-1.0367,-1.0618,-1.0354,-1.0267,-1.0274,-1.0474,-1.0388,-1.014,-1.0441,-1.0154,-0.9552,-0.9753,-0.9826,-0.982,-0.9719,-0.9679,-0.9646,0.0,0.0,0.0,0.0,0.0,0.0,0.0,-0.7483,-0.7618,-0.6877,-0.7434,-0.7709,-0.7198,-0.7364,-0.7493,-0.7369,-0.7223,-0.68,-0.5944,-0.6231,-0.5934,0.0,0.0,0.0,-0.9583,-0.7739,-0.7315,-0.8353,-0.676,-0.6118,-0.6278,-0.6417,-0.6563,-0.6715,-0.6868,-0.7014,-0.7139,-0.7007,-0.6704,-0.6292,-0.5649,-0.5627,-0.5877,0.0,0.0,0.0,0.0,0.0,0.0,0.0,0.0,0.0,0.0,0.0,0.0,0.0,0.0,0.0,0.0,0.0,0.0,0.0,0.0,0.0,0.0,0.0,0.0,0.0,0.0,0.0,0.0,0.0,0.0,0.0,0.0,0.0,-0.5439,-0.5627,-0.5871,-0.602,-0.5915,-0.583,-0.583,-0.583,-0.583,-0.583,-0.6101,-0.6268,-0.6268,-0.6122,-0.6034,-0.603,-0.6813,-0.7193,-0.6941,-0.8762,-0.9586,-0.9338,-1.0174,-1.0624,-1.0624,-1.0624,-1.0624,-1.0624,-1.0624,-1.0401,-1.0154,-1.0441,-1.0388,-1.0134,-1.0134,-1.0134,-1.0094,-0.9813,-0.9628,-0.9704,0.0,0.0,0.0,0.0,0.0,0.0,0.0,-0.7348,-0.7432,-0.6853,-0.7337,-0.7682,-0.739,-0.8116,-0.8594,-0.8515,-0.858,-0.8335,-0.7593,-0.7729,-0.7639,0.0,0.0,0.0,-0.8469,-0.7992,-0.7804,-0.7838,-0.6775,-0.6329,-0.658,-0.662,-0.6719,-0.6871,-0.7017,-0.7166,-0.7312,-0.7383,-0.7327,-0.7066,-0.6304,-0.5885,-0.57,0.0,0.0,0.0,0.0,0.0,0.0,0.0,0.0,0.0,0.0,0.0,0.0,0.0,0.0,0.0,0.0,0.0,0.0,0.0,0.0,0.0,0.0,0.0,0.0,0.0,0.0,0.0,0.0,0.0,0.0,0.0,0.0,-0.6043,-0.5696,-0.5957,-0.6149,-0.6193,-0.6349,-0.6454,-0.6454,-0.6454,-0.6454,-0.6454,-0.643,-0.6413,-0.6413,-0.6278,-0.6146,-0.6034,-0.6744,-0.7408,-0.7826,-0.8871,-0.9667,-1.0238,-1.0498,-1.0624,-1.0624,-1.0624,-1.0624,-1.0624,-1.0624,-1.0577,-1.0448,-1.0591,-1.0577,-1.0441,-1.0441,-1.0441,-1.0428,-1.0409,-1.0675,-1.1111,0.0,0.0,0.0,0.0,0.0,0.0,0.0,-0.7275,-0.7386,-0.7127,-0.7734,-0.8118,-0.8051,-0.8765,-0.9172,-0.892,-0.9112,-0.8802,-0.7859,-0.7818,0.0,0.0,0.0,-0.8925,-0.8826,-0.8687,-0.829,-0.7733,-0.6882,-0.6532,-0.6705,-0.6827,-0.6932,-0.7027,-0.7238,-0.7383,-0.7472,-0.7563,-0.755,-0.7428,-0.6997,-0.6627,-0.6291,-0.5891,-0.58,-0.583,-0.5403,-0.5437,-0.563,-0.5308,0.0,0.0,0.0,0.0,0.0,0.0,0.0,0.0,0.0,0.0,0.0,0.0,0.0,0.0,0.0,0.0,0.0,0.0,0.0,0.0,0.0,0.0,0.0,0.0,-0.5654,-0.6707,-0.6328,-0.6363,-0.6468,-0.6532,-0.6692,-0.6797,-0.6797,-0.6736,-0.6725,-0.6793,-0.6715,-0.6664,-0.6664,-0.6525,-0.6376,-0.622,-0.7401,-0.8154,-0.8434,-0.9752,-1.0571,-1.0922,-1.0922,-1.0862,-1.0742,-1.0742,-1.0739,-1.0624,-1.0624,-1.0624,-1.0624,-1.0624,-1.0624,-1.0624,0.0,0.0,0.0,0.0,-1.1095,-1.1819,0.0,0.0,0.0,0.0,0.0,0.0,0.0,-0.7335,-0.7504,-0.7459,-0.8196,-0.8744,-0.8711,-0.9265,-0.9412,-0.8858,-0.9011,-0.865,-0.7479,0.0,0.0,-0.8699,-0.9244,-0.9651,-0.981,-0.9252,-0.8594,-0.7873,-0.708,-0.6759,-0.6783,-0.7061,-0.72,-0.7227,-0.7502,-0.7634,-0.7648,-0.7648,-0.7648,-0.7648,-0.7648,-0.7539,-0.7299,-0.6617,-0.6597,-0.6854,-0.6285,-0.6037,-0.5949,-0.5755,0.0,0.0,0.0,0.0,0.0,0.0,0.0,0.0,0.0,0.0,0.0,0.0,0.0,0.0,0.0,0.0,0.0,0.0,0.0,0.0,0.0,0.0,0.0,0.0,-0.6015,-0.7495,-0.7156,-0.6966,-0.6848,-0.6963,-0.698,-0.697,-0.6953,-0.6831,-0.6807,-0.6943,-0.6939,-0.6929,-0.6929,-0.6867,0.0,0.0,0.0,-0.9105,-0.8797,-1.0736,-1.1613,-1.1423,-1.1423,-1.1289,-1.1042,-1.1042,-1.0902,-1.0719,-1.0719,-1.0641,-1.0672,-1.0672,-1.0651,-1.0624,-1.0624,-1.0624,-1.0624,-1.0681,-1.1212,-1.2104,0.0,0.0,0.0,0.0,0.0,0.0,0.0,-0.7797,-0.7666,-0.715,-0.7896,-0.8363,-0.8123,-0.8778,-0.9185,-0.8838,-0.8644,-0.8439,0.0,0.0,-0.9074,-0.976,-0.9819,-0.9617,-0.9293,-0.8571,-0.7841,-0.7091,-0.707,-0.7119,-0.7244,-0.7428,-0.757,-0.7685,-0.7743,-0.7838,-0.7953,-0.7953,-0.7953,-0.7953,-0.7953,-0.7719,-0.7343,-0.7071,-0.6953,-0.6881,-0.6519,-0.6681,-0.699,-0.6474,-0.6522,-0.6709,-0.6203,0.0,0.0,0.0,0.0,0.0,0.0,0.0,0.0,0.0,0.0,0.0,0.0,0.0,0.0,0.0,0.0,0.0,0.0,0.0,0.0,-0.4261,-0.607,-0.7638,-0.7564,-0.7461,-0.739,-0.7295,-0.7285,-0.7238,-0.7112,-0.7075,-0.7068,-0.7099,-0.6993,-0.6929,-0.6929,-0.7605,-0.7593,-0.6558,-0.8335,-0.9105,-0.8797,-0.9766,-1.0635,-1.1423,-1.1423,0.0,-1.1343,-1.1343,-1.1309,-1.1263,-1.1263,-1.1129,-1.0909,-1.0909,-1.0775,-1.0624,-1.0624,-1.0624,-1.0681,-1.1351,-1.2073,-1.2831,0.0,0.0,0.0,0.0,0.0,0.0,0.0,-0.7919,-0.7787,-0.7489,-0.7954,-0.8482,-0.8749,-0.9084,-0.9252,-0.9096,-0.8653,-0.8497,0.0,-0.9218,-0.9786,-1.0521,-1.0635,-1.0189,-0.9205,-0.8987,-0.844,-0.764,-0.7369,-0.7559,-0.8268,-0.7879,-0.7743,-0.7814,-0.7892,-0.7967,-0.8038,-0.8038,-0.8038,-0.8038,-0.8038,-0.7906,-0.7695,-0.7621,-0.7546,-0.7455,-0.7224,-0.7288,-0.7428,-0.7051,-0.6973,-0.697,-0.66,-0.6224,-0.5867,0.0,0.0,0.0,0.0,0.0,0.0,0.0,0.0,0.0,0.0,0.0,0.0,0.0,0.0,-0.3969,0.0,0.0,-0.5999,-0.6039,-0.7034,-0.7865,-0.779,-0.7821,-0.7709,-0.7407,-0.737,-0.7312,-0.7153,-0.7078,-0.7065,-0.7136,-0.7007,-0.6959,-0.7031,-0.7315,-0.723,-0.659,-0.7848,-0.8486,-0.8305,-0.9661,-1.0617,-1.1131,-1.1644,-1.179,-1.165,-1.165,-1.1563,-1.1423,-1.1423,-1.1343,-1.1209,-1.1061,-1.1042,-1.0982,-1.0907,-1.0752,-1.0681,-1.1531,-1.2303,-1.3093,0.0,0.0,0.0,0.0,0.0,0.0,0.0,0.0,-0.8136,-0.7985,-0.8238,-0.8733,-0.9464,-0.9369,-0.9261,-0.9237,-0.8856,0.0,0.0,-0.9519,-1.0074,-1.0955,-1.1119,-1.0706,-0.9656,-0.9667,-0.9399,-0.8781,-0.8296,-0.8552,-0.9483,-0.8804,-0.859,-0.8627,-0.8663,-0.8726,-0.8726,-0.8726,-0.8726,-0.8726,-0.8726,-0.8726,-0.8726,-0.8531,-0.8233,-0.8021,-0.7865,-0.7682,-0.7502,-0.7438,-0.7217,-0.6949,-0.6824,-0.6603,-0.6291,-0.5779,-0.5589,0.0,0.0,0.0,0.0,0.0,0.0,0.0,0.0,0.0,-0.4906,-0.1587,-0.4247,-0.7351,-0.7887,-0.6257,-0.5496,-0.7621,-0.7987,-0.8021,-0.8024,-0.8014,-0.7851,-0.7461,-0.7414,-0.7356,-0.72,-0.7054,-0.7017,-0.7132,-0.7034,-0.7021,-0.7136,-0.7083,-0.7024,-0.6746,-0.7545,-0.7926,-0.7888,-0.9443,-1.0483,-1.0859,-1.1645,-1.2025,-1.1951,-1.1951,-1.1824,-1.159,-1.1536,-1.151,-1.1503,-1.1224,-1.1273,-1.1396,-1.1176,-1.0985,-1.1016,-1.1869,-1.2506,-1.3139,0.0,0.0,0.0,0.0,0.0,0.0,0.0,0.0,0.0,-0.8268,-0.8659,-0.9019,-0.8989,-0.8878,-0.8688,-0.8543,0.0,0.0,-0.9198,-0.9519,-1.0074,-1.0955,-1.0672,-1.0607,-1.0815,-1.0216,-0.9958,-0.9996,-1.028,-1.06,-1.1064,-1.1111,-1.123,-1.1424,-1.1448,-1.1458,-1.1458,-1.1458,-1.1458,-1.1458,-1.1458,-1.1458,-1.1361,-1.0194,-0.9019,-0.8021,-0.7865,-0.7543,-0.7231,-0.7489,-0.737,-0.7112,-0.7095,-0.6983,-0.6712,-0.5989,0.0,-0.5442,-0.5325,-0.4554,-0.3829,-0.38,-0.3962,-0.456,0.0,0.0,-0.4255,-0.427,-0.4353,-0.5147,-0.7531,-0.7766,-0.7624,-0.799,-0.8034,-0.8024,-0.8038,-0.7923,-0.777,-0.7594,-0.7573,-0.7512,-0.736,-0.7207,-0.7122,-0.7139,-0.7126,-0.7126,-0.7139,-0.8066,-0.8068,-0.6909,-0.8038,-0.8434,-0.8187,-0.8259,-0.9184,-1.0975,-1.097,-1.1446,-1.2258,-1.2258,-1.2238,-1.2191,-1.1931,-1.1824,-1.1797,-1.153,-1.1354,-1.1396,-1.1102,-1.1414,-1.2134,-1.3028,-1.3211,-1.3302,0.0,0.0,0.0,0.0,0.0,0.0,0.0,0.0,0.0,0.0,-0.9015,-0.9535,-1.0017,-1.0308,-1.0391,0.0,0.0,0.0,-0.9857,-0.974,-1.0074,-1.0955,-1.0966,-1.0935,-1.086,-1.0875,-1.0886,-1.1078,-1.0926,-1.1263,-1.2086,-1.1714,-1.1552,-1.1652,-1.1788,-1.1945,-1.1945,-1.1945,-1.1945,-1.1945,-1.1945,-1.1945,-1.1823,-1.0986,-0.9814,-0.8513,-0.7717,-0.7248,0.0,0.0,-0.6858,-0.6783,-0.6959,-0.6736,-0.6342,-0.6027,-0.5783,0.0,-0.5844,-0.5491,-0.5066,0.0,-0.5712,-0.6291,-0.7591,-0.6898,-0.6153,-0.6608,-0.6691,-0.6912,-0.7822,-0.8067,-0.8093,0.0,-0.8004,-0.8007,-0.7919,-0.7851,-0.7726,-0.7495,-0.7465,-0.7407,-0.7251,-0.7177,-0.7139,-0.7139,-0.7139,-0.7139,-0.7139,-0.7494,-0.7505,-0.6932,-0.7341,-0.7503,-0.7353,-0.7849,-0.8791,-1.0156,-1.0682,-1.1395,-1.2305,-1.2305,-1.2305,-1.2291,-1.2171,-1.2124,-1.2111,-1.1991,-1.1937,-1.1911,-1.1617,-1.2039,-1.2923,-1.3437,-1.3625,-1.3907,0.0,0.0,0.0,0.0,0.0,0.0,0.0,0.0,0.0,0.0,0.0,-0.9823,-1.0552,-1.1388,-1.1649,0.0,0.0,0.0,0.0,-0.9778,-0.992,-1.0715,-1.1109,-1.1222,-1.112,-1.1581,-1.1903,-1.2148,-1.1781,-1.2063,-1.3097,-1.2717,-1.2478,-1.2554,-1.2901,-1.3017,-1.3017,-1.3017,-1.3017,-1.3017,-1.3017,-1.2934,-1.2663,-1.172,-1.0514,-0.9159,-0.7804,-0.7007,0.0,0.0,-0.6234,-0.6217,-0.6522,-0.6346,-0.602,-0.5979,-0.5888,-0.5861,-0.6135,-0.616,0.0,-0.6706,-0.7169,-0.7643,-0.8195,-0.8008,-0.7731,-0.8052,-0.831,-0.8295,-0.8082,-0.8143,-0.817,-0.8058,-0.8038,-0.8001,-0.7889,-0.7804,-0.7675,-0.7458,-0.7326,-0.7204,-0.7092,-0.7115,-0.7139,-0.7139,-0.7139,-0.7139,-0.7139,-0.7044,-0.6987,-0.6987,-0.6878,-0.682,-0.682,-0.7856,-0.8823,-0.9717,-1.0617,-1.1548,-1.2418,-1.2338,-1.2305,-1.2305,-1.2305,-1.2305,-1.2305,-1.2305,-1.2305,-1.2271,-1.2264,-1.2839,-1.3677,-1.4155,-1.4363,-1.455,0.0,0.0,0.0,0.0,0.0,0.0,0.0,0.0,0.0,0.0,0.0,0.0,0.0,0.0,0.0,0.0,0.0,0.0,0.0,-0.9458,-0.9462,-1.0114,-1.0695,-1.1283,-1.1864,-1.2458,-1.2906,-1.3127,-1.3433,-1.3794,-1.4435,-1.4741,-1.5033,-1.5312,-1.5597,-1.5635,-1.5635,-1.5635,-1.5635,-1.5635,-1.5635,-1.5398,-1.4738,-1.2823,-1.1134,-0.9724,-0.8467,0.0,0.0,0.0,-0.5633,-0.5514,-0.5742,-0.5925,0.0,-0.585,-0.5803,-0.5837,-0.5993,0.0,-0.64,-0.6976,-0.736,-0.7668,-0.795,-0.8136,-0.8252,-0.8255,-0.8147,-0.8048,-0.8041,-0.8041,-0.8045,-0.8038,-0.8038,-0.8038,-0.8031,-0.7787,-0.7604,-0.7594,-0.7207,-0.6943,0.0,-0.7058,-0.7139,-0.7139,-0.7139,-0.7139,-0.7139,-0.7136,-0.7132,-0.7132,-0.7129,-0.7126,-0.7126,-0.8177,-0.9185,-1.0173,-1.0869,-1.1729,-1.2802,-1.2438,-1.2305,-1.2305,-1.2305,-1.2305,-1.2305,-1.2305,-1.2305,-1.2345,-1.3033,-1.3731,-1.461,-1.5668,-1.5513,-1.504,0.0,0.0,0.0,0.0,0.0,0.0,0.0,0.0,0.0,0.0,0.0,0.0,0.0,0.0,0.0,0.0,0.0,0.0,0.0,-1.0211,-1.0192,-1.0733,-1.0509,-1.0873,-1.1921,-1.1873,-1.2017,-1.2325,-1.2812,-1.3253,-1.3661,-1.4155,-1.4536,-1.4836,-1.5324,-1.5538,-1.5538,-1.5538,-1.5431,-1.5217,-1.483,-1.4436,-1.3898,-1.2505,-1.1132,-0.9735,0.0,0.0,0.0,0.0,0.0,0.0,-0.5837,-0.5639,-0.5189,-0.5437,-0.5583,-0.5779,-0.6325,0.0,-0.7221,-0.7512,-0.7963,-0.8336,-0.8333,-0.8452,-0.8506,-0.8313,-0.8147,-0.798,-0.7784,-0.7746,-0.7746,-0.7746,-0.7828,-0.7889,-0.7889,-0.7801,-0.7628,-0.7333,-0.7251,0.0,0.0,0.0,0.0,-0.6993,-0.7,-0.7041,-0.7136,-0.7139,-0.7139,-0.7139,-0.7139,-0.7139,-0.7139,-0.8218,-0.9177,-0.9896,-1.1254,-1.2146,-1.2445,-1.2345,-1.2305,-1.2305,-1.2305,-1.2305,-1.2305,-1.2305,-1.2305,-1.2365,-1.3194,-1.4143,-1.5043,-1.6085,-1.628,-1.6138,0.0,0.0,0.0,0.0,0.0,0.0,0.0,0.0,0.0,0.0,0.0,0.0,0.0,0.0,0.0,0.0,0.0,0.0,0.0,0.0,-1.0418,-1.0772,-1.0584,-1.0945,-1.2009,-1.192,-1.1847,-1.1957,-1.2345,-1.2558,-1.2585,-1.3066,-1.3447,-1.3748,-1.4235,-1.4509,-1.4609,-1.4496,-1.4342,-1.4128,-1.3641,-1.3206,-1.2746,-1.177,-1.0625,0.0,0.0,0.0,0.0,0.0,0.0,0.0,-0.5908,-0.5597,-0.5077,-0.542,-0.5742,-0.6139,-0.6834,-0.7343,-0.7736,-0.7987,-0.8384,-0.8669,-0.8516,-0.8557,-0.853,-0.8177,-0.7943,-0.7726,-0.7482,-0.735,-0.7312,-0.7417,-0.7468,-0.7553,-0.7712,-0.7689,-0.7587,-0.74,-0.7373,-0.7299,0.0,0.0,0.0,-0.6997,-0.7054,-0.7102,-0.7139,-0.7139,-0.7139,-0.7139,-0.7139,-0.7316,-0.7753,-0.8886,-0.9969,-1.0922,-1.21,-1.2512,-1.2305,-1.2305,-1.2305,-1.2305,-1.2305,-1.2305,-1.2305,-1.2305,-1.2519,-1.2879,-1.3882,-1.4807,-1.5799,-1.6784,-1.6911,-1.6728,0.0,0.0,0.0,0.0,0.0,0.0,0.0,0.0,0.0,0.0,0.0,0.0,0.0,0.0,0.0,0.0,0.0,0.0,0.0,0.0,0.0,-1.026,-1.0775,-1.1374,-1.2067,-1.2378,-1.236,-1.199,-1.2005,-1.1795,-1.1451,-1.1823,-1.2049,-1.2345,-1.2647,-1.2943,-1.3126,-1.2826,-1.2768,-1.2728,-1.2338,-1.187,-1.1296,-1.0715,0.0,0.0,0.0,0.0,0.0,0.0,0.0,0.0,0.0,-0.5694,-0.564,-0.5793,-0.6264,-0.6861,-0.7451,-0.7733,-0.796,-0.8387,-0.8604,-0.8669,-0.8516,-0.8465,-0.8323,-0.7882,-0.7543,-0.7278,0.0,0.0,-0.6797,-0.7082,-0.7041,-0.7126,-0.756,-0.7499,-0.7506,0.0,0.0,0.0,0.0,0.0,0.0,-0.7166,-0.7292,-0.7312,-0.717,-0.7156,-0.7153,-0.7153,-0.7143,-0.7665,-0.889,-1.0072,-1.155,-1.3213,-1.318,-1.2859,-1.2305,-1.2305,-1.2305,-1.2305,-1.2305,-1.2305,-1.2305,-1.2378,-1.2879,-1.381,-1.4879,-1.579,-1.6706,-1.7647,-1.7471,-1.6855,0.0,0.0,0.0,0.0,0.0,0.0,0.0,0.0,0.0,0.0,0.0,0.0,0.0,0.0,0.0,0.0,0.0,0.0,0.0,0.0,0.0,0.0,0.0,0.0,0.0,0.0,0.0,-1.1794,-1.1988,-1.2181,-1.2294,-1.2558,-1.2632,-1.2477,-1.2735,-1.2639,-1.2204,-1.2131,-1.1964,-1.1717,0.0,-1.0782,-1.0388,0.0,0.0,0.0,0.0,0.0,0.0,0.0,0.0,0.0,0.0,-0.5658,-0.5969,-0.6224,-0.6729,-0.7282,-0.7655,-0.8109,-0.8509,-0.8625,-0.8682,-0.8669,-0.8516,-0.8221,-0.799,-0.7948,-0.7341,-0.6658,0.0,0.0,0.0,-0.6953,-0.7322,0.0,-0.7896,-0.7892,0.0,-0.7818,0.0,-0.7658,-0.7553,-0.76,0.0,0.0,-0.7414,-0.7404,-0.7478,-0.7373,-0.7312,-0.7312,-0.72,-0.7665,-0.889,-1.0454,-1.1948,-1.32,-1.2746,-1.2452,-1.2305,-1.2305,-1.2305,-1.2305,-1.2305,-1.2305,-1.2378,-1.3353,-1.3702,-1.3882,-1.5579,-1.6358,-1.6706,-1.7647,-1.777,-1.7668,0.0,0.0,0.0,0.0,0.0,0.0,0.0,0.0,0.0,0.0,0.0,0.0,0.0,0.0,0.0,0.0,0.0,0.0,0.0,0.0,0.0,0.0,0.0,0.0,0.0,0.0,0.0,0.0,0.0,0.0,-1.1112,-1.1445,-1.1428,-1.1085,-1.1206,-1.1175,-1.0902,-1.0768,0.0,0.0,0.0,0.0,0.0,0.0,0.0,0.0,0.0,0.0,0.0,0.0,0.0,-0.6603,-0.6422,-0.6457,-0.659,-0.6953,0.0,-0.7926,-0.8225,-0.8648,-0.8988,-0.892,-0.8855,-0.8703,-0.8282,-0.7943,-0.766,-0.7462,-0.6905,0.0,-0.6101,-0.6207,0.0,0.0,0.0,0.0,-0.7797,-0.7845,-0.7862,0.0,-0.7913,0.0,-0.7801,-0.7865,-0.7879,0.0,-0.7651,-0.7577,-0.7597,-0.7519,-0.7441,-0.7373,-0.7288,-0.8001,-0.9666,-1.1634,-1.2794,-1.3206,-1.2866,-1.2559,-1.2305,-1.2305,-1.2305,-1.2305,-1.2305,-1.2305,-1.2378,-1.3484,-1.4129,-1.4522,-1.6,-1.6853,-1.7267,-1.7591,-1.774,-1.7955,0.0,0.0,0.0,0.0,0.0,0.0,0.0,0.0,0.0,0.0,0.0,0.0,0.0,0.0,0.0,0.0,0.0,0.0,0.0,0.0,0.0,0.0,0.0,0.0,0.0,0.0,0.0,0.0,0.0,0.0,0.0,0.0,0.0,0.0,0.0,0.0,0.0,0.0,0.0,0.0,0.0,0.0,0.0,0.0,0.0,0.0,0.0,0.0,0.0,0.0,-0.6746,-0.6978,-0.7398,-0.7417,-0.7366,-0.7756,-0.8177,-0.8574,-0.8862,-0.9127,-0.9289,-0.9157,-0.8984,-0.8662,-0.7946,-0.7614,-0.7317,-0.6741,0.0,-0.5845,-0.5418,-0.5659,-0.6141,-0.643,0.0,-0.6993,-0.7577,-0.7658,-0.7753,-0.8011,-0.8038,-0.8038,-0.8038,-0.8038,-0.8038,-0.8038,-0.7916,-0.7787,-0.7665,-0.7638,-0.764,-0.7647,-0.7709,-0.8771,-1.0742,-1.2946,-1.3694,-1.3153,-1.3106,-1.2812,-1.2305,-1.2305,-1.2305,-1.2305,-1.2305,-1.2378,-1.2599,-1.3528,-1.4522,-1.5517,-1.6428,-1.7285,-1.7959,-1.7539,-1.7698,-1.8193,0.0,0.0,0.0,0.0,0.0,0.0,0.0,0.0,0.0,0.0,-0.7949,-0.789,0.0,0.0,0.0,0.0,0.0,0.0,0.0,0.0,0.0,0.0,0.0,0.0,0.0,0.0,0.0,0.0,0.0,0.0,0.0,0.0,0.0,0.0,0.0,0.0,0.0,0.0,0.0,0.0,0.0,0.0,0.0,0.0,0.0,0.0,0.0,0.0,0.0,0.0,-0.6346,-0.6954,-0.7288,-0.7705,-0.8089,-0.8167,-0.8418,-0.871,-0.8889,-0.8974,-0.9008,-0.8984,-0.8679,-0.8255,-0.775,-0.7415,0.0,0.0,-0.5412,-0.4099,-0.333,-0.4734,-0.6139,-0.6586,0.0,0.0,0.0,0.0,-0.798,0.0,0.0,-0.8038,-0.8038,-0.8038,0.0,0.0,-0.8014,-0.7987,-0.7963,-0.7841,-0.8113,-0.8808,-0.9623,-1.056,-1.1678,-1.2813,-1.318,-1.2903,-1.2579,-1.2405,-1.2305,-1.2305,-1.2305,-1.2305,-1.2305,-1.29,-1.395,-1.4617,-1.5508,-1.6428,-1.7364,-1.7862,-1.7959,-1.7539,-1.8266,-1.9357,0.0,0.0,0.0,0.0,0.0,0.0,0.0,-0.8066,-0.8223,-0.8652,-0.8257,-0.8071,-0.8375,-0.8326,-0.8457,0.0,0.0,0.0,0.0,0.0,0.0,0.0,0.0,0.0,0.0,0.0,-1.128,-1.1543,0.0,-1.1177,-1.0586,-1.0548,-1.0097,-0.9263,-0.9263,-0.9113,0.0,0.0,0.0,-0.8804,-0.8804,-0.8804,0.0,0.0,0.0,0.0,0.0,0.0,0.0,0.0,-0.6023,-0.6702,-0.7383,-0.7909,-0.8299,-0.8455,-0.871,-0.8974,-0.9127,-0.9225,-0.9249,-0.9089,-0.8655,-0.8092,-0.7407,0.0,0.0,0.0,-0.4547,-0.4327,-0.4126,0.0,0.0,0.0,0.0,0.0,0.0,0.0,0.0,0.0,0.0,0.0,0.0,-0.8038,-0.8038,-0.8038,-0.8038,-0.8038,-0.8038,-0.7824,-0.7914,-0.8313,-0.9818,-1.0761,-1.1033,-1.2588,-1.3206,-1.2822,-1.2681,-1.2452,-1.2305,-1.2305,-1.2305,-1.2305,-1.2305,-1.3053,-1.4248,-1.4903,-1.572,-1.6706,-1.7647,-1.8008,-1.7959,-1.7539,-1.8124,-1.905,0.0,0.0,0.0,0.0,0.0,0.0,0.0,-0.8411,-0.8564,-0.9072,-0.8604,-0.8263,-0.8344,-0.8068,-0.8082,0.0,0.0,0.0,0.0,0.0,0.0,0.0,0.0,0.0,0.0,0.0,0.0,-1.0743,-1.0684,0.0,0.0,0.0,0.0,0.0,-0.8778,-0.8804,-0.8804,-0.8804,0.0,0.0,0.0,-0.8804,0.0,0.0,0.0,0.0,0.0,0.0,0.0,0.0,-0.565,-0.6227,-0.7143,-0.777,-0.8211,-0.8411,-0.875,-0.9089,-0.9245,-0.9374,-0.9401,-0.9127,-0.8611,-0.7936,-0.7034,-0.6702,0.0,0.0,-0.3631,-0.4618,-0.5205,0.0,-0.5772,0.0,-0.6332,0.0,0.0,0.0,0.0,0.0,0.0,0.0,-0.8038,-0.8038,0.0,-0.8038,-0.8038,-0.8024,-0.7991,-0.777,-0.7708,-0.7919,-0.9451,-1.0272,-1.0128,-1.1876,-1.251,-1.2031,-1.2259,-1.2218,-1.1909,-1.215,-1.2305,-1.2305,-1.2519,-1.3258,-1.4441,-1.518,-1.6079,-1.6991,-1.7716,-1.8008,-1.7959,-1.7539,-1.7936,-1.8614,0.0,0.0,0.0,0.0,0.0,0.0,0.0,-0.8411,-0.8672,-0.9427,-0.8887,-0.8326,-0.8227,-0.8494,-0.8364,0.0,0.0,0.0,0.0,0.0,0.0,0.0,0.0,0.0,0.0,0.0,0.0,-1.0182,-1.0185,0.0,0.0,0.0,0.0,0.0,0.0,-0.8804,-0.8804,-0.8804,0.0,0.0,0.0,0.0,0.0,0.0,0.0,0.0,0.0,0.0,0.0,0.0,0.0,-0.5532,-0.6034,-0.6956,-0.7834,-0.7733,0.0,0.0,-0.8937,-0.8991,-0.896,-0.8794,-0.8299,-0.7617,-0.6719,0.0,0.0,-0.3212,-0.2833,-0.3292,-0.4683,-0.5215,-0.5532,0.0,0.0,-0.6491,0.0,0.0,0.0,0.0,0.0,0.0,-0.8038,-0.8038,-0.8038,-0.8038,-0.8038,-0.7977,-0.7838,-0.7804,-0.8131,-0.8923,-0.9148,-0.9483,-0.9897,-1.0131,-0.9994,-0.963,-1.0524,-1.0795,-1.0525,-1.1755,-1.2305,-1.2378,-1.3164,-1.4171,-1.5171,-1.6079,-1.7001,-1.7862,-1.794,-1.8008,-1.7959,-1.7539,-1.8203,-1.8989,0.0,0.0,0.0,0.0,0.0,0.0,-0.8311,-0.8594,-0.8965,-0.9515,-0.9301,-0.9035,-0.8993,-0.8867,-0.856,-0.7932,0.0,0.0,0.0,0.0,0.0,0.0,0.0,0.0,0.0,0.0,-0.9662,-1.0207,-0.9822,0.0,0.0,0.0,0.0,0.0,0.0,-0.8711,-0.855,-0.855,0.0,0.0,0.0,0.0,0.0,0.0,0.0,0.0,0.0,0.0,0.0,0.0,0.0,0.0,-0.506,-0.5725,0.0,0.0,-0.7797,-0.8282,-0.8798,-0.9001,-0.9011,-0.8771,-0.8123,-0.7454,-0.6983,0.0,-0.5517,-0.4527,-0.3478,-0.3204,-0.4885,-0.5205,-0.5342,-0.5705,0.0,0.0,-0.6641,0.0,0.0,0.0,0.0,0.0,0.0,0.0,-0.8001,-0.7909,-0.7902,-0.7797,-0.756,-0.7634,-0.7813,-0.8147,-0.8669,-0.8953,-0.8896,-0.9533,-0.9721,-0.9296,-0.9669,-1.0029,-1.037,-1.1658,-1.2728,-1.3426,-1.3863,-1.4768,-1.607,-1.6428,-1.7139,-1.8008,-1.8008,-1.8008,-1.7988,-1.7822,-1.8063,-1.8412,0.0,0.0,0.0,0.0,0.0,-0.7841,-0.8311,-0.874,-0.915,-0.9534,-0.9554,-0.9509,-0.9509,-0.9132,-0.872,-0.8416,-0.9097,0.0,0.0,0.0,0.0,0.0,0.0,0.0,0.0,0.0,-0.9131,-0.9597,-0.9199,-0.9029,0.0,0.0,-0.8283,-0.8684,0.0,0.0,0.0,0.0,0.0,0.0,0.0,0.0,0.0,0.0,0.0,0.0,0.0,0.0,0.0,0.0,0.0,0.0,0.0,0.0,0.0,0.0,-0.7207,-0.7797,-0.833,-0.871,-0.8882,-0.8584,-0.7872,-0.7176,0.0,0.0,-0.483,-0.5097,-0.3837,-0.3239,-0.506,-0.5283,-0.527,-0.5488,0.0,-0.5644,-0.6254,0.0,0.0,0.0,0.0,-0.7792,0.0,-0.796,-0.7835,-0.7821,-0.7773,-0.7658,-0.7451,-0.7499,-0.7512,-0.7465,-0.8102,-0.8249,-0.7765,-0.8626,-0.8832,-0.8389,-0.9057,-0.9246,-0.92,-1.1347,-1.3124,-1.4511,-1.4537,-1.5267,-1.6636,-1.6922,-1.7217,-1.7579,-1.7872,-1.7862,-1.7647,-1.7862,-1.8008,-1.7988,0.0,0.0,0.0,0.0,0.0,0.0,-0.8311,-0.874,-0.915,-0.9534,-0.9602,-0.9572,-0.9512,-0.9186,-0.8926,-0.881,-0.93,0.0,0.0,0.0,0.0,0.0,0.0,0.0,0.0,0.0,-0.7919,-0.7919,-0.8199,-0.8312,-0.8335,-0.838,-0.8377,-0.839,0.0,0.0,0.0,0.0,0.0,0.0,0.0,0.0,0.0,0.0,0.0,0.0,0.0,0.0,0.0,0.0,0.0,0.0,0.0,0.0,0.0,0.0,-0.6329,-0.738,-0.7387,-0.7926,-0.8418,-0.8119,-0.7485,-0.6867,0.0,0.0,-0.3394,-0.4342,-0.3546,-0.3263,-0.5081,-0.5375,-0.5425,-0.5428,-0.5491,0.0,-0.5993,0.0,0.0,0.0,0.0,-0.7974,-0.8015,-0.7773,-0.7738,-0.7814,-0.7682,-0.76,-0.7597,-0.7455,-0.7302,-0.7149,-0.7288,-0.7153,-0.6705,-0.6851,-0.6702,-0.6338,-0.8503,-0.8353,-0.6504,-1.0502,-1.3389,-1.5202,-1.5174,-1.5728,-1.6636,-1.7579,-1.7432,-1.6706,-1.7647,-1.7432,-1.6706,-1.7647,-1.8008,-1.7949,0.0,0.0,0.0,0.0,0.0,0.0,0.0,-0.874,-0.9053,-0.9189,-0.9417,-0.9498,-0.92,-0.8805,-0.8567,-0.8527,-0.8931,0.0,0.0,0.0,0.0,0.0,0.0,0.0,0.0,0.0,-0.8185,-0.8707,-0.8435,-0.8497,-0.8893,-0.8574,-0.8222,-0.7927,-0.8013,-0.7512,0.0,0.0,0.0,0.0,0.0,0.0,0.0,0.0,0.0,0.0,0.0,0.0,0.0,0.0,0.0,0.0,0.0,0.0,0.0,0.0,0.0,0.0,-0.6647,-0.7007,-0.7217,-0.7017,-0.6735,-0.646,-0.6417,0.0,-0.403,-0.1867,-0.1101,-0.1728,-0.4555,-0.522,-0.5383,-0.5411,-0.5426,0.0,0.0,0.0,0.0,0.0,-0.4864,-0.556,0.0,0.0,-0.7811,-0.7685,-0.7624,-0.7509,-0.7299,-0.7241,-0.7241,-0.7295,-0.7238,-0.7039,-0.6702,-0.6726,-0.6579,-0.6338,-0.7687,-0.8349,-0.8406,-1.1039,-1.2604,-1.3317,-1.4641,-1.5376,-1.5658,-1.5939,-1.5939,-1.572,-1.6645,-1.6853,-1.6706,-1.7647,-1.8008,-1.7988,0.0,0.0,0.0,0.0,0.0,0.0,0.0,-0.8633,-0.8945,-0.8789,-0.9131,-0.9297,-0.9033,-0.8338,-0.806,-0.8359,-0.8319,0.0,0.0,0.0,0.0,0.0,0.0,0.0,0.0,-0.7863,-0.7851,-0.8509,-0.8259,-0.8407,-0.8905,-0.8369,-0.7995,-0.767,-0.7396,-0.677,0.0,0.0,0.0,0.0,0.0,0.0,-0.5058,0.0,0.0,0.0,0.0,0.0,0.0,0.0,0.0,0.0,0.0,0.0,0.0,0.0,-0.4809,0.0,0.0,-0.6379,-0.6512,-0.6438,-0.6367,0.0,0.0,0.0,-0.4101,-0.0675,-0.0,-0.0645,-0.2646,-0.4206,-0.525,-0.5404,-0.5471,0.0,0.0,0.0,0.0,-0.2308,0.0,0.0,0.0,-0.6709,-0.7828,-0.7614,-0.7492,-0.7343,-0.7149,-0.7139,-0.716,-0.7296,-0.7205,-0.6915,-0.6617,-0.6576,-0.6694,-0.6872,-0.7683,-0.8665,-0.9728,-1.1773,-1.272,-1.2885,-1.4228,-1.4902,0.0,-1.5027,-1.4828,-1.4736,-1.607,-1.6349,-1.6219,-1.7501,-1.8008,-1.8008,0.0,0.0,0.0,0.0,0.0,0.0,0.0,-0.8447,-0.8818,-0.8396,-0.8721,-0.8945,-0.8882,-0.7832,-0.7463,-0.8291,0.0,0.0,0.0,0.0,0.0,0.0,0.0,0.0,0.0,-0.7273,-0.7174,-0.754,-0.7789,-0.8096,-0.841,-0.7933,-0.767,-0.7616,-0.6858,-0.6091,0.0,0.0,0.0,0.0,0.0,0.0,0.0,0.0,0.0,0.0,0.0,0.0,0.0,0.0,0.0,0.0,0.0,0.0,0.0,0.0,0.0,0.0,0.0,0.0,0.0,0.0,0.0,0.0,0.0,0.0,0.0,0.0,0.0,-0.0,-0.0,-0.2591,-0.4833,-0.5128,-0.5518,0.0,0.0,0.0,0.0,0.0,-0.0187,0.0,-0.3514,-0.6108,-0.7553,-0.7604,-0.7326,-0.7153,-0.7139,-0.7132,-0.7061,-0.7093,-0.7079,-0.6846,-0.6555,-0.6522,-0.6925,-0.7702,-0.838,-0.9192,-1.025,-1.2485,-1.3522,-1.3453,-1.3937,-1.4313,-1.4473,-1.4473,-1.4135,-1.381,-1.5649,-1.593,-1.5446,-1.7226,-1.794,-1.8008,0.0,0.0,0.0,0.0,0.0,0.0,0.0,0.0,0.0,0.0,-0.8297,-0.8293,-0.7621,-0.7555,-0.7636,0.0,0.0,0.0,0.0,0.0,0.0,0.0,0.0,0.0,0.0,-0.7063,-0.7281,-0.7822,-0.7848,-0.8196,-0.8711,-0.8019,-0.7396,-0.6804,-0.6091,-0.5382,0.0,0.0,0.0,0.0,0.0,0.0,0.0,0.0,0.0,0.0,-0.4484,-0.4487,0.0,0.0,0.0,0.0,0.0,0.0,0.0,0.0,-0.3588,-0.4541,-0.4738,0.0,-0.3173,-0.3148,-0.4062,0.0,0.0,0.0,0.0,0.0,0.0,0.0,0.0,0.0,0.0,0.0,0.0,0.0,0.0,0.0,0.0,-0.573,-0.2533,-0.0295,-0.0858,-0.5019,-0.7571,-0.7432,-0.7336,-0.7265,-0.7146,-0.7037,-0.6912,-0.6846,-0.6808,-0.6711,-0.6638,-0.6479,-0.6468,-0.6663,-0.8894,-0.9536,-0.899,-1.2956,-1.3622,-1.1785,-1.3726,-1.3791,-1.2558,-1.2558,-1.2599,-1.2732,-1.3954,-1.4736,-1.5376,-1.6498,-1.7354,-1.8008,0.0,0.0,0.0,0.0,0.0,0.0,0.0,0.0,0.0,0.0,0.0,0.0,0.0,0.0,0.0,0.0,0.0,0.0,0.0,0.0,0.0,0.0,0.0,0.0,-0.7021,-0.6979,-0.7255,-0.7715,-0.7862,-0.796,-0.808,-0.7505,-0.6799,-0.6036,-0.5382,-0.4842,0.0,0.0,0.0,0.0,-0.4519,0.0,0.0,0.0,0.0,0.0,-0.3694,-0.3469,0.0,-0.4274,-0.3934,-0.3023,0.0,0.0,0.0,0.0,-0.3317,-0.4521,-0.4521,-0.2895,-0.12,-0.12,-0.1834,-0.2411,0.0,0.0,0.0,0.0,0.0,0.0,0.0,0.0,0.0,0.0,-0.2154,0.0,0.0,0.0,0.0,-0.398,-0.1735,-0.0,-0.0,-0.2509,-0.4988,-0.7246,-0.7279,-0.7238,-0.7146,-0.692,-0.6773,-0.6705,-0.6549,-0.6441,-0.6537,-0.6359,-0.6601,-0.7259,-0.903,-0.9936,-1.0271,-1.3106,-1.3327,-1.154,-1.3074,-1.2959,-1.1663,-1.1663,-1.1757,-1.2053,-1.3595,-1.4487,-1.5141,-1.6651,-1.7579,-1.8008,0.0,0.0,0.0,0.0,0.0,0.0,0.0,0.0,0.0,0.0,0.0,0.0,0.0,0.0,0.0,0.0,0.0,0.0,0.0,0.0,0.0,0.0,0.0,-0.7124,-0.7014,-0.6934,-0.7104,-0.758,-0.76,-0.7542,-0.7355,-0.6711,-0.6036,-0.5328,-0.4736,-0.4522,0.0,0.0,-0.4522,-0.4522,-0.4522,0.0,0.0,0.0,0.0,0.0,0.0,0.0,0.0,-0.337,-0.3828,-0.3375,-0.0784,0.0,0.0,0.0,0.0,0.0,-0.3154,-0.1384,0.0355,0.0059,-0.0,-0.0,0.0,0.0,0.0,0.0,0.0,0.0,0.0,0.0,0.0,0.0,0.0,0.0,-0.0,-0.0,-0.0,-0.0,-0.0,-0.0,-0.0,-0.0,-0.1784,-0.5918,-0.6802,-0.7068,-0.7024,-0.6883,-0.6726,-0.6552,-0.6318,-0.6332,-0.6499,-0.6558,-0.7391,-0.892,-0.9399,-1.0524,-1.2225,-1.3042,-1.2819,-1.1861,-1.2492,-1.2241,-1.1423,-1.1376,-1.1451,-1.1792,-1.3729,-1.4678,-1.5129,-1.6989,-1.7784,-1.792,0.0,0.0,0.0,0.0,0.0,0.0,0.0,0.0,0.0,0.0,0.0,0.0,0.0,0.0,0.0,0.0,0.0,0.0,0.0,0.0,0.0,0.0,-0.7064,-0.7016,-0.6979,-0.6686,-0.6945,-0.7856,-0.6889,-0.6881,-0.7611,-0.6288,-0.5281,-0.4639,-0.4532,-0.4484,-0.449,-0.449,-0.449,-0.449,-0.449,0.0,0.0,0.0,0.0,0.0,0.0,0.0,0.0,-0.0616,-0.0672,-0.0617,-0.0168,0.0,0.0,0.0,0.0,0.0,0.3144,0.2695,0.1931,0.0401,-0.0,-0.0,0.0,0.0,0.0,0.0,0.0,0.0,0.0,0.0,0.0,0.0,0.0,-0.0,0.0,0.0,-0.0,-0.0,-0.0,-0.0,-0.0,-0.0,-0.0278,-0.1107,-0.4797,-0.7027,-0.6804,-0.6824,-0.661,-0.6094,-0.61,-0.6474,-0.7479,-0.7855,-0.9311,-1.1653,-1.1471,-1.1461,-1.1852,-1.3071,-1.2884,-1.1559,-1.2465,-1.2308,-1.141,-1.1162,-1.1604,-1.2548,-1.3271,-1.4405,-1.578,-1.612,-1.6738,-1.7464,0.0,0.0,0.0,0.0,0.0,0.0,0.0,0.0,0.0,0.0,0.0,0.0,0.0,0.0,0.0,0.0,0.0,0.0,0.0,0.0,0.0,-0.7014,-0.6979,-0.6979,-0.6979,-0.6597,-0.6842,-0.7682,-0.6674,-0.6447,-0.6875,-0.5558,-0.4798,-0.4477,-0.3633,-0.3241,-0.3244,-0.3244,-0.3244,-0.3244,0.0,0.0,0.0,0.0,0.0,0.0,0.0,0.0,0.0,0.0,-0.0,-0.0,-0.0,0.0,0.0,0.0,0.0,0.0,0.4507,0.4077,0.355,0.3056,0.1459,-0.0,0.0,0.0,0.0,0.0,0.0,0.0,0.0,0.0,-0.0,-0.0,0.0,-0.0,-0.0,-0.0,-0.0,-0.0,-0.0,-0.0,-0.0,-0.0,-0.0,-0.0,-0.202,-0.4293,-0.6489,-0.6597,-0.6363,-0.5987,-0.6352,-0.6837,-0.7294,-0.8429,-0.9856,-1.1675,-1.1429,-1.1519,-1.1786,-1.2255,-1.2186,-1.1657,-1.197,-1.1999,-1.1755,-1.124,-1.1493,-1.233,-1.3115,-1.3924,-1.4827,-1.5919,-1.6592,-1.7024,0.0,0.0,0.0,0.0,0.0,0.0,0.0,0.0,0.0,0.0,0.0,0.0,0.0,0.0,0.0,0.0,0.0,0.0,0.0,0.0,-0.6937,-0.681,-0.6937,-0.6979,-0.6979,-0.6597,-0.6714,-0.7335,-0.6399,-0.5906,-0.5806,-0.4903,-0.4484,-0.4432,-0.3244,-0.2347,-0.1675,-0.1675,-0.1675,-0.1675,0.0,0.0,0.0,0.0,0.0,0.0,0.0,0.0,0.0,0.0,0.0,0.0,0.0,0.0,0.0,0.3828,0.4511,0.4504,0.4494,0.4518,0.4654,0.5094,0.0,0.0,0.0,0.0,0.0,0.0,0.0,0.0,0.0,-0.0,0.0,-0.0,-0.0,-0.0,-0.0,-0.0,-0.0,-0.0,-0.0,-0.0,-0.0,-0.0,-0.0445,-0.1412,-0.0597,-0.1913,-0.621,-0.6232,-0.6,-0.5932,-0.6666,-0.7043,-0.7011,-0.8596,-0.9844,-1.0773,-1.0989,-1.1325,-1.1757,-1.153,-1.155,-1.175,-1.1648,-1.1836,-1.2178,-1.1675,-1.1814,-1.2474,-1.3501,-1.402,-1.441,-1.5947,-1.6516,-1.6369,0.0,0.0,0.0,0.0,0.0,0.0,0.0,0.0,0.0,0.0,0.0,0.0,0.0,0.0,0.0,0.0,0.0,0.0,0.0,0.0,-0.6768,-0.6264,-0.6725,-0.6979,-0.6979,-0.6597,-0.6568,-0.6847,-0.5723,-0.4998,-0.4625,-0.4529,-0.449,-0.4511,-0.4396,-0.2807,-0.0168,-0.0168,-0.0168,-0.0168,-0.0168,0.0,0.0,0.0,0.0,0.0,0.0,0.0,0.0,0.0,0.0,0.0,0.0,0.0,0.4228,0.4455,0.4497,0.448,0.448,0.4575,0.465,0.4587,0.2249,0.0,0.0,0.0,0.0,-0.0,0.0,0.0,0.0,-0.0,-0.0,-0.0,-0.0,-0.0,-0.0,-0.0,-0.0,-0.0,-0.0,-0.0,-0.0,-0.0,-0.1642,-0.5521,-0.2181,-0.1804,-0.5843,-0.564,-0.5523,-0.5637,-0.649,-0.7118,-0.7428,-0.8353,-0.9174,-0.9819,-1.0618,-1.1176,-1.1456,-1.1436,-1.1436,-1.1436,-1.1918,-1.2143,-1.2228,-1.2679,-1.3329,-1.4079,-1.4568,-1.5225,-1.5932,-1.6115,-1.5878,-1.5488,0.0,0.0,0.0,0.0,0.0,0.0,0.0,0.0,0.0,0.0,0.0,0.0,0.0,0.0,0.0,0.0,0.0,0.0,0.0,0.0,-0.6768,-0.6221,-0.6732,-0.6677,-0.5947,-0.6236,-0.6528,-0.6781,-0.5977,-0.5233,-0.448,-0.4494,-0.4504,-0.4399,-0.2525,-0.1065,-0.0,-0.0,-0.0,-0.0,-0.0,-0.0,0.0,0.0,0.0,0.0,0.0,0.0,0.0,0.0,-0.0,0.0336,0.2188,0.3599,0.4511,0.4497,0.4487,0.4477,0.4525,0.4579,0.4657,0.4521,0.0,0.0,0.0,-0.0,-0.0,-0.0,-0.0,0.0,0.0,0.0,-0.0,-0.0,-0.0,-0.0,-0.0,-0.0,-0.0,-0.0,-0.0,-0.0,-0.0,-0.2358,-0.4421,-0.5632,-0.4644,-0.4411,-0.5557,-0.5453,-0.5708,-0.6246,-0.7162,-0.7802,-0.8303,-0.9175,-0.9633,-0.9684,-1.0174,-1.0695,-1.1149,-1.0969,-1.1304,-1.1904,-1.1973,-1.2265,-1.2679,-1.2647,-1.2797,-1.3135,-1.3804,-1.4595,-1.5269,-1.5271,-1.5187,-1.4964,0.0,0.0,0.0,0.0,0.0,0.0,0.0,0.0,0.0,0.0,0.0,0.0,0.0,0.0,0.0,0.0,0.0,0.0,-0.6979,-0.6979,-0.6683,-0.5959,-0.6428,-0.6209,-0.5043,-0.5745,-0.6162,-0.6207,-0.5699,-0.4857,-0.3799,-0.4274,-0.3999,-0.2977,-0.0897,-0.0,-0.0,-0.0,-0.0,-0.0,-0.0,-0.0,0.0,0.0,0.0,0.0,0.0,0.0,0.0,0.0,0.1401,0.1682,0.3256,0.4104,0.4501,0.4484,0.4477,0.4473,0.4519,0.4538,0.4652,0.0,0.0,0.0,0.0,0.1501,0.1046,0.0157,-0.0,0.0,-0.0,0.0,0.0,0.0,-0.0,-0.0,-0.0,-0.0,-0.0,-0.0,-0.0,-0.0426,-0.157,-0.4317,-0.587,-0.5532,-0.5802,-0.5822,-0.5406,-0.571,-0.6108,-0.6573,-0.7594,-0.8296,-0.8679,-0.9451,-0.974,-0.9546,-0.9746,-1.01,-1.0575,-1.0609,-1.0932,-1.1413,-1.173,-1.1991,-1.2349,-1.229,-1.2421,-1.2702,-1.346,-1.4087,-1.4592,-1.4561,-1.4554,-1.4535,0.0,0.0,0.0,0.0,0.0,0.0,0.0,0.0,0.0,0.0,0.0,0.0,0.0,0.0,0.0,0.0,0.0,0.0,-0.6979,-0.6979,-0.6507,-0.5351,-0.5873,-0.561,-0.4434,-0.5119,-0.5288,-0.4911,-0.4649,-0.3688,-0.2232,-0.3764,-0.2865,-0.0,-0.0,-0.0,-0.0,-0.0,-0.0,-0.0,-0.0,-0.0,-0.0,0.0,0.0,0.0,0.0,0.0,0.0,0.0,0.4514,0.4225,0.2683,0.3294,0.448,0.448,0.4525,0.4519,0.4519,0.4519,0.0,0.0,0.0,0.0,0.0,0.4913,0.3228,0.0629,0.0,-0.0,-0.0,-0.0,0.0,-0.0,-0.0,-0.0,-0.0,-0.0,-0.0084,-0.0084,-0.0,-0.1405,-0.4988,-0.5361,-0.5481,-0.5781,-0.5535,-0.5399,-0.5439,-0.6482,-0.6919,-0.645,-0.7707,-0.8416,-0.8416,-0.8921,-0.9183,-0.9183,-0.9183,-0.9392,-0.9737,-1.0401,-1.0351,-0.9795,-1.123,-1.1503,-1.0956,-1.1752,-1.251,-1.3181,-1.3812,-1.4103,-1.4092,-1.4109,-1.4105,-1.408,0.0,0.0,0.0,0.0,0.0,0.0,0.0,0.0,0.0,0.0,0.0,0.0,0.0,0.0,0.0,0.0,0.0,0.0,-0.6979,-0.6641,-0.6087,-0.5346,-0.548,-0.5005,-0.388,-0.4243,-0.4664,-0.5038,-0.4653,-0.3694,-0.2232,-0.3764,-0.2865,-0.0,-0.0,-0.0,-0.0,-0.0,-0.0,-0.0,-0.0,-0.0,-0.0,0.0,0.0,0.0,0.0,0.0,0.0,0.0,0.0,0.0,0.3974,0.4141,0.4477,0.4525,0.4522,0.4519,0.4519,0.0,0.0,0.0,0.0,0.0,0.0,0.58,0.0,0.0,0.1182,-0.0,-0.0,-0.0,0.0,-0.0,-0.0,-0.0,-0.0,-0.2594,-0.4305,-0.3864,-0.2697,-0.2356,-0.3366,-0.4621,-0.5445,-0.5528,-0.5614,-0.5849,-0.6187,-0.6551,-0.7064,-0.7811,-0.8221,-0.8567,-0.8965,-0.9112,-0.9084,-0.8931,-0.9397,-0.9883,-1.0401,-1.0128,-1.0458,-1.123,-1.123,-1.1069,-1.094,-1.1366,-1.2122,-1.2997,-1.3472,-1.3661,-1.3691,-1.3677,-1.3701,-1.3654,0.0,0.0,0.0,0.0,0.0,0.0,0.0,0.0,0.0,0.0,0.0,0.0,0.0,0.0,0.0,0.0,0.0,0.0,0.0,-0.6392,-0.583,-0.5,-0.5173,-0.4909,-0.4118,-0.4025,-0.4274,-0.4862,-0.4604,-0.3697,-0.2232,-0.3764,-0.3546,-0.1741,-0.0559,-0.0,-0.0,-0.0,-0.0,-0.0,-0.0,-0.0,-0.0,0.0,0.0,0.0,0.0,0.0,0.0,0.0,0.0,0.0,0.4477,0.0,0.4525,0.4519,0.4519,0.4519,0.4519,0.0,0.0,0.0,0.0,0.0,0.0,0.0,0.0,0.0,0.0,0.2212,0.0325,-0.0,-0.0,-0.0,-0.0,-0.0,-0.0,-0.2219,-0.4311,-0.5576,-0.4574,-0.3765,-0.3747,-0.4754,-0.5432,-0.5406,-0.5561,-0.5924,-0.6515,-0.7111,-0.7746,-0.8328,-0.8462,-0.8783,-0.9183,-0.907,-0.8978,-0.8811,-0.9465,-0.997,-1.0349,-1.0192,-1.0459,-1.1042,-1.0349,-1.0247,-1.0499,-1.0918,-1.1634,-1.251,-1.3037,-1.3262,-1.3262,-1.3262,-1.3262,-1.3213,0.0,0.0,0.0,0.0,0.0,0.0,0.0,0.0,0.0,0.0,0.0,0.0,0.0,0.0,0.0,0.0,0.0,0.0,0.0,0.0,-0.5566,-0.4485,-0.4925,-0.5052,-0.4824,-0.4275,-0.4178,-0.446,-0.4484,-0.3811,-0.2456,-0.3538,-0.4235,-0.436,-0.1624,-0.028,-0.0,-0.0,-0.0,-0.0,0.028,0.0392,0.0392,0.028,0.0,0.0,0.0,0.0,0.0,0.0,0.0,0.0,0.4522,0.4519,0.4519,0.4519,0.4519,0.4519,0.4519,0.0,0.0,0.0,0.0,0.0,0.0,0.0,0.6629,0.6943,0.0,0.5696,0.1137,0.0153,-0.0,-0.0,-0.0,-0.0146,-0.0446,-0.0511,-0.194,-0.5772,-0.5731,-0.5443,-0.5352,-0.5342,-0.5384,-0.5411,-0.5321,-0.5719,-0.6539,-0.8,-0.8621,-0.8249,-0.8616,-0.8931,-0.9143,-0.8991,-0.8857,-0.8811,-0.9614,-0.9961,-0.9917,-1.0466,-1.0364,-0.9666,-0.9113,-0.9256,-0.9969,-1.061,-1.1266,-1.1972,-1.2618,-1.2881,-1.2881,-1.2881,-1.2881,-1.2881,0.0,0.0,0.0,0.0,0.0,0.0,0.0,0.0,0.0,0.0,0.0,0.0,0.0,0.0,0.0,0.0,0.0,0.0,0.0,0.0,-0.4958,-0.4778,-0.4449,-0.4182,-0.4029,-0.4134,-0.419,-0.4257,-0.4436,-0.433,-0.3937,-0.1902,-0.2244,-0.4475,-0.3831,-0.2244,-0.0,-0.0,-0.0,0.0224,0.2581,0.3543,0.3373,0.2179,0.2905,0.0,0.0,0.0,0.0,0.0,0.0,0.0,0.4519,0.4519,0.4519,0.4519,0.4519,0.4519,0.0,0.4575,0.0,0.0,0.0,0.0,0.0,0.6532,0.6545,0.6488,0.661,0.5985,0.3335,0.1245,-0.0,-0.0,-0.0,-0.0976,-0.3837,-0.4266,-0.4573,-0.5492,-0.566,-0.551,-0.5033,-0.5005,-0.5144,-0.5408,-0.4955,-0.5242,-0.6559,-0.7985,-0.8756,-0.8684,-0.8732,-0.8838,-0.8898,-0.9344,-0.9309,-0.8804,-1.0568,-1.1116,-1.0559,-1.0167,-0.9666,-0.9061,-0.9413,-0.9969,-1.0669,-1.1316,-1.203,-1.2666,-1.2822,-1.2881,-1.2881,-1.2881,-1.2881,-1.2822,0.0,0.0,0.0,0.0,0.0,0.0,0.0,0.0,0.0,0.0,0.0,0.0,0.0,0.0,0.0,0.0,0.0,0.0,0.0,0.0,-0.4759,-0.4898,-0.424,-0.4087,-0.4504,-0.4205,-0.4177,-0.4331,-0.4467,-0.4507,0.0,-0.1398,-0.0839,-0.2419,-0.3831,-0.2017,0.2132,0.2132,0.1736,0.1174,0.2745,0.3819,0.4392,0.3585,0.3805,0.448,0.4487,0.0,0.0,0.0,0.0,0.0,0.0,0.0,0.4519,0.4519,0.4519,0.4519,0.0,0.0,0.0,0.0,0.0,0.0,0.0,0.6287,0.6266,0.6198,0.6437,0.6332,0.5113,0.2207,-0.0,-0.0,-0.1198,-0.2808,-0.4703,-0.4988,-0.4971,-0.4948,-0.5111,-0.5079,-0.4756,-0.4731,-0.4759,-0.4933,-0.4702,-0.5416,-0.7529,-0.8356,-0.8825,-0.8811,-0.8804,-0.8956,-0.9256,-0.9614,-0.9762,-0.9762,-1.1166,-1.1616,-1.1266,-1.0914,-1.0218,-0.9309,-0.9969,-1.0661,-1.1316,-1.1665,-1.2236,-1.2881,-1.2881,-1.2881,-1.2881,-1.2501,-1.2344,-1.2267,0.0,0.0,0.0,0.0,0.0,0.0,0.0,0.0,0.0,0.0,0.0,0.0,0.0,0.0,0.0,0.0,0.0,0.0,0.0,0.0,0.0,-0.4753,-0.4206,-0.4267,-0.498,-0.4367,-0.4141,-0.4514,-0.4514,0.0,0.0,0.0,0.0,-0.0112,-0.2074,-0.0168,0.4514,0.4511,0.3761,0.2623,0.2623,0.3355,0.4494,0.449,0.4484,0.4477,0.4477,0.4525,0.4519,0.4519,0.0,0.0,0.0,0.0,0.468,0.468,0.468,0.4625,0.0,0.0,0.0,0.0,0.0,0.0,0.0,0.5849,0.594,0.596,0.629,0.6587,0.6321,0.2849,-0.0,-0.0,-0.2546,-0.4527,-0.4496,-0.448,-0.4474,-0.4477,-0.449,-0.4477,-0.4477,-0.4478,-0.4515,-0.4508,-0.4477,-0.5751,-0.8648,-0.8817,-0.8811,-0.8811,-0.8804,-0.9106,-0.9814,-0.9917,-1.0261,-1.0813,-1.1466,-1.1814,-1.1814,-1.1814,-1.1116,-1.0012,-1.0596,-1.1172,-1.1715,-1.1813,-1.2241,-1.2773,-1.2773,-1.2764,-1.2647,-1.1923,-1.1603,-1.1407,0.0,0.0,0.0,0.0,0.0,0.0,0.0,0.0,0.0,0.0,0.0,0.0,0.0,0.0,0.0,0.0,0.0,0.0,0.0,0.0,0.0,-0.4288,-0.4385,-0.424,-0.3844,-0.4222,-0.447,-0.4514,0.0,0.0,0.0,0.0,0.0,0.0112,0.0,0.3769,0.4514,0.4504,0.4383,0.4209,0.42,0.4311,0.448,0.4525,0.4522,0.4519,0.4519,0.4519,0.4519,0.4519,0.4519,0.0,0.0,0.0,0.5378,0.5378,0.5378,0.5218,0.0,0.0,0.0,0.0,0.0,0.0,0.0,0.0,0.5549,0.0,0.6082,0.6368,0.6302,0.2853,-0.0,-0.0,-0.2549,-0.4529,-0.4515,-0.4488,-0.4485,-0.4492,-0.4524,-0.4507,-0.4507,-0.448,-0.4505,-0.4474,-0.4504,-0.577,-0.8637,-0.8805,-0.8818,-0.8804,-0.8804,-0.9106,-0.9814,-1.0364,-1.0712,-1.0813,-1.1466,-1.1814,-1.1814,-1.1814,-1.1366,-1.0695,-1.1028,-1.1214,-1.1318,-1.1912,-1.2212,-1.2268,-1.2268,-1.213,-1.184,-1.1205,-1.0798,-1.0446,0.0,0.0,0.0,0.0,0.0,0.0,0.0,0.0,0.0,0.0,0.0,0.0,0.0,0.0,0.0,0.0,0.0,0.0,0.0,0.0,0.0,-0.4392,-0.3601,-0.3493,-0.4075,-0.2565,-0.2642,-0.4524,0.0,0.0,0.0,-0.0,-0.0,0.0,0.0,0.0,0.0,0.4497,0.449,0.4477,0.4473,0.4525,0.4525,0.4519,0.4519,0.4519,0.4519,0.4519,0.4519,0.4519,0.4519,0.457,0.4842,0.0,0.0,0.0,0.5218,0.0,0.0,0.0,0.0,0.0,0.0,0.0,0.5188,0.0,0.5192,0.5495,0.5662,0.5203,0.3138,0.1223,-0.0,-0.0,-0.1085,-0.256,-0.4278,-0.307,-0.2003,-0.2001,-0.2,-0.2668,-0.4356,-0.4522,-0.4505,-0.4525,-0.5973,-0.7441,-0.8738,-0.8791,-0.8804,-0.8804,-0.8804,-0.919,-1.0003,-1.0543,-1.1174,-1.1999,-1.2304,-1.228,-1.1997,-1.1997,-1.1652,-1.1045,-1.1167,-1.1434,-1.1761,-1.1863,-1.2002,-1.2161,-1.1626,-1.1352,-1.112,-1.0094,-0.9663,-0.9424,0.0,0.0,0.0,0.0,0.0,0.0,0.0,0.0,0.0,0.0,0.0,0.0,0.0,0.0,0.0,0.0,0.0,0.0,0.0,0.0,0.0,-0.3352,-0.2237,-0.2016,-0.2798,-0.0381,-0.0163,0.0,0.0,0.0,0.056,0.056,0.0336,0.0,-0.0,0.0,0.0,0.0,0.0,0.0,0.4519,0.4519,0.4519,0.4519,0.4519,0.4519,0.4519,0.4519,0.4519,0.4519,0.4519,0.4574,0.4901,0.5386,0.0,0.0,0.0,0.0,0.0,0.0,0.0,0.0,0.0,0.0,0.0,0.0,0.4897,0.0,0.4582,0.2952,-0.0516,-0.0516,-0.0,-0.0,-0.0,-0.0772,-0.3042,-0.1432,-0.0,-0.0,-0.0661,-0.2035,-0.4294,-0.4512,-0.4491,-0.4515,-0.7171,-0.879,-0.8771,-0.8778,-0.8804,-0.8804,-0.8956,-0.9429,-1.021,-1.0939,-1.185,-1.2881,-1.2715,-1.2388,-1.1985,-1.1649,-1.1194,-1.0701,-1.0848,-1.1196,-1.1555,-1.1423,-1.1502,-1.1649,-1.1048,-1.0669,-1.0314,-0.9087,-0.8595,-0.8434,0.0,0.0,0.0,0.0,0.0,0.0,0.0,0.0,0.0,0.0,0.0,0.0,0.0,0.0,-0.3853,-0.3614,0.0,0.0,0.0,0.0,0.0,-0.0278,-0.0167,0.0,0.1839,0.2004,0.0,0.0,0.0,0.0,0.2063,0.2063,0.1338,-0.0,-0.0,0.0837,0.2399,0.0,0.0,0.0,0.0,0.4519,0.0,0.4519,0.4519,0.4519,0.4519,0.4519,0.4519,0.4519,0.4519,0.4736,0.6046,0.6534,0.6691,0.0,0.0,0.0,0.0,0.0,0.0,0.0,0.0,0.0,0.0,0.0,0.4505,0.4538,0.2296,-0.0664,-0.3729,-0.1923,-0.0,-0.0,-0.0,-0.0053,-0.0213,-0.0106,-0.0,-0.0,-0.2501,-0.4334,-0.448,-0.4501,-0.4515,-0.449,-0.7176,-0.8771,-0.8818,-0.8811,-0.8804,-0.8804,-0.9413,-0.9879,-1.021,-1.1913,-1.2832,-1.2881,-1.2187,-1.1713,-1.1378,-1.0148,-0.9502,-0.9434,-0.9949,-1.0022,-0.9902,-1.057,-1.0611,-1.0348,-1.0668,-1.0242,-0.9338,-0.831,-0.7774,-0.7537,0.0,0.0,0.0,0.0,0.0,0.0,0.0,0.0,0.0,0.0,0.0,0.0,0.0,-0.3762,-0.3362,-0.2518,-0.1628,0.0,0.0,0.0,0.0,0.1336,0.2343,0.313,0.3641,0.3691,0.0,0.0,0.0,0.3691,0.3697,0.3697,0.3416,0.2798,0.0837,0.0837,0.2287,0.3863,0.0,0.0,0.0,0.0,0.0,0.0,0.0,0.0,0.0,0.0,0.4519,0.4519,0.4519,0.468,0.5601,0.6204,0.675,0.7509,0.0,0.0,0.0,0.0,0.0,0.0,0.0,0.4525,0.4499,0.4512,0.3404,-0.0479,-0.2147,-0.3245,-0.4304,-0.2025,-0.0,-0.0,-0.0,-0.0,-0.0,-0.0,-0.0,-0.0,-0.0948,-0.2391,-0.4314,-0.4483,-0.5291,-0.7122,-0.8211,-0.8825,-0.8811,-0.8804,-0.8804,-0.8804,-0.9044,-0.9768,-1.1031,-1.2276,-1.2666,-1.2187,-1.1922,-1.1279,-1.03,-0.979,-0.9146,-0.8422,-0.8623,-0.9156,-0.9961,-0.9796,-0.9873,-1.0048,-0.9247,-0.8716,-0.8356,-0.761,-0.7264,-0.7125,0.0,0.0,0.0,0.0,0.0,0.0,0.0,0.0,0.0,0.0,0.0,0.0,0.0,0.0,-0.1876,-0.0572,0.0372,0.1184,0.1728,0.1594,0.1946,0.2903,0.3978,0.449,0.4484,0.0,0.0,0.0,0.0,0.0,0.0,0.4484,0.4487,0.4432,0.24,0.2063,0.0,0.0,0.0,0.4519,0.0,0.0,0.4519,0.0,0.0,0.0,0.0,0.0,0.0,0.4519,0.4519,0.4625,0.5269,0.5982,0.6642,0.0,0.0,0.0,0.0,0.0,0.0,0.0,0.0,0.421,0.321,0.2977,0.1849,-0.2148,-0.3816,-0.421,-0.3151,-0.1345,-0.0,-0.0,-0.0,-0.0,-0.0,-0.0,-0.0,-0.0,-0.0,-0.1178,-0.4206,-0.5369,-0.6727,-0.8671,-0.8778,-0.8798,-0.8811,-0.8804,-0.8949,-0.928,-0.9555,-1.046,-1.1944,-1.2598,-1.2666,-1.2187,-1.1665,-1.0939,-0.9922,-0.9463,-0.8739,-0.7787,-0.7853,-0.8425,-0.9195,-0.8996,-0.906,-0.9264,-0.8411,-0.7823,-0.7418,-0.6934,-0.6598,-0.638,0.0,0.0,0.0,0.0,0.0,0.0,0.0,0.0,0.0,-0.3561,0.0,0.0,0.0,0.0,0.0,0.2119,0.2287,0.2905,0.4383,0.4497,0.449,0.4532,0.0,0.0,0.0,0.0,0.0,0.0,0.0,0.0,0.0,0.0,0.4522,0.448,0.448,0.448,0.448,0.0,0.4473,0.4519,0.0,0.4519,0.4519,0.0,0.0,0.0,0.4519,0.4519,0.0,0.4519,0.0,0.0,0.0,0.0,0.0,0.0,0.0,0.0,0.0,0.0,0.0,0.0,0.0,0.0,0.0759,0.0,0.0104,0.0151,-0.2214,-0.3354,-0.0452,0.0097,0.0095,-0.0,-0.0,-0.0,-0.0,-0.0,-0.0,-0.0,-0.0048,-0.1304,-0.4278,-0.7127,-0.8779,-0.8818,-0.8785,-0.8804,-0.8804,-0.8804,-0.9235,-1.0277,-1.1065,-1.1931,-1.2881,-1.2881,-1.2881,-1.2822,-1.1425,-1.0615,-1.0268,-0.8976,-0.8071,-0.7513,-0.7776,-0.7736,-0.7544,-0.8217,-0.8227,-0.7923,-0.829,-0.7664,-0.6564,-0.6273,-0.5787,-0.5303,0.0,0.0,0.0,0.0,0.0,0.0,0.0,0.0,-0.2313,0.0,0.0,0.0,-0.3118,0.0703,0.3423,0.3822,0.3863,0.4027,0.4484,0.4477,0.4743,0.5222,0.4739,0.4736,0.0,0.0,0.0,0.0,0.0,0.0,0.0,0.0,0.0,0.0,0.4522,0.4522,0.4522,0.4477,0.0,0.4519,0.4519,0.4519,0.0,0.0,0.0,0.0,0.0,0.4519,0.4519,0.0,0.4519,0.4512,0.0,0.0,0.0,0.0,0.0,0.0,0.5651,0.0,0.0,0.0,0.0,0.0,0.2809,0.0,0.2747,0.3175,0.2612,0.214,0.2521,0.2596,0.2034,0.0276,-0.0,-0.0,-0.0,-0.0,-0.0,-0.0,-0.1534,-0.3598,-0.6071,-0.7809,-0.8786,-0.8806,-0.8815,-0.8804,-0.8804,-0.8804,-0.9836,-1.2085,-1.1378,-1.161,-1.2881,-1.2881,-1.2412,-1.1375,-1.0804,-0.981,-0.8549,-0.7996,-0.7508,-0.7148,-0.7235,-0.7221,-0.7161,-0.7595,-0.7836,-0.7838,-0.7095,-0.6631,-0.6235,-0.5723,-0.5437,-0.5216,0.0,0.0,0.0,0.0,0.0,0.0,-0.3508,-0.2983,-0.2213,0.0,0.0,0.0,-0.1085,0.221,0.4497,0.4494,0.448,0.4473,0.4473,0.4736,0.4948,0.5058,0.4948,0.4948,0.5058,0.0,0.0,0.0,0.0,0.0,0.0,0.0,0.0,0.0,0.0,0.0,0.0,0.0,0.0,0.0,0.4519,0.0,0.0,0.4519,0.4519,0.0,0.0,0.0,0.4519,0.4519,0.4519,0.0,0.0,0.0,0.0,0.0,0.0,0.0,0.0,0.0,0.0,0.0,0.0,0.0,0.6871,0.6189,0.5103,0.5462,0.4788,0.4006,0.3687,0.3585,0.2814,0.0404,-0.0,-0.0357,-0.1346,-0.233,-0.2588,-0.1636,-0.3564,-0.5545,-0.6875,-0.788,-0.8509,-0.8769,-0.882,-0.8791,-0.8797,-0.933,-1.0363,-1.1977,-1.1519,-1.1783,-1.2881,-1.2608,-1.1957,-1.1034,-1.0335,-0.9389,-0.8287,-0.7874,-0.7495,-0.7208,-0.7208,-0.7134,-0.6992,-0.7208,-0.7396,-0.7447,-0.681,-0.6258,-0.5787,-0.5437,-0.5005,-0.453,0.0,0.0,0.0,-0.2184,-0.1769,-0.1842,-0.2581,-0.2699,-0.1934,0.0,0.2687,0.3812,0.2561,0.3688,0.4477,0.4522,0.4519,0.4519,0.4519,0.5109,0.5218,0.4625,0.5164,0.5218,0.4625,0.4519,0.0,0.0,0.0,0.0,0.0,0.0,0.0,0.0,0.0,0.0,0.0,0.0,0.0,0.4625,0.4515,0.4519,0.0,0.0,0.4519,0.4519,0.4519,0.4519,0.4519,0.4519,0.4519,0.0,0.0,0.0,0.0,0.0,0.4515,0.0,0.0,0.0,0.0,0.0,0.3939,0.0,1.0931,0.9847,0.7567,0.7247,0.5289,0.3595,0.3607,0.3391,0.2404,-0.0,-0.0618,-0.1505,-0.3694,-0.572,-0.6299,-0.4391,-0.5944,-0.7165,-0.7205,-0.7557,-0.8037,-0.8637,-0.8789,-0.8822,-0.8806,-1.0229,-1.1014,-1.1021,-1.1405,-1.1972,-1.2774,-1.2033,-1.1474,-1.1143,-0.9923,-0.9114,-0.8736,-0.807,-0.7675,-0.7459,-0.7459,-0.7268,-0.6979,-0.6979,-0.6979,-0.6979,-0.6852,-0.6204,-0.5303,-0.5178,-0.4487,-0.3581,0.0,0.0,0.0,-0.3287,-0.1647,0.0404,0.2576,0.2906,0.3093,0.3572,0.3039,0.0,0.0,0.4314,0.4477,0.4477,0.4522,0.4519,0.4519,0.5109,0.5433,0.5328,0.5433,0.5433,0.5328,0.4787,0.4519,0.0,0.0,0.0,0.0,0.0,0.0,0.0,0.0,0.0,0.0,0.0,0.0,0.5273,0.4732,0.4519,0.4519,0.4519,0.4519,0.4519,0.4519,0.4519,0.4519,0.4519,0.4519,0.4519,0.0,0.0,0.0,0.4519,0.0,0.0,0.0,0.0,0.0,0.0,0.3126,0.0,0.7476,1.0021,1.1142,0.8894,0.5884,0.3584,0.3591,0.202,-0.0088,-0.2487,-0.444,-0.5782,-0.6284,-0.6724,-0.7171,-0.7631,-0.8112,-0.8357,-0.8377,-0.765,-0.7437,-0.8011,-0.8517,-0.8804,-0.8792,-1.1175,-1.2484,-1.2466,-1.1199,-1.1006,-1.1972,-1.112,-1.0399,-0.9801,-0.9021,-0.8371,-0.7767,-0.7352,-0.7161,-0.7108,-0.7108,-0.7074,-0.6979,-0.6979,-0.6979,-0.6894,-0.599,-0.5475,-0.5173,-0.4272,-0.3796,-0.3581,0.0,0.0,0.0,0.0206,0.0827,0.1621,0.3103,0.3335,0.0,0.0,0.0,0.0,0.0,0.0,0.0,0.4959,0.5007,0.5167,0.55,0.6199,0.6416,0.6091,0.6036,0.5869,0.5487,0.4842,0.468,0.5003,0.0,0.0,0.0,0.0,0.0,0.0,0.0,0.0,0.0,0.0,0.5487,0.5433,0.4787,0.0,0.4519,0.4519,0.4519,0.4519,0.4519,0.4519,0.4519,0.4519,0.4519,0.0,0.4519,0.4519,0.4519,0.0,0.3779,0.2652,0.0,0.0,0.0,0.3189,0.2562,0.0,0.0,0.6859,0.8761,1.049,0.6006,0.1806,0.1789,-0.0178,-0.2169,-0.3404,-0.5507,-0.7017,-0.6987,-0.733,-0.7624,-0.7834,-0.8527,-0.8972,-0.8954,-0.8798,-0.8482,-0.7943,-0.8469,-0.94,-1.0746,-1.2131,-1.2601,-1.1882,-1.1412,-1.116,-1.1089,-1.0376,-0.9697,-0.8928,-0.8326,-0.7741,-0.7241,-0.7088,-0.6979,-0.6979,-0.6979,-0.6979,-0.6979,-0.6979,-0.6979,-0.6937,-0.6087,-0.5567,-0.5178,-0.4312,-0.3836,-0.3568,0.0,0.0,0.0,0.0,0.3495,0.2649,0.2668,0.2623,0.0,0.0,0.0,0.0,0.0,0.0,0.0,0.0,0.0,0.5778,0.643,0.7263,0.7289,0.6421,0.6642,0.6416,0.5542,0.4948,0.4893,0.5328,0.0,0.0,0.0,0.0,0.0,0.0,0.0,0.0,0.0,0.0,0.0,0.5651,0.0,0.4519,0.4519,0.4519,0.4519,0.4519,0.4519,0.4519,0.4519,0.4519,0.4519,0.4519,0.4522,0.4522,0.0,0.0,0.0,0.0,0.0,0.0,-0.0266,0.2184,0.0929,-0.0199,0.0,0.0,0.0,0.9404,0.4842,-0.0137,-0.0626,-0.2273,-0.3653,-0.39,-0.5486,-0.6729,-0.6894,-0.7566,-0.7839,-0.7259,-0.8361,-0.9224,-0.9264,-0.9846,-0.9628,-0.8239,-0.8695,-1.0153,-1.2774,-1.257,-1.1859,-1.0677,-1.121,-1.1064,-1.013,-0.9538,-0.8956,-0.8305,-0.7674,-0.7255,-0.6979,-0.6979,-0.6979,-0.6979,-0.6979,-0.6979,-0.6979,-0.6979,-0.6937,-0.6768,-0.6264,-0.5739,-0.5216,-0.4522,-0.3965,-0.3558,0.3588,0.2739,0.0,0.0,0.4356,0.4249,0.4265,0.4258,0.0,0.0,0.0,0.0,0.0,0.0,0.0,0.0,0.0,0.0,0.6024,0.0,0.0,0.5706,0.6902,0.6902,0.5538,0.5433,0.5109,0.4625,0.0,0.0,0.0,0.0,0.0,0.0,0.7883,0.0,0.0,0.0,0.6475,0.0,0.5007,0.4519,0.0,0.4519,0.4519,0.4519,0.4519,0.4519,0.4519,0.4519,0.4519,0.4519,0.4473,0.4477,0.448,0.449,0.0,0.0,0.0777,-0.1938,-0.3886,-0.355,-0.3729,-0.3232,-0.0251,0.0,0.0609,0.1302,0.0,-0.067,-0.2812,0.0,0.0,-0.4952,-0.5308,-0.5744,-0.6458,-0.7364,-0.7878,-0.7829,-0.8389,-0.8969,-0.9417,-0.9564,-0.9449,-0.9065,-0.9511,-1.0671,-1.2806,-1.1407,-1.041,-1.0015,-0.9394,-0.9105,-0.9074,-0.8203,-0.7719,-0.7596,-0.7238,-0.7054,-0.6979,-0.6979,-0.6979,-0.6979,-0.6979,-0.6979,-0.6979,-0.6979,-0.6732,-0.6221,-0.5653,-0.5351,-0.5178,-0.41,-0.3667,-0.3558,0.451,0.4006,0.0,0.0,0.448,0.4477,0.4477,0.4473,0.0,0.0,0.0,0.0,0.0,0.0,0.0,0.0,0.0,0.5867,0.0,0.0,0.0,0.6314,0.6812,0.6807,0.6318,0.6206,0.5987,0.5719,0.6416,0.0,0.0,0.0,0.0,0.0,0.8262,0.0,0.8103,0.0,0.6588,0.0,0.0,0.4519,0.0,0.4519,0.4519,0.4519,0.4519,0.4519,0.4519,0.4525,0.4473,0.4473,0.4487,0.3863,0.3352,0.4219,0.3869,0.2338,-0.156,-0.3522,-0.448,-0.4487,-0.449,-0.4177,-0.2895,-0.2346,-0.1689,-0.0269,0.0,0.0,0.0,0.0,0.0,0.0,-0.5944,-0.5919,-0.6699,-0.7416,-0.7919,-0.7919,-0.8574,-0.9359,-1.0179,-0.982,-0.9853,-1.0526,-1.0307,-1.0488,-1.135,-1.0127,-0.9314,-0.9203,-0.9104,-0.8722,-0.8098,-0.7845,-0.7559,-0.7208,-0.7081,-0.6979,-0.6979,-0.6979,-0.6979,-0.6979,-0.6979,-0.6979,-0.6979,-0.6979,-0.6629,-0.5991,-0.5401,-0.4986,-0.4577,-0.374,-0.3392,-0.3303,0.477,0.0,0.0,0.0,0.0,0.5062,0.5062,0.0,0.0,0.0,0.0,0.0,0.4977,0.4942,0.0,0.0,0.5859,0.5997,0.0,0.0,0.6608,0.6529,0.6613,0.6719,0.6814,0.6668,0.6588,0.6588,0.7128,0.0,0.0,0.0,0.0,0.0,0.0,0.799,0.7616,0.0,0.6421,0.648,0.5066,0.4519,0.4519,0.4519,0.4519,0.4519,0.4519,0.4519,0.4519,0.4477,0.448,0.4366,0.3527,0.3079,0.291,0.32,0.246,0.0723,-0.3368,-0.3872,-0.3284,-0.3262,-0.3276,-0.3467,-0.41,-0.3899,-0.2921,-0.0495,-0.1921,0.0,0.0,0.0,-0.4228,-0.6208,0.0,-0.6715,-0.6864,-0.7473,-0.7889,-0.7663,-0.8302,-0.9115,-0.9975,-0.9743,-0.9902,-1.0835,-1.0538,-1.0172,-0.9882,-0.8842,-0.8239,-0.8236,-0.8712,-0.8473,-0.7392,-0.756,-0.7447,-0.6979,-0.6979,-0.6979,-0.7021,-0.6941,-0.6947,-0.6979,-0.6941,-0.6947,-0.6979,-0.6852,-0.6352,-0.5613,-0.5023,-0.4412,-0.3786,-0.3394,-0.3175,-0.3075,0.5538,0.5483,0.0,0.0,0.0,0.0,0.0,0.0,0.0,0.0,0.0,0.0,0.0,0.0,0.0,0.0,0.0,0.5883,0.6037,0.6549,0.6463,0.5559,0.6393,0.6804,0.0,0.6588,0.6588,0.6588,0.6642,0.0,0.0,0.0,0.0,0.0,0.6642,0.7074,0.761,0.614,0.5928,0.648,0.5066,0.4519,0.4519,0.4519,0.4519,0.4519,0.4519,0.4519,0.4519,0.4477,0.448,0.3968,0.106,0.2127,0.3884,0.1009,0.0112,-0.0614,-0.3655,-0.2348,-0.0166,-0.016,-0.0163,-0.0758,-0.3085,-0.3602,-0.2918,-0.0499,-0.1925,-0.3609,-0.3585,-0.3605,-0.3983,-0.5168,-0.719,0.0,0.0,-0.7422,-0.7829,-0.7098,-0.7241,-0.7594,-0.815,-0.8909,-0.9308,-0.9096,-0.9824,-0.983,-0.8799,-0.7669,-0.7073,-0.7037,-0.7746,-0.7775,-0.7034,-0.7027,-0.7021,-0.6979,-0.6979,-0.6979,-0.7014,-0.6727,-0.6754,-0.6965,-0.6727,-0.676,-0.6937,-0.6435,-0.5811,-0.5064,-0.4311,-0.3605,-0.294,-0.3076,-0.3085,-0.3062,0.0,0.0,0.0,0.0,0.0,0.0,0.0,0.6912,0.0,0.0,0.7161,0.0,0.0,0.5937,0.5712,0.0,0.0,0.5041,0.4986,0.5307,0.5293,0.5008,0.5798,0.6218,0.0,0.6961,0.717,0.6588,0.7563,0.0,0.0,0.0,0.0,0.0,0.0,0.767,0.0,0.0,0.0,0.0,0.0,0.4519,0.4519,0.4519,0.4519,0.4519,0.4519,0.4519,0.4522,0.4484,0.3802,0.2952,0.297,0.2296,0.1341,0.028,-0.0,-0.0223,-0.1232,-0.0783,-0.0,-0.0,-0.0,-0.0212,-0.1019,-0.1202,-0.1004,-0.018,-0.067,-0.1206,-0.1198,-0.2524,-0.4239,-0.6137,-0.6451,-0.6556,0.0,-0.7132,-0.7138,-0.656,-0.7025,-0.7658,-0.8196,-0.8936,-0.9542,-0.982,-0.9291,-0.8583,-0.7631,-0.7188,-0.6997,-0.6987,-0.7231,-0.7238,-0.7021,-0.6979,-0.6979,-0.6979,-0.6979,-0.6921,-0.6734,-0.6633,-0.664,-0.6693,-0.6228,-0.6184,-0.6435,-0.583,-0.5127,-0.4359,-0.4102,-0.3484,-0.2774,-0.2924,-0.2917,-0.2822,0.5814,0.0,0.0,0.0,0.0,0.0,0.0,0.0,0.0,0.0,0.8223,0.0,0.6745,0.0,0.5956,0.0,0.4721,0.465,0.4551,0.4636,0.4691,0.4691,0.5251,0.5576,0.5676,0.6556,0.6884,0.6588,0.0,0.7777,0.0,0.0,0.0,0.0,0.0,0.7439,0.6907,0.7413,0.7192,0.0,0.0,0.4519,0.4519,0.4519,0.4519,0.4519,0.4519,0.4519,0.4522,0.4487,0.3863,0.3183,0.4169,0.3149,0.1399,0.0335,-0.0,-0.0,-0.0,-0.0,0.0277,0.1339,0.0804,-0.0,-0.0,-0.0,-0.0,-0.0,-0.0,-0.0,-0.0,-0.1961,-0.4345,-0.6641,-0.6379,-0.6433,0.0,-0.8175,-0.7896,-0.7137,-0.7368,-0.7648,-0.783,-0.8087,-0.8651,-0.9656,-0.8949,-0.8,-0.7031,-0.6997,-0.6981,-0.6979,-0.6979,-0.6979,-0.6979,-0.6979,-0.6979,-0.6979,-0.6979,-0.6867,-0.6587,-0.6518,-0.6376,-0.6263,-0.5776,-0.5636,-0.5744,-0.5229,-0.4546,-0.3904,-0.3746,-0.3264,-0.2726,-0.2791,-0.2768,-0.2686,0.6421,0.0,0.0,0.0,0.8315,0.0,0.0,0.0,0.9352,0.0,0.9197,0.8488,0.7628,0.6813,0.5992,0.4982,0.4769,0.468,0.468,0.4687,0.0,0.468,0.4694,0.4965,0.5437,0.5504,0.5837,0.6534,0.0,0.0,0.0,0.0,0.0,0.0,0.6009,0.0,0.7374,0.7436,0.7112,0.648,0.5066,0.4519,0.4519,0.4519,0.4519,0.4519,0.4519,0.4519,0.4522,0.4487,0.4438,0.4386,0.4294,0.436,0.3952,0.1063,0.0223,0.0223,0.0223,0.0223,0.0939,0.3759,0.2338,0.0217,0.0244,0.0196,0.0199,0.0192,0.0092,-0.0046,-0.0198,-0.2123,-0.4419,-0.6724,0.0,-0.7856,-0.998,-1.0288,-0.988,-0.8711,-0.8087,-0.7555,-0.7028,-0.6482,-0.6852,-0.8509,-0.8636,-0.8173,-0.7121,-0.7016,-0.6965,-0.6979,-0.6979,-0.6979,-0.6979,-0.6979,-0.6972,-0.6959,-0.6917,-0.6758,-0.6501,-0.6222,-0.5939,-0.5619,-0.5345,-0.5143,-0.501,-0.4555,-0.4101,-0.3707,-0.329,-0.294,-0.2712,-0.2712,-0.269,-0.2696,0.576,0.6794,0.7723,0.0,0.8315,0.8905,0.0,0.0,0.0,0.0,0.9315,0.8483,0.7742,0.6805,0.5864,0.4821,0.4609,0.0,0.0,0.0,0.0,0.458,0.4741,0.4793,0.4739,0.5481,0.5825,0.576,0.6466,0.0,0.7396,0.0,0.0,0.0,0.0,0.0,0.6854,0.7967,0.772,0.646,0.5073,0.4519,0.4519,0.4519,0.4519,0.4519,0.4519,0.4519,0.4522,0.4487,0.3749,0.2619,0.1509,0.2693,0.4347,0.3599,0.337,0.337,0.3368,0.3363,0.3553,0.4307,0.3938,0.3341,0.3321,0.3001,0.2691,0.2684,0.1226,-0.0687,-0.2933,-0.385,-0.5149,-0.7888,-0.8296,-0.8754,-1.0127,-1.0312,-0.9751,-0.8175,-0.8094,-0.7823,-0.7004,-0.7049,-0.7343,-0.7784,-0.7779,-0.7726,-0.7653,-0.7051,-0.68,-0.7014,-0.6979,-0.6979,-0.6979,-0.6605,-0.6331,-0.6169,-0.5792,-0.5364,-0.4962,-0.4895,-0.4835,-0.4702,-0.4248,-0.4122,-0.4238,-0.379,-0.3468,-0.3252,-0.3142,-0.2947,-0.2693,-0.2693,-0.2696,-0.27,0.5433,0.6817,0.0,0.7741,0.0,0.867,0.8821,0.8946,0.0,0.9172,0.8783,0.0,0.7321,0.6706,0.5884,0.4948,0.4684,0.4589,0.4657,0.4616,0.4582,0.4562,0.4663,0.4636,0.4522,0.5083,0.5254,0.5058,0.587,0.0,0.6912,0.0,0.0,0.0,0.0,0.7664,0.5775,0.7225,0.7335,0.649,0.5049,0.4519,0.0,0.4519,0.4519,0.4519,0.4519,0.4519,0.4522,0.4484,0.3065,0.111,0.0278,0.1173,0.2802,0.4101,0.4501,0.4504,0.4494,0.4487,0.4512,0.452,0.4508,0.4501,0.4496,0.5221,0.551,0.4274,0.2893,0.0253,-0.5367,-0.6375,-0.6889,-0.8554,-0.8312,-0.8349,-0.9442,-0.9603,-0.9181,-0.8016,-0.78,-0.7446,-0.6698,-0.6983,-0.7129,-0.6943,-0.6765,-0.6845,-0.7323,-0.676,-0.6607,-0.6972,-0.6774,-0.6641,-0.6641,-0.6013,-0.5679,-0.5533,-0.519,-0.4802,-0.4392,-0.4392,-0.4282,-0.4035,-0.3721,-0.3565,-0.3485,-0.3303,-0.3122,-0.3029,-0.3029,-0.2893,-0.2663,-0.2253,-0.2359,-0.2706,0.5444,0.0,0.0,0.0,0.0,0.8385,0.8173,0.8436,0.8509,0.8077,0.7957,0.7545,0.6824,0.6442,0.5939,0.5167,0.485,0.4738,0.4853,0.4609,0.4577,0.4657,0.4587,0.4519,0.4519,0.4536,0.4536,0.4519,0.5077,0.0,0.0,0.0,0.0,0.0,0.0,0.0,0.0,0.5919,0.6406,0.6212,0.502,0.4519,0.4519,0.4519,0.4519,0.4519,0.4519,0.4519,0.4519,0.4477,0.2781,0.061,0.0612,0.0613,0.1004,0.3239,0.4203,0.449,0.4473,0.4519,0.4512,0.4481,0.4809,0.4989,0.4591,0.6728,0.7973,0.5113,0.4492,0.1868,-0.6658,-0.8831,-0.9351,-0.9315,-0.8268,-0.7785,-0.8822,-0.885,0.0,-0.8036,-0.7504,0.0,-0.627,-0.649,-0.6521,-0.6172,-0.5837,-0.5918,-0.6547,-0.6303,-0.6403,-0.6979,-0.6477,-0.6167,-0.6174,-0.5359,-0.4979,-0.4918,-0.4734,-0.4494,-0.4172,-0.4172,-0.3927,-0.3471,-0.3471,-0.3263,-0.289,-0.3035,-0.3018,-0.291,-0.2934,-0.2842,-0.2596,-0.1778,-0.1988,-0.268,0.6032,0.0,0.0,0.0,0.0,0.8343,0.6844,0.7312,0.7982,0.8309,0.7596,0.7022,0.6886,0.594,0.5206,0.4965,0.4792,0.465,0.4548,0.4546,0.4529,0.4556,0.4532,0.4519,0.4519,0.4585,0.4589,0.4519,0.4755,0.5204,0.0,0.0,0.0,0.0,0.0,0.0,0.4549,0.5269,0.5297,0.4834,0.4584,0.4519,0.4519,0.4519,0.4519,0.4519,0.4519,0.4519,0.4519,0.4477,0.4138,0.3685,0.3694,0.3699,0.3304,0.134,0.2567,0.4484,0.449,0.4477,0.4515,0.4512,0.6294,0.745,0.505,0.6727,0.8003,0.507,0.4511,0.2513,-0.4056,-0.9063,-1.2199,-1.2186,-1.0727,-0.9726,-1.0206,-0.9733,-0.8996,0.0,-0.7952,-0.7402,-0.593,-0.5855,-0.5854,-0.5792,-0.5416,-0.5597,-0.6567,-0.5976,-0.6049,-0.6965,-0.6477,-0.6115,-0.5977,-0.4872,-0.4244,-0.4021,-0.3497,-0.3149,-0.2985,-0.2985,-0.2952,-0.2851,-0.2851,-0.2821,-0.273,-0.2886,-0.293,-0.292,-0.3128,-0.301,-0.2666,-0.2502,-0.2576,-0.2475,0.6203,0.0,0.0,0.0,0.0,0.7536,0.666,0.6613,0.6638,0.6848,0.6447,0.6097,0.6009,0.5471,0.5074,0.4931,0.4779,0.466,0.4585,0.4563,0.4519,0.4519,0.4519,0.4519,0.4519,0.4591,0.4575,0.4579,0.4575,0.4798,0.5136,0.4702,0.0,0.0,0.0,0.4897,0.0,0.5116,0.4761,0.4512,0.4494,0.4519,0.4519,0.4519,0.4519,0.4519,0.4519,0.4519,0.4519,0.4525,0.4525,0.4525,0.4477,0.4484,0.4203,0.2736,0.2227,0.2502,0.4086,0.4477,0.4512,0.4494,0.5567,0.6226,0.4835,0.5588,0.6192,0.4763,0.2022,-0.1494,-0.5914,-0.9384,-1.1601,-1.1795,-1.1035,-1.0183,-0.9434,-0.8889,-0.8342,-0.7802,0.0,-0.6973,-0.5915,-0.5745,-0.5711,-0.5711,-0.5169,-0.5225,-0.6092,-0.5314,-0.5211,-0.6107,-0.5561,-0.5209,-0.5141,-0.421,-0.3631,-0.3413,-0.3086,-0.2829,-0.2712,-0.2712,-0.2712,-0.2712,-0.2712,-0.2712,-0.2726,-0.2881,-0.2901,-0.2815,-0.3085,-0.3007,-0.2706,-0.2713,-0.2097,-0.1179,0.0,0.704,0.0,0.0,0.6584,0.6726,0.6628,0.6032,0.5603,0.5515,0.542,0.5315,0.5192,0.5125,0.503,0.4884,0.4762,0.4677,0.4646,0.4584,0.4519,0.4519,0.4519,0.4519,0.4519,0.4519,0.4577,0.4643,0.4551,0.4495,0.4521,0.4525,0.0,0.0,0.4666,0.5313,0.6524,0.5079,0.449,0.4502,0.4497,0.4512,0.4519,0.4519,0.4519,0.4519,0.4519,0.4519,0.4519,0.4519,0.4519,0.4519,0.4519,0.4525,0.4477,0.448,0.2391,0.0665,0.3688,0.4477,0.4519,0.4488,0.4488,0.4327,0.3709,0.3545,0.3343,0.2726,-0.1186,-0.5364,-0.8244,-0.9423,-1.0089,-1.0475,-1.0501,-1.0002,-0.866,-0.7982,-0.7667,-0.7649,-0.7045,-0.6406,-0.5894,-0.5633,-0.546,-0.5472,-0.4859,-0.478,-0.5415,-0.4671,-0.4545,-0.5298,-0.4696,-0.437,-0.438,-0.3621,-0.3185,-0.3076,-0.2927,-0.2798,-0.2712,-0.2712,-0.2712,-0.2712,-0.2712,-0.2716,-0.273,-0.2919,-0.2755,-0.2472,-0.3015,-0.2986,-0.2717,-0.2717,-0.155,0.0067,0.0,0.0,0.0,0.689,0.6973,0.6776,0.5832,0.5779,0.5827,0.5949,0.5613,0.5422,0.5342,0.5101,0.4877,0.4724,0.4701,0.4629,0.4549,0.4525,0.4519,0.4519,0.4519,0.4519,0.4519,0.4519,0.4525,0.4539,0.4492,0.4488,0.4487,0.451,0.5151,0.6345,0.5323,0.553,0.6534,0.512,0.4511,0.4491,0.4477,0.4491,0.4519,0.4519,0.4519,0.4519,0.4519,0.4519,0.4519,0.4519,0.4519,0.4519,0.4519,0.4519,0.4522,0.4487,0.2339,0.0666,0.3705,0.4501,0.449,0.4477,0.4476,0.3773,0.1051,0.0409,-0.0353,-0.3106,-0.4107,-0.5383,-0.8277,-0.8862,-0.9133,-0.9608,-0.9622,-0.9478,-0.9332,-0.8491,-0.7882,-0.7883,-0.7069,-0.6314,-0.5764,-0.5086,-0.4689,-0.4724,-0.4402,-0.4361,-0.4694,-0.4391,-0.4545,-0.5298,-0.4696,-0.4354,-0.4239,-0.3493,-0.3069,-0.2927,-0.2774,-0.273,-0.2712,-0.2712,-0.2712,-0.2712,-0.2712,-0.2686,-0.2706,-0.2923,-0.2396,-0.1583,-0.3015,-0.3205,-0.2717,-0.2717,-0.155,0.0235,0.6873,0.7137,0.7069,0.6386,0.625,0.6102,0.5782,0.5613,0.5559,0.562,0.5393,0.5155,0.4979,0.4853,0.4721,0.4568,0.4555,0.4584,0.4522,0.4519,0.4519,0.4519,0.4519,0.4519,0.4519,0.4519,0.4563,0.4599,0.4602,0.4766,0.5042,0.4676,0.5366,0.6865,0.6192,0.6257,0.689,0.7019,0.709,0.6905,0.5194,0.4474,0.4488,0.4508,0.4519,0.4519,0.4519,0.4519,0.4519,0.4519,0.4519,0.4519,0.4519,0.4522,0.4477,0.449,0.2341,0.0278,0.1449,0.1812,0.1781,0.1777,0.0419,-0.1124,-0.1944,-0.2161,-0.2495,-0.3705,-0.5601,-0.7447,-0.8571,-0.8799,-0.8882,-0.9073,-0.9227,-0.9195,-0.8856,-0.828,-0.7754,-0.7402,-0.7018,-0.6642,-0.6226,-0.556,-0.4968,-0.4516,-0.396,-0.3863,-0.4345,-0.3818,-0.3771,-0.4264,-0.4052,-0.3894,-0.3831,-0.3553,-0.3273,-0.3035,-0.2974,-0.2852,-0.2712,-0.2712,-0.2683,-0.2696,-0.2709,-0.2702,-0.271,-0.2795,-0.2554,-0.2094,-0.1619,-0.1304,-0.1076,-0.1076,0.0067,0.165,0.6616,0.6655,0.6455,0.5936,0.5718,0.5671,0.5732,0.5525,0.5394,0.5243,0.5098,0.4921,0.4714,0.465,0.4579,0.4525,0.4519,0.4519,0.4519,0.4519,0.4519,0.4519,0.4519,0.4519,0.4519,0.4519,0.457,0.4623,0.4667,0.4841,0.5214,0.483,0.5453,0.6958,0.6342,0.6648,0.7644,0.8486,0.8302,0.7421,0.6253,0.5245,0.4484,0.4498,0.4508,0.4519,0.4519,0.4519,0.4522,0.4522,0.4525,0.4473,0.4525,0.4477,0.4314,0.3416,0.1672,-0.0,-0.0,-0.0647,-0.1265,-0.1092,-0.2658,-0.4189,-0.3933,-0.3856,-0.3877,-0.3841,-0.6478,-0.881,-0.8784,-0.8792,-0.8751,-0.8703,-0.8922,-0.8876,-0.8319,-0.7839,-0.736,-0.6942,-0.6498,-0.6147,-0.5889,-0.5363,-0.476,-0.415,-0.3566,-0.3416,-0.3866,-0.3421,-0.331,-0.3571,-0.3265,-0.3084,-0.3084,-0.341,-0.3472,-0.3166,-0.3039,-0.2886,-0.2686,-0.2686,-0.2717,-0.2699,-0.2398,-0.2442,-0.2698,-0.2695,-0.2399,-0.1763,-0.0482,-0.0,-0.0,-0.0,0.1145,0.2609,0.5562,0.5593,0.5637,0.5776,0.58,0.5752,0.5613,0.546,0.5257,0.4962,0.4792,0.4694,0.4691,0.4555,0.4519,0.4519,0.4519,0.4519,0.4519,0.4519,0.4519,0.4519,0.4519,0.4519,0.4519,0.4519,0.4519,0.4522,0.4498,0.4613,0.4812,0.4858,0.5513,0.6558,0.5408,0.6356,0.8782,0.877,0.7139,0.4798,0.7591,0.7058,0.4512,0.4481,0.4488,0.4519,0.4519,0.4525,0.448,0.448,0.4487,0.4494,0.4484,0.4487,0.3925,0.0949,0.0056,-0.0,-0.0,-0.2184,-0.4299,-0.3717,-0.3577,-0.3776,-0.4332,-0.4485,-0.4511,-0.4496,-0.677,-0.8803,-0.8778,-0.8804,-0.8704,-0.8424,-0.8617,-0.8597,-0.7968,-0.7161,-0.6606,-0.66,-0.5302,-0.4429,-0.4435,-0.4064,-0.37,-0.342,-0.3172,-0.305,-0.3124,-0.3236,-0.3386,-0.3575,-0.2455,-0.183,-0.183,-0.3014,-0.3516,-0.3296,-0.2881,-0.27,-0.2696,-0.2696,-0.2709,-0.2664,-0.1707,-0.1834,-0.2709,-0.2712,-0.1637,-0.0036,-0.0,-0.0,-0.0,-0.0,0.1145,0.2713,0.5705,0.5735,0.5718,0.5664,0.5657,0.5606,0.5457,0.5301,0.5135,0.4945,0.4785,0.465,0.4548,0.4546,0.4519,0.4519,0.4519,0.4519,0.4519,0.4519,0.4519,0.4519,0.4525,0.4473,0.4473,0.448,0.448,0.4473,0.4518,0.4617,0.4904,0.5661,0.6085,0.6125,0.6081,0.632,0.6761,0.6166,0.5892,0.5914,0.591,0.5873,0.585,0.4838,0.4508,0.4519,0.4525,0.4477,0.448,0.4487,0.4497,0.4163,0.2066,0.1449,0.1225,0.0278,-0.0,-0.0442,-0.2519,-0.3453,-0.3818,-0.3662,-0.3596,-0.377,-0.4381,-0.4496,-0.4481,-0.452,-0.6768,-0.8803,-0.8778,-0.8151,-0.7668,-0.7759,-0.7716,-0.737,-0.6538,-0.6516,-0.6361,-0.5782,-0.5312,-0.502,-0.5029,-0.4431,-0.4069,-0.409,-0.3392,-0.3083,-0.3249,-0.3175,-0.3318,-0.3598,-0.3242,-0.2241,-0.058,-0.1778,-0.2351,-0.227,-0.2762,-0.2549,-0.1742,-0.1742,-0.2107,-0.2688,-0.2387,-0.1708,-0.0862,-0.0842,-0.0511,-0.0,-0.0,0.0742,0.1856,0.1856,0.2195,0.2703,0.5694,0.5722,0.5694,0.5606,0.5589,0.5518,0.5304,0.5148,0.4999,0.4853,0.4701,0.4568,0.4529,0.4519,0.4519,0.4519,0.4519,0.4519,0.4519,0.4519,0.4519,0.4525,0.4477,0.4252,0.3633,0.3638,0.3638,0.3633,0.3829,0.4201,0.4762,0.5465,0.5628,0.5385,0.5661,0.5655,0.5311,0.4729,0.5012,0.5769,0.5245,0.5316,0.574,0.512,0.4736,0.4525,0.4477,0.3744,0.279,0.2796,0.28,0.2465,0.0614,-0.0,-0.0222,-0.1337,-0.1671,-0.2094,-0.3967,-0.4056,-0.3624,-0.3622,-0.3621,-0.3739,-0.4374,-0.4495,-0.4505,-0.4508,-0.6376,-0.7991,-0.7955,-0.7338,-0.6906,-0.707,-0.6915,-0.6516,-0.58,-0.5865,-0.5731,-0.5024,-0.4787,-0.4661,-0.4661,-0.4256,-0.4025,-0.4071,-0.3574,-0.3259,-0.342,-0.3124,-0.2754,-0.2284,-0.1366,-0.0437,0.048,-0.0585,-0.1117,-0.1141,-0.2363,-0.2549,-0.1816,-0.1107,-0.1121,-0.1641,-0.0964,0.0115,0.1277,0.0362,0.0198,0.0523,0.0881,0.1483,0.2228,0.2569,0.2703,0.2696,0.5545,0.5576,0.5576,0.5576,0.5576,0.5474,0.5176,0.5009,0.4863,0.4711,0.4558,0.4519,0.4519,0.4519,0.4519,0.4519,0.4519,0.4519,0.4519,0.4519,0.4522,0.4477,0.4421,0.3744,0.2286,0.2232,0.2174,0.2174,0.2785,0.3569,0.448,0.4522,0.4519,0.4519,0.4519,0.4519,0.4515,0.4484,0.4491,0.4574,0.5479,0.5265,0.4574,0.5167,0.5066,0.448,0.448,0.2679,0.0279,0.0056,-0.0,-0.0056,-0.0223,-0.0334,-0.0887,-0.3649,-0.4494,-0.4529,-0.4499,-0.4046,-0.3615,-0.3589,-0.363,-0.3796,-0.4395,-0.4519,-0.4508,-0.4529,-0.5542,-0.6455,-0.6475,-0.6388,-0.6329,-0.6329,-0.6175,-0.5944,-0.559,-0.5153,-0.4716,-0.4368,-0.3924,-0.3581,-0.3581,-0.3581,-0.3581,-0.3581,-0.3427,-0.329,-0.3107,-0.2668,-0.1586,0.0177,0.2406,0.287,0.1427,0.0598,0.0114,-0.0036,-0.1692,-0.2508,-0.2438,-0.0639,0.0104,0.0109,0.1863,0.2943,0.3344,0.1153,0.0663,0.1396,0.235,0.2159,0.1507,0.239,0.2696,0.2696,0.541,0.5416,0.5416,0.5416,0.5416,0.5352,0.5159,0.5009,0.4863,0.4711,0.4558,0.4519,0.4519,0.4519,0.4519,0.4519,0.4519,0.4519,0.4519,0.4519,0.4519,0.4522,0.379,0.3176,0.2839,0.2397,0.2174,0.2174,0.3511,0.4242,0.448,0.4522,0.4519,0.4519,0.4519,0.4522,0.4473,0.4522,0.4473,0.4543,0.4757,0.4705,0.4543,0.465,0.4653,0.4494,0.4501,0.4048,0.3086,0.0782,-0.0,-0.0391,-0.2685,-0.3411,-0.3572,-0.4314,-0.4477,-0.4484,-0.4519,-0.4036,-0.3622,-0.3609,-0.3953,-0.4351,-0.4477,-0.4519,-0.4508,-0.4529,-0.4747,-0.5019,-0.4992,-0.5246,-0.5408,-0.5408,-0.5063,-0.4642,-0.4166,-0.4329,-0.4353,-0.384,-0.3667,-0.3581,-0.3581,-0.3581,-0.3588,-0.3605,-0.1888,-0.0046,0.1814,0.1144,0.1349,0.2697,0.3055,0.304,0.2657,0.2255,0.1375,-0.0,-0.0439,-0.0639,-0.0571,0.1246,0.1323,0.0069,0.1144,0.211,0.2898,0.2531,0.1956,0.1404,0.2346,0.2548,0.239,0.263,0.2693,0.2683,0.5369,0.5432,0.5342,0.5277,0.526,0.5182,0.4962,0.4863,0.4758,0.4606,0.457,0.4519,0.4519,0.4519,0.4519,0.4519,0.4519,0.4519,0.4519,0.4519,0.4519,0.4525,0.3962,0.3685,0.3691,0.3411,0.3244,0.3244,0.4086,0.448,0.4487,0.448,0.4477,0.4477,0.4477,0.448,0.4432,0.3747,0.3466,0.3469,0.3469,0.3469,0.3469,0.3469,0.3872,0.4504,0.4511,0.3602,0.2188,0.056,-0.0894,-0.2348,-0.3984,-0.4484,-0.4525,-0.4525,-0.4522,-0.4488,-0.4506,-0.425,-0.4013,-0.3987,-0.424,-0.4506,-0.4488,-0.4519,-0.4512,-0.4494,-0.4491,-0.4464,-0.4277,-0.4455,-0.4579,-0.4497,-0.4218,-0.3924,-0.3622,-0.3836,-0.3924,-0.3622,-0.3581,-0.3581,-0.3581,-0.3592,-0.3141,-0.2059,0.0274,0.2228,0.351,0.297,0.292,0.3566,0.3344,0.3145,0.3098,0.256,0.1733,0.0603,0.0603,0.0603,0.0637,0.1613,0.1749,0.1244,0.1733,0.2283,0.2854,0.2904,0.2564,0.2064,0.2522,0.2699,0.269,0.269,0.2686,0.2712,0.5376,0.52,0.5006,0.5135,0.5075,0.502,0.4769,0.4711,0.47,0.4543,0.4522,0.4522,0.4522,0.4522,0.4522,0.4519,0.4519,0.4519,0.4519,0.4519,0.4522,0.4477,0.4477,0.448,0.449,0.449,0.449,0.449,0.449,0.449,0.4494,0.4494,0.4494,0.4494,0.4497,0.4268,0.3755,0.24,0.184,0.1842,0.1842,0.1842,0.1842,0.1842,0.2687,0.3828,0.3828,0.2188,-0.0,-0.0,-0.1679,-0.3925,-0.4379,-0.448,-0.4519,-0.4519,-0.4519,-0.4491,-0.4481,-0.4499,-0.4499,-0.4499,-0.4499,-0.4478,-0.4491,-0.4519,-0.4519,-0.4519,-0.4519,-0.4419,-0.4058,-0.3968,-0.3972,-0.3819,-0.3673,-0.3581,-0.3581,-0.3585,-0.3585,-0.3585,-0.3585,-0.3585,-0.3585,-0.3602,-0.2469,0.0357,0.2422,0.3595,0.3581,0.3604,0.3622,0.3711,0.344,0.3225,0.3048,0.2308,0.1791,0.1507,0.1507,0.1507,0.1507,0.1507,0.1947,0.2696,0.2696,0.2798,0.2944,0.2781,0.2768,0.2862,0.274,0.269,0.2712,0.2712,0.2712,0.2709,0.5432,0.4137,0.3607,0.5114,0.5148,0.4904,0.486,0.4865,0.4786,0.4511,0.449,0.4487,0.4477,0.4487,0.4484,0.4519,0.4525,0.4473,0.4519,0.4519,0.4519,0.4522,0.4522,0.4522,0.4522,0.4522,0.4522,0.4522,0.4522,0.4473,0.4484,0.4484,0.4484,0.4484,0.449,0.3074,0.0668,0.0446,0.0335,0.0336,0.0336,0.0336,0.0336,0.0336,0.0504,0.0672,0.0672,0.0392,-0.0,-0.0,-0.0335,-0.1168,-0.3688,-0.4473,-0.4519,-0.4519,-0.4519,-0.4512,-0.4491,-0.4484,-0.4484,-0.4484,-0.4484,-0.4491,-0.4512,-0.4519,-0.4519,-0.4519,-0.4525,-0.4375,-0.4058,-0.3974,-0.3932,-0.388,-0.3725,-0.3585,-0.3595,-0.3595,-0.3595,-0.3595,-0.3595,-0.3598,-0.3609,-0.3612,-0.1748,0.2697,0.3376,0.3585,0.3595,0.3612,0.3792,0.426,0.3654,0.3116,0.2758,0.2639,0.253,0.2493,0.2493,0.2493,0.2493,0.2493,0.256,0.2696,0.2686,0.2703,0.2727,0.2696,0.2696,0.2713,0.2726,0.2716,0.2712,0.2712,0.2712,0.2695,0.4235,0.3409,0.3184,0.465,0.427,0.3645,0.348,0.347,0.3419,0.3251,0.3244,0.3352,0.3683,0.4203,0.449,0.4473,0.4477,0.4477,0.4473,0.4522,0.4519,0.4519,0.4519,0.4519,0.4519,0.4519,0.4519,0.4519,0.4525,0.4473,0.448,0.4487,0.3635,0.212,0.3761,0.28,-0.0,-0.0,-0.0,-0.0,-0.0,-0.0,-0.0,-0.0,-0.0,-0.0,-0.0,-0.0,-0.0,-0.0,-0.0,-0.0502,-0.3524,-0.4484,-0.448,-0.4473,-0.4525,-0.4525,-0.4525,-0.4477,-0.448,-0.448,-0.448,-0.448,-0.448,-0.448,-0.448,-0.448,-0.4484,-0.3935,-0.2184,-0.2987,-0.391,-0.3765,-0.3133,-0.2633,-0.2638,-0.2638,-0.2638,-0.2638,-0.3204,-0.3589,-0.3595,-0.1226,0.0939,0.2511,0.323,0.3714,0.4008,0.4052,0.4308,0.487,0.4177,0.3683,0.3391,0.3017,0.2802,0.2812,0.2727,0.269,0.269,0.269,0.269,0.2686,0.2716,0.2683,0.2686,0.2716,0.2712,0.2712,0.2712,0.2712,0.2712,0.2712,0.2712,0.2692,0.3518,0.332,0.3297,0.3884,0.2913,0.1995,0.1709,0.1682,0.1675,0.1675,0.1675,0.1953,0.273,0.3808,0.4494,0.4477,0.4477,0.4477,0.4477,0.4522,0.4519,0.4519,0.4519,0.4519,0.4519,0.4519,0.4519,0.4519,0.4525,0.4477,0.448,0.4487,0.3246,0.1117,0.2747,0.2581,0.1009,0.028,-0.0,-0.0,-0.0,-0.0,-0.0,-0.0,-0.0,-0.0,-0.0,-0.0,-0.0,-0.0,-0.0,-0.0502,-0.3532,-0.4497,-0.4438,-0.4086,-0.42,-0.4428,-0.4086,-0.3974,-0.3981,-0.3981,-0.3981,-0.4039,-0.4438,-0.4497,-0.4324,-0.3585,-0.3471,-0.2766,-0.0427,-0.17,-0.3166,-0.3565,-0.2808,-0.2025,-0.1443,-0.1397,-0.1392,-0.1379,-0.2194,-0.2526,-0.1977,0.1415,0.3197,0.2277,0.3084,0.3836,0.4391,0.4387,0.4735,0.548,0.4679,0.4184,0.403,0.3328,0.2944,0.2907,0.2754,0.2712,0.2712,0.2712,0.2712,0.2712,0.2712,0.2712,0.2712,0.2712,0.2712,0.2712,0.2712,0.2712,0.2716,0.2812,0.2841,0.2813,0.4504,0.4383,0.3929,0.2611,0.1171,0.0171,0.0175,0.0171,0.0168,0.0168,0.0168,0.0671,0.212,0.3591,0.4501,0.4522,0.4473,0.4473,0.4519,0.4519,0.4519,0.4519,0.4519,0.4519,0.4519,0.4519,0.4519,0.4519,0.4519,0.4525,0.448,0.448,0.4373,0.4042,0.1452,0.1734,0.3999,0.1177,-0.0,-0.0,-0.0,-0.0,-0.0,-0.0,-0.0,-0.0,-0.0,-0.0,-0.0,-0.0,-0.0,-0.0503,-0.354,-0.4504,-0.4209,-0.2792,-0.3363,-0.4166,-0.2738,-0.2343,-0.2343,-0.2343,-0.2343,-0.2736,-0.4154,-0.4497,-0.3697,-0.089,-0.0334,-0.0276,-0.0053,-0.0159,-0.1,-0.3265,-0.3545,-0.2672,-0.0452,-0.0151,-0.0149,-0.0144,-0.0191,0.0611,0.2861,0.3392,0.3561,0.349,0.3534,0.3836,0.4391,0.4387,0.4913,0.6093,0.4986,0.4329,0.4192,0.3453,0.3039,0.2907,0.2754,0.2712,0.2712,0.2712,0.2712,0.2712,0.2712,0.2712,0.2712,0.2712,0.2712,0.2712,0.2712,0.2712,0.2746,0.313,0.3257,0.3208,0.4548,0.4515,0.4307,0.3757,0.3187,0.2475,0.1533,0.2201,0.2467,0.1509,0.1341,0.1953,0.3463,0.4154,0.4494,0.4473,0.4477,0.4477,0.4473,0.4522,0.4519,0.4519,0.4519,0.4519,0.4519,0.4519,0.4519,0.4519,0.4519,0.4519,0.4525,0.4525,0.448,0.4383,0.2289,0.1509,0.1625,0.0505,-0.0,-0.0,-0.0,-0.0,-0.0,-0.0,-0.0,-0.0,-0.0,-0.0,-0.0,-0.0,-0.0,-0.0224,-0.1342,-0.1734,-0.1792,-0.2128,-0.3319,-0.4389,-0.3787,-0.228,-0.0817,-0.0835,-0.0826,-0.0981,-0.156,-0.1736,-0.1399,-0.0224,-0.0,-0.0,-0.0,-0.0,-0.032,-0.1239,-0.138,-0.1033,-0.0151,-0.0,0.0534,0.2058,0.2247,0.2278,0.2472,0.3143,0.3674,0.3763,0.3681,0.4014,0.501,0.5679,0.6204,0.6689,0.5717,0.506,0.4771,0.3664,0.3049,0.2907,0.2754,0.2712,0.2712,0.2712,0.2712,0.2712,0.2712,0.2712,0.2712,0.297,0.3068,0.3101,0.3401,0.3499,0.3532,0.3695,0.3556,0.3289,0.4494,0.448,0.4487,0.4477,0.449,0.4042,0.2679,0.3644,0.4104,0.3074,0.2905,0.3352,0.4366,0.4487,0.4487,0.4473,0.4473,0.4473,0.4473,0.4522,0.4519,0.4519,0.4519,0.4519,0.4519,0.4519,0.4519,0.4522,0.4519,0.4519,0.4522,0.4519,0.4473,0.4435,0.3413,0.1843,-0.0,-0.0,-0.0,-0.0,-0.0,-0.0,-0.0,-0.0,-0.0,-0.0,-0.0,-0.0,-0.0,-0.0,-0.0,-0.0,-0.0,-0.0,-0.0224,-0.1233,-0.2245,-0.3079,-0.3113,-0.1556,-0.0,-0.0,-0.0,-0.0,-0.0,-0.0,-0.0,-0.0,-0.0,-0.0,-0.0,-0.0,-0.0,-0.0,-0.0,-0.0,-0.0,-0.0,0.0886,0.3326,0.3579,0.3286,0.2428,0.3137,0.367,0.3777,0.3684,0.4151,0.535,0.6606,0.728,0.728,0.6533,0.5895,0.5482,0.4,0.315,0.2907,0.2754,0.2712,0.2716,0.273,0.2727,0.2716,0.2895,0.2955,0.2907,0.3331,0.3523,0.3556,0.3858,0.3993,0.4026,0.4151,0.3874,0.3434,0.448,0.448,0.4477,0.4519,0.4473,0.4138,0.3176,0.386,0.4497,0.4497,0.4497,0.449,0.448,0.448,0.4473,0.4519,0.4519,0.4519,0.4519,0.4519,0.4519,0.4519,0.4519,0.4519,0.4519,0.4519,0.4522,0.448,0.4467,0.4467,0.448,0.4522,0.4525,0.448,0.449,0.2798,-0.0,-0.0,-0.0,-0.0,-0.0,-0.0,-0.0,-0.0,-0.0,-0.0,-0.0,-0.0,-0.0,-0.0,-0.0,-0.0,-0.0,-0.0,-0.0,-0.0,-0.0,0.0056,0.0056,0.0054,0.0053,0.0051,0.0053,-0.0,-0.0,-0.0,-0.0,-0.0,-0.0,-0.0,-0.0,-0.0,-0.0,0.0056,0.0056,0.0056,-0.0,-0.0,0.0893,0.3312,0.3587,0.3585,0.3598,0.3581,0.3581,0.3581,0.3626,0.41,0.5265,0.6972,0.7919,0.7919,0.7335,0.6787,0.6295,0.4521,0.3369,0.2907,0.2788,0.2716,0.2723,0.2839,0.2825,0.2756,0.3356,0.35,0.3355,0.3826,0.3993,0.4026,0.4026,0.4026,0.4058,0.4468,0.4278,0.3767,0.4525,0.4522,0.4522,0.4519,0.4473,0.4418,0.407,0.4307,0.448,0.4473,0.4473,0.4525,0.4522,0.4522,0.4522,0.4519,0.4519,0.4519,0.4519,0.4519,0.4519,0.4519,0.4519,0.4522,0.4473,0.4522,0.4522,0.448,0.3785,0.3782,0.4522,0.4519,0.4525,0.448,0.449,0.2798,-0.0,-0.0,-0.0,-0.0,-0.0,-0.0,-0.0,-0.0,-0.0,0.028,0.2413,0.1792,-0.0,-0.0,-0.0,-0.0,-0.0,-0.0,-0.0,-0.0,0.1505,0.3174,0.315,0.3157,0.3185,0.3167,0.2828,0.2109,0.0383,-0.0,-0.0,-0.0,-0.0,-0.0,-0.0,-0.0,0.0708,0.2798,0.3135,0.2794,0.1718,0.1569,0.2141,0.3849,0.3914,0.3795,0.3734,0.3639,0.3622,0.3721,0.4459,0.5212,0.5884,0.7196,0.7919,0.7919,0.7864,0.747,0.665,0.4914,0.3921,0.366,0.3427,0.353,0.3872,0.3725,0.3768,0.3906,0.3894,0.3851,0.3826,0.4248,0.459,0.4865,0.5188,0.5501,0.5714,0.5316,0.489,0.4421,0.4519,0.4519,0.4519,0.4519,0.4522,0.4525,0.4519,0.4522,0.4525,0.4519,0.4519,0.4519,0.4519,0.4519,0.4519,0.4519,0.4519,0.4519,0.4519,0.4519,0.4519,0.4519,0.4519,0.4522,0.4473,0.3898,0.3898,0.448,0.3898,0.3895,0.4525,0.4519,0.4525,0.448,0.449,0.3477,0.1679,0.0503,-0.0,-0.0,-0.0,-0.0,-0.0,-0.0,0.0727,0.2017,0.3822,0.3309,0.1786,0.1783,0.1783,0.1779,0.1758,0.1805,0.1804,0.1803,0.3068,0.4508,0.452,0.448,0.4525,0.4484,0.4047,0.3229,0.1762,0.1122,0.0856,0.0875,0.0768,0.0771,0.0837,0.087,0.1452,0.3292,0.4079,0.4158,0.3245,0.3106,0.3348,0.4025,0.4045,0.4138,0.4359,0.4268,0.4342,0.4724,0.5632,0.6189,0.6343,0.7624,0.8333,0.8201,0.854,0.8262,0.7378,0.5983,0.4969,0.436,0.4209,0.4267,0.4593,0.4475,0.448,0.4588,0.4522,0.4576,0.4703,0.4985,0.5345,0.5736,0.6029,0.6275,0.6438,0.5826,0.5296,0.4734,0.4519,0.4519,0.4519,0.4519,0.4519,0.4519,0.4519,0.4519,0.4519,0.4519,0.4519,0.4519,0.4519,0.4519,0.4519,0.4519,0.4519,0.4519,0.4519,0.4519,0.4519,0.4519,0.4519,0.4519,0.4519,0.3106,0.3111,0.448,0.4522,0.4522,0.4477,0.4522,0.4525,0.448,0.449,0.4501,0.4284,0.1285,0.0167,0.0391,0.039,0.039,0.039,0.039,0.2119,0.4497,0.4494,0.4494,0.4494,0.4494,0.4484,0.4508,0.4488,0.4435,0.4425,0.4428,0.4481,0.451,0.4522,0.4476,0.4478,0.4488,0.4072,0.3623,0.3622,0.2953,0.2383,0.2391,0.2184,0.2101,0.233,0.2398,0.2427,0.2388,0.3583,0.4494,0.4494,0.4483,0.4393,0.4068,0.4148,0.4453,0.5179,0.526,0.5536,0.6213,0.6798,0.7037,0.6835,0.8253,0.9021,0.8815,0.9297,0.9142,0.8256,0.7514,0.6418,0.5034,0.498,0.4985,0.5066,0.514,0.5157,0.5131,0.528,0.5534,0.5903,0.5897,0.6176,0.6621,0.6557,0.6579,0.6567,0.614,0.5584,0.4948,0.4519,0.4519,0.4519,0.4519,0.4519,0.4519,0.4519,0.4519,0.4519,0.4519,0.4519,0.4519,0.4519,0.4519,0.4519,0.4519,0.4519,0.4519,0.4519,0.4519,0.4519,0.4519,0.4519,0.4519,0.4519,0.4177,0.4181,0.448,0.4522,0.4519,0.4522,0.4519,0.4525,0.448,0.4484,0.449,0.4327,0.1281,0.1337,0.353,0.353,0.3527,0.3527,0.3527,0.3925,0.4494,0.4487,0.4484,0.448,0.4473,0.4508,0.4517,0.4485,0.4175,0.3789,0.3792,0.4144,0.4478,0.4506,0.452,0.4511,0.4485,0.4185,0.3789,0.362,0.3585,0.3667,0.3934,0.3929,0.3837,0.3635,0.3846,0.4003,0.4024,0.4255,0.448,0.4525,0.4498,0.4474,0.4419,0.429,0.431,0.4621,0.5891,0.6732,0.6906,0.7044,0.7491,0.8361,0.8832,0.9299,0.9763,1.0003,0.964,0.86,0.8423,0.7512,0.59,0.5654,0.5788,0.6213,0.6053,0.6281,0.6824,0.5963,0.6279,0.7273,0.629,0.6544,0.7485,0.7124,0.7157,0.7365,0.6739,0.6225,0.5558,0.4519,0.4519,0.4519,0.4519,0.4519,0.4519,0.4519,0.4519,0.4519,0.4519,0.4519,0.4519,0.4519,0.4519,0.4519,0.4519,0.4519,0.4519,0.4519,0.4519,0.4519,0.4519,0.4519,0.4519,0.4519,0.4519,0.4522,0.4525,0.4522,0.4519,0.4519,0.4519,0.4525,0.448,0.448,0.4487,0.4383,0.279,0.3067,0.4487,0.4484,0.448,0.448,0.448,0.448,0.4525,0.4508,0.4488,0.4488,0.4502,0.4481,0.4445,0.4157,0.3873,0.3578,0.3599,0.4029,0.4461,0.4172,0.4303,0.447,0.4358,0.4185,0.3993,0.377,0.3833,0.3972,0.423,0.4271,0.4257,0.4226,0.431,0.4399,0.4463,0.4525,0.4525,0.4519,0.4519,0.4519,0.4519,0.4382,0.4371,0.4506,0.6571,0.8094,0.8543,0.8473,0.8742,0.9589,0.9914,1.0223,1.044,1.0298,0.9921,0.9388,0.8921,0.8246,0.7386,0.6961,0.703,0.7586,0.7461,0.7625,0.7992,0.7212,0.732,0.7939,0.7122,0.7195,0.7732,0.7497,0.7647,0.7925,0.7353,0.6655,0.5917,0.4519,0.4519,0.4519,0.4519,0.4519,0.4519,0.4519,0.4519,0.4519,0.4519,0.4519,0.4519,0.4519,0.4519,0.4519,0.4519,0.4519,0.4519,0.4519,0.4519,0.4519,0.4519,0.4519,0.4519,0.4519,0.4519,0.4519,0.4519,0.4519,0.4519,0.4519,0.4519,0.4525,0.448,0.4477,0.4484,0.4494,0.448,0.4477,0.4477,0.4522,0.4519,0.4515,0.4491,0.4481,0.4518,0.4481,0.4499,0.4503,0.4378,0.4372,0.4262,0.3734,0.3585,0.3615,0.3591,0.3936,0.4258,0.3746,0.4019,0.4397,0.4292,0.424,0.4164,0.4006,0.3909,0.3907,0.4033,0.4077,0.4172,0.447,0.4365,0.4324,0.4498,0.4519,0.4519,0.4519,0.4519,0.4574,0.4736,0.5046,0.5225,0.5214,0.7388,0.9194,1.0133,1.0125,1.0226,1.0635,1.0989,1.1139,1.1047,1.0588,1.0334,1.0206,0.9466,0.903,0.893,0.8486,0.8413,0.8716,0.8716,0.8756,0.882,0.8365,0.8334,0.8539,0.8075,0.8017,0.8158,0.798,0.8145,0.8446,0.7893,0.7178,0.6435,0.4519,0.4519,0.4519,0.4519,0.4519,0.4519,0.4519,0.4519,0.4519,0.4519,0.4519,0.4519,0.4519,0.4519,0.4519,0.4519,0.4519,0.4519,0.4519,0.4519,0.4519,0.4519,0.4519,0.4519,0.4519,0.4519,0.4519,0.4519,0.4519,0.4519,0.4519,0.4519,0.4525,0.448,0.4525,0.4525,0.448,0.4525,0.4519,0.4519,0.4519,0.4519,0.4505,0.4492,0.4495,0.4478,0.4477,0.4503,0.4435,0.3889,0.37,0.3721,0.3604,0.3612,0.3587,0.3612,0.3648,0.3701,0.362,0.3913,0.4299,0.4444,0.4346,0.4216,0.4164,0.4147,0.414,0.416,0.4317,0.447,0.4512,0.4501,0.4494,0.4515,0.4519,0.4519,0.4519,0.4519,0.4791,0.5614,0.7204,0.8219,0.8205,0.8551,0.9189,1.0141,1.0865,1.1345,1.1594,1.137,1.1453,1.2001,1.1611,1.116,1.0711,1.0569,1.0326,0.99,0.9849,0.9431,0.8716,0.8716,0.8958,0.9332,0.8558,0.8894,0.9925,0.8781,0.9013,0.9956,0.9088,0.9019,0.9314,0.8436,0.803,0.7832,0.4519,0.4519,0.4519,0.4519,0.4519,0.4519,0.4519,0.4519,0.4519,0.4519,0.4519,0.4519,0.4519,0.4519,0.4519,0.4519,0.4519,0.4519,0.4519,0.4519,0.4519,0.4519,0.4519,0.4519,0.4519,0.4497,0.4494,0.4519,0.4519,0.4519,0.4519,0.4519,0.4522,0.4525,0.4519,0.4522,0.4525,0.4519,0.4519,0.4519,0.4519,0.4519,0.4512,0.4504,0.4317,0.4013,0.4023,0.4014,0.3979,0.3668,0.3601,0.3621,0.3604,0.3602,0.3609,0.3581,0.3597,0.3614,0.3595,0.3736,0.4063,0.4883,0.4718,0.4473,0.4843,0.4631,0.4345,0.421,0.4244,0.4368,0.4501,0.4519,0.4519,0.4519,0.4519,0.4519,0.4519,0.5183,0.6123,0.7387,0.8255,0.8811,0.8805,0.9274,0.9956,1.0869,1.1404,1.1881,1.2403,1.2233,1.2292,1.2598,1.1862,1.1497,1.1562,1.1047,1.0835,1.0918,1.0918,1.0452,0.9597,0.9597,0.9725,0.9913,0.9531,0.9763,1.0327,0.9742,0.9898,1.0421,0.9959,0.9973,1.0165,0.9613,0.9392,0.9318]},{"header":{"parameterUnit":"m.s-1","parameterCategory":1,"la1":30.6,"la2":28.766,"lo1":-90.7593,"lo2":-88.6598,"dy":0.0162,"dx":0.0183,"nx":116,"ny":114,"refTime":"2023-05-19T12:00:00:Z","depth":0,"parameterNumber":3,"parameterNumberName":"V-component_of_WINDS"},"data":[0.0,0.0,0.0,0.0,0.0,0.0,0.0,0.0,0.0,0.0,0.0,0.0,0.0,0.0,0.0,0.0,0.0,0.0,0.0,0.0,0.0,0.0,0.0,0.0,0.0,0.0,0.0,0.0,0.0,0.0,0.0,0.0,0.0,0.0,0.0,0.0,0.0,0.0,0.0,0.0,0.0,0.0,0.0,0.0,0.0,0.0,0.0,0.0,0.0,0.0,0.0,0.0,0.0,0.0,0.0,0.0,0.0,0.0,0.0,0.0,0.0,0.0,0.0,0.0,0.0,0.0,0.0,0.0,0.0,0.0,0.0,0.0,0.0,0.0,0.0,0.0,0.0,0.0,0.0,0.0,0.0,0.0,0.0,0.0,0.0,0.0,0.0,0.0,0.0,0.0,0.0,0.0,0.0,0.0,0.0,0.0,0.0,0.0,0.0,0.0,0.0,0.0,0.0,0.0,0.0,0.0,0.0,0.0,0.0,0.0,0.0,0.0,0.0,0.0,0.0,0.0,0.0,0.0,0.0,0.0,0.0,0.0,0.0,0.0,0.0,0.0,0.0,0.0,0.0,0.0,0.0,0.0,0.0,0.0,0.0,0.0,0.0,0.0,0.0,0.0,0.0,0.0,0.0,0.0,0.0,0.0,0.0,0.0,0.0,0.0,0.0,0.0,0.0,0.0,0.0,0.0,0.0,0.0,0.0,0.0,0.0,0.0,0.0,0.0,0.0,0.0,0.0,0.0,0.0,0.0,0.0,0.0,0.0,0.0,0.0,0.0,0.0,0.0,0.0,0.0,0.0,0.0,0.0,0.0,0.0,0.0,0.0,0.0,0.0,0.0,0.0,0.0,0.0,0.0,0.0,0.0,0.0,0.0,0.0,0.0,0.0,0.0,0.0,0.0,0.0,0.0,0.0,0.0,0.0,0.0,0.0,0.0,0.0,0.0,0.0,0.0,0.0,0.0,0.0,0.0,0.0,0.0,0.0,0.0,0.0,0.0,0.0,0.0,0.0,0.0,0.0,0.0,0.0,0.0,0.0,0.0,0.0,0.0,0.0,0.0,0.0,0.0,0.0,0.0,0.0,0.0,0.0,0.0,0.0,0.0,0.0,0.0,0.0,0.0,0.0,0.0,0.0,0.0,0.0,0.0,0.0,0.0,0.0,0.0,0.0,0.0,0.0,0.0,0.0,0.0,0.0,0.0,0.0,0.0,0.0,0.0,0.0,0.0,0.0,0.0,0.0,0.0,0.0,0.0,0.0,0.0,0.0,0.0,0.0,0.0,0.0,0.0,0.0,0.0,0.0,0.0,0.0,0.0,0.0,0.0,0.0,0.0,0.0,0.0,0.0,0.0,0.0,0.0,0.0,0.0,0.0,0.0,0.0,0.0,0.0,0.0,0.0,0.0,0.0,0.0,0.0,0.0,0.0,0.0,0.0,0.0,0.0,0.0,0.0,0.0,0.0,0.0,0.0,0.0,0.0,0.0,0.0,0.0,0.0,0.0,0.0,0.0,0.0,0.0,0.0,0.0,0.0,0.0,0.0,0.0,0.0,0.0,0.0,0.0,0.0,0.0,0.0,0.0,0.0,0.0,0.0,0.0,0.0,0.0,0.0,0.0,0.0,0.0,0.0,0.0,0.0,0.0,0.0,0.0,0.0,0.0,0.0,0.0,0.0,0.0,0.0,0.0,0.0,0.0,0.0,0.0,0.0,0.0,0.0,0.0,0.0,0.0,0.0,0.0,0.0,0.0,0.0,0.0,0.0,0.0,0.0,0.0,0.0,0.0,0.0,0.0,0.0,0.0,0.0,0.0,0.0,0.0,0.0,0.0,0.0,0.0,0.0,0.0,0.0,0.0,0.0,0.0,0.0,0.0,0.0,0.0,0.0,0.0,0.0,0.0,0.0,0.0,0.0,0.0,0.0,0.0,0.0,0.0,0.0,0.0,0.0,0.0,0.0,0.0,0.0,0.0,0.0,0.0,0.0,0.0,0.0,0.0,0.0,0.0,0.0,0.0,0.0,0.0,0.0,0.0,0.0,0.0,0.0,0.0,0.0,0.0,0.0,0.0,0.0,0.0,0.0,0.0,0.0,0.0,0.0,0.0,0.0,0.0,0.0,0.0,0.0,0.0,0.0,0.0,0.0,0.0,0.0,0.0,0.0,0.0,0.0,0.0,0.0,0.0,0.0,0.0,0.0,0.0,0.0,0.0,0.0,0.0,0.0,0.0,0.0,0.0,0.0,0.0,0.0,0.0,0.0,0.0,0.0,0.0,0.0,0.0,0.0,0.0,0.0,0.0,0.0,0.0,0.0,0.0,0.0,0.0,0.0,0.0,0.0,0.0,0.0,0.0,0.0,0.0,0.0,0.0,0.0,0.0,0.0,0.0,0.0,0.0,0.0,0.0,0.0,0.0,0.0,0.0,0.0,0.0,0.0,0.0,0.0,0.0,0.0,0.0,0.0,0.0,0.0,0.0,0.0,0.0,0.0,0.0,0.0,0.0,0.0,0.0,0.0,0.0,0.0,0.0,0.0,0.0,0.0,0.0,0.0,0.0,0.0,0.0,0.0,0.0,0.0,0.0,0.0,0.0,0.0,0.0,0.0,0.0,0.0,0.0,0.0,0.0,0.0,0.0,0.0,0.0,0.0,0.0,0.0,0.0,0.0,0.0,0.0,0.0,0.0,0.0,0.0,0.0,0.0,0.0,0.0,0.0,0.0,0.0,0.0,0.0,0.0,0.0,0.0,0.0,0.0,0.0,0.0,0.0,0.0,0.0,0.0,0.0,0.0,0.0,0.0,0.0,0.0,0.0,0.0,0.0,0.0,0.0,0.0,0.0,0.0,0.0,0.0,0.0,0.0,0.0,0.0,0.0,0.0,0.0,0.0,0.0,0.0,0.0,0.0,0.0,0.0,0.0,0.0,0.0,0.0,0.0,0.0,0.0,0.0,0.0,0.0,0.0,0.0,0.0,0.0,0.0,0.0,0.0,0.0,0.0,0.0,0.0,0.0,0.0,0.0,0.0,0.0,0.0,0.0,0.0,0.0,0.0,0.0,0.0,0.0,0.0,0.0,0.0,0.0,0.0,0.0,0.0,0.0,0.0,0.0,0.0,0.0,0.0,0.0,0.0,0.0,0.0,0.0,0.0,0.0,0.0,0.0,0.0,0.0,0.0,0.0,0.0,0.0,0.0,0.0,0.0,0.0,0.0,0.0,0.0,0.0,0.0,0.0,0.0,0.0,0.0,0.0,0.0,0.0,0.0,0.0,0.0,0.0,0.0,0.0,0.0,0.0,0.0,0.0,0.0,0.0,0.0,0.0,0.0,0.0,0.0,0.0,0.0,0.0,0.0,0.0,0.0,0.0,0.0,0.0,0.0,0.0,0.0,0.0,0.0,0.0,0.0,0.0,0.0,0.0,0.0,0.0,0.0,0.0,0.0,0.0,0.0,0.0,0.0,0.0,0.0,0.0,0.0,0.0,0.0,0.0,0.0,0.0,0.0,0.0,0.0,0.0,0.0,0.0,0.0,0.0,0.0,0.0,0.0,0.0,0.0,0.0,0.0,0.0,0.0,0.0,0.0,0.0,0.0,0.0,0.0,0.0,0.0,0.0,0.0,0.0,0.0,0.0,0.0,0.0,0.0,0.0,0.0,0.0,0.0,0.0,0.0,0.0,0.0,0.0,0.0,0.0,0.0,0.0,0.0,0.0,0.0,0.0,0.0,0.0,0.0,0.0,0.0,0.0,0.0,0.0,0.0,0.0,0.0,0.0,0.0,0.0,0.0,0.0,0.0,0.0,0.0,0.0,0.0,0.0,0.0,0.0,0.0,0.0,0.0,0.0,0.0,0.0,0.0,0.0,0.0,0.0,0.0,0.0,0.0,0.0,0.0,0.0,0.0,0.0,0.0,0.0,0.0,0.0,0.0,0.0,0.0,0.0,0.0,0.0,0.0,0.0,0.0,0.0,0.0,0.0,0.0,0.0,0.0,0.0,0.0,0.0,0.0,0.0,0.0,0.0,0.0,0.0,0.0,0.0,0.0,0.0,0.0,0.0,0.0,0.0,0.0,0.0,0.0,0.0,0.0,0.0,0.0,0.0,0.0,0.0,0.0,0.0,0.0,0.0,0.0,0.0,0.0,0.0,0.0,0.0,0.0,0.0,0.0,0.0,0.0,0.0,0.0,0.0,0.0,0.0,0.0,0.0,0.0,0.0,0.0,0.0,0.0,0.0,0.0,0.0,0.0,0.0,0.0,0.0,0.0,0.0,0.0,0.0,0.0,0.0,0.0,0.0,0.0,0.0,0.0,0.0,0.0,0.0,0.0,0.0,0.0,0.0,0.0,0.0,0.0,0.0,0.0,0.0,0.0,0.0,0.0,0.0,0.0,0.0,0.0,0.0,0.0,0.0,0.0,0.0,0.0,0.0,0.0,0.0,0.0,0.0,0.0,0.0,0.0,0.0,0.0,0.0,0.0,0.0,0.0,0.0,0.0,0.0,0.0,0.0,0.0,0.0,0.0,0.0,0.0,0.0,0.0,0.0,0.0,0.0,0.0,0.0,0.0,0.0,0.0,0.0,0.0,0.0,0.0,0.0,0.0,0.0,0.0,0.0,0.0,0.0,0.0,0.0,0.0,0.0,0.0,0.0,0.0,0.0,0.0,0.0,0.0,0.0,0.0,0.0,0.0,0.0,0.0,0.0,0.0,0.0,0.0,0.0,0.0,0.0,0.0,0.0,0.0,0.0,0.0,0.0,0.0,0.0,0.0,0.0,0.0,0.0,0.0,0.0,0.0,0.0,0.0,0.0,0.0,0.0,0.0,0.0,0.0,0.0,0.0,0.0,0.0,0.0,0.0,0.0,0.0,0.0,0.0,0.0,0.0,0.0,0.0,0.0,0.0,0.0,0.0,0.0,0.0,0.0,0.0,0.0,0.0,0.0,0.0,0.0,0.0,0.0,0.0,0.0,0.0,0.0,0.0,0.0,0.0,0.0,0.0,0.0,0.0,0.0,0.0,0.0,0.0,0.0,0.0,0.0,0.0,0.0,0.0,0.0,0.0,0.0,0.0,0.0,0.0,0.0,0.0,0.0,0.0,0.0,0.0,0.0,0.0,0.0,0.0,0.0,0.0,0.0,0.0,0.0,0.0,0.0,0.0,0.0,0.0,0.0,0.0,0.0,0.0,0.0,0.0,0.0,0.0,0.0,0.0,0.0,0.0,0.0,0.0,0.0,0.0,0.0,0.0,0.0,0.0,0.0,0.0,0.0,0.0,0.0,0.0,0.0,0.0,0.0,0.0,0.0,0.0,0.0,0.0,0.0,0.0,0.0,0.0,0.0,0.0,0.0,0.0,0.0,0.0,0.0,0.0,0.0,0.0,0.0,0.0,0.0,0.0,0.0,0.0,0.0,0.0,0.0,0.0,0.0,0.0,0.0,0.0,0.0,0.0,0.0,0.0,0.0,0.0,0.0,0.0,0.0,0.0,0.0,0.0,0.0,0.0,0.0,0.0,0.0,0.0,0.0,0.0,0.0,0.0,0.0,0.0,0.0,0.0,0.0,0.0,0.0,0.0,0.0,0.0,0.0,0.0,0.0,0.0,0.0,0.0,0.0,0.0,0.0,0.0,0.0,0.0,0.0,0.0,0.0,0.0,0.0,0.0,0.0,0.0,0.0,0.0,0.0,0.0,0.0,0.0,0.0,0.0,0.0,0.0,0.0,0.0,0.0,0.0,0.0,0.0,0.0,0.0,0.0,0.0,0.0,0.0,0.0,0.0,0.0,0.0,0.0,0.0,0.0,0.0,0.0,0.0,0.0,0.0,0.0,0.0,0.0,0.0,0.0,0.0,0.0,0.0,0.0,0.0,0.0,0.0,0.0,0.0,0.0,0.0,0.0,0.0,0.0,0.0,0.0,0.0,0.0,0.0,0.0,0.0,0.0,0.0,0.0,0.0,0.0,0.0,0.0,0.0,0.0,0.0,0.0,0.0,0.0,0.0,0.0,0.0,0.0,0.0,0.0,0.0,0.0,0.0,0.0,0.0,0.0,0.0,0.0,0.0,0.0,0.0,0.0,0.0,0.0,0.0,0.0,0.0,0.0,0.0,-2.4493,-2.4316,0.0,0.0,0.0,0.0,0.0,0.0,0.0,0.0,0.0,0.0,0.0,0.0,0.0,0.0,0.0,0.0,0.0,0.0,0.0,0.0,0.0,0.0,0.0,0.0,0.0,0.0,0.0,0.0,0.0,0.0,0.0,0.0,0.0,0.0,0.0,0.0,0.0,0.0,0.0,0.0,0.0,0.0,0.0,0.0,0.0,0.0,0.0,0.0,0.0,0.0,0.0,0.0,0.0,0.0,0.0,0.0,0.0,0.0,0.0,0.0,0.0,0.0,0.0,0.0,0.0,0.0,0.0,0.0,0.0,0.0,0.0,0.0,0.0,0.0,0.0,0.0,0.0,0.0,0.0,0.0,0.0,0.0,0.0,0.0,0.0,0.0,0.0,0.0,0.0,0.0,0.0,0.0,0.0,0.0,0.0,0.0,0.0,0.0,0.0,0.0,0.0,0.0,0.0,0.0,0.0,0.0,0.0,0.0,0.0,0.0,0.0,0.0,0.0,0.0,-2.441,-2.4393,0.0,0.0,0.0,0.0,0.0,0.0,0.0,0.0,0.0,0.0,0.0,0.0,0.0,0.0,0.0,0.0,0.0,0.0,0.0,0.0,0.0,0.0,0.0,0.0,0.0,0.0,0.0,0.0,0.0,0.0,0.0,0.0,0.0,0.0,0.0,0.0,0.0,0.0,0.0,0.0,0.0,0.0,0.0,0.0,0.0,0.0,0.0,0.0,0.0,0.0,0.0,0.0,0.0,0.0,0.0,0.0,0.0,0.0,0.0,0.0,0.0,0.0,0.0,0.0,0.0,0.0,0.0,0.0,0.0,0.0,0.0,0.0,0.0,0.0,0.0,0.0,0.0,0.0,0.0,0.0,0.0,0.0,0.0,0.0,0.0,0.0,0.0,0.0,0.0,0.0,0.0,0.0,0.0,0.0,0.0,0.0,0.0,0.0,0.0,0.0,0.0,0.0,0.0,0.0,0.0,0.0,0.0,0.0,-2.507,-2.4974,-2.47,-2.4535,-2.4431,-2.4411,-2.443,-2.4339,-2.419,-2.419,0.0,0.0,0.0,0.0,0.0,0.0,0.0,0.0,0.0,0.0,0.0,0.0,0.0,0.0,0.0,0.0,0.0,0.0,0.0,0.0,0.0,-2.4303,-2.4339,-2.4685,-2.4559,-2.4561,0.0,0.0,0.0,0.0,0.0,0.0,0.0,0.0,0.0,0.0,0.0,0.0,-2.4822,-2.588,-2.6288,-2.6082,-2.5194,0.0,0.0,0.0,0.0,0.0,0.0,0.0,0.0,0.0,0.0,0.0,0.0,0.0,0.0,0.0,0.0,0.0,0.0,0.0,0.0,0.0,0.0,0.0,0.0,0.0,0.0,0.0,0.0,0.0,0.0,0.0,0.0,0.0,0.0,0.0,0.0,0.0,0.0,0.0,0.0,0.0,0.0,0.0,-2.8063,-2.8063,0.0,0.0,0.0,0.0,0.0,0.0,0.0,0.0,0.0,0.0,0.0,0.0,0.0,-2.6082,-2.5303,-2.6572,-2.6479,-2.4998,-2.5412,-2.5573,-2.5503,-2.4635,-2.4614,-2.5201,-2.4522,0.0,-2.419,-2.419,0.0,0.0,0.0,0.0,0.0,0.0,0.0,0.0,0.0,0.0,0.0,0.0,0.0,0.0,0.0,0.0,0.0,0.0,0.0,0.0,0.0,-2.4495,-2.4478,-2.4775,-2.5129,-2.5186,-2.4808,0.0,0.0,0.0,0.0,0.0,0.0,0.0,0.0,0.0,-2.4809,-2.5806,-2.665,-2.758,-2.8275,-2.8706,-2.8185,-2.7605,-2.6995,-2.6228,0.0,0.0,0.0,0.0,0.0,0.0,0.0,0.0,0.0,0.0,0.0,0.0,0.0,0.0,0.0,0.0,0.0,0.0,0.0,0.0,0.0,0.0,0.0,0.0,0.0,0.0,0.0,0.0,0.0,0.0,0.0,0.0,0.0,0.0,0.0,0.0,0.0,0.0,0.0,-2.8794,-2.8563,-2.8563,-2.7736,-2.7217,0.0,0.0,0.0,0.0,0.0,0.0,0.0,0.0,0.0,-2.6755,-2.7121,-2.714,-2.6755,-2.7236,-2.7067,-2.6228,-2.5862,-2.5894,-2.6186,-2.5277,-2.5072,-2.5421,-2.5511,-2.5291,-2.4832,-2.4392,-2.419,-2.419,0.0,0.0,0.0,0.0,-2.419,-2.419,0.0,0.0,0.0,0.0,0.0,0.0,0.0,0.0,0.0,0.0,0.0,0.0,-2.4776,-2.47,-2.476,-2.5232,-2.5565,-2.5608,-2.5283,-2.5514,0.0,0.0,0.0,0.0,0.0,0.0,0.0,-2.4707,-2.6392,-2.7794,-2.889,-2.9698,-3.0544,-3.1371,-3.1371,-3.0102,-2.789,-2.7225,-2.6706,0.0,0.0,0.0,0.0,0.0,0.0,0.0,0.0,0.0,0.0,0.0,0.0,0.0,0.0,0.0,0.0,0.0,0.0,0.0,0.0,0.0,0.0,0.0,0.0,0.0,0.0,0.0,0.0,0.0,0.0,0.0,0.0,0.0,0.0,0.0,0.0,0.0,0.0,-2.8909,-2.8794,-2.8794,-2.7505,-2.6851,0.0,0.0,0.0,0.0,0.0,0.0,-2.7198,-2.7044,-2.7313,-2.8179,-2.8198,-2.8102,-2.789,-2.8,-2.7778,-2.7204,-2.6543,-2.6483,-2.6888,-2.6062,-2.5825,-2.6046,-2.6429,-2.6135,-2.5384,-2.4979,-2.4814,-2.4795,-2.4593,-2.4502,-2.4483,-2.4281,-2.419,-2.419,0.0,0.0,0.0,0.0,0.0,0.0,0.0,0.0,0.0,0.0,0.0,-2.3693,-2.4866,-2.4864,-2.5251,-2.6406,-2.5616,-2.5478,-2.6455,-2.4889,-2.4243,0.0,0.0,0.0,0.0,0.0,0.0,-2.7116,-2.8377,-2.9833,-3.1525,-3.2333,-3.316,-3.4007,-3.4007,-3.3083,-3.1379,-2.8964,-2.8376,-2.8875,0.0,0.0,0.0,0.0,0.0,0.0,0.0,0.0,0.0,0.0,0.0,0.0,0.0,0.0,0.0,0.0,0.0,0.0,0.0,0.0,0.0,0.0,0.0,0.0,0.0,0.0,0.0,0.0,0.0,0.0,0.0,0.0,0.0,0.0,0.0,0.0,0.0,0.0,0.0,-2.7948,-2.7159,0.0,0.0,0.0,0.0,-2.6544,-2.7349,-2.8195,-2.8929,-2.8255,-2.8198,-2.9006,-2.9044,-2.8659,-2.7909,-2.9015,-2.8789,-2.7188,-2.7544,-2.7717,-2.7714,-2.6906,-2.6961,-2.764,-2.6906,-2.6135,-2.5458,-2.6172,-2.6484,-2.641,-2.564,-2.5348,-2.5256,-2.4483,-2.419,-2.419,0.0,0.0,0.0,0.0,0.0,0.0,0.0,0.0,0.0,-2.2623,-2.3456,-2.4757,-2.6665,-2.6089,-2.6233,-2.7867,-2.7029,-2.6375,-2.6222,-2.5579,-2.5096,0.0,0.0,0.0,0.0,0.0,-2.6663,-2.8153,-2.9353,-3.1083,-3.3314,-3.3603,-3.4199,-3.5064,-3.5584,-3.5229,-3.4112,-3.2039,-3.0398,-2.9033,-2.7601,-2.6332,0.0,0.0,0.0,0.0,0.0,0.0,0.0,0.0,0.0,0.0,0.0,0.0,0.0,0.0,0.0,0.0,0.0,0.0,0.0,0.0,0.0,0.0,0.0,0.0,0.0,0.0,0.0,0.0,0.0,0.0,0.0,0.0,0.0,0.0,0.0,0.0,0.0,-2.9448,-2.9236,0.0,-2.9833,-2.9398,-2.9071,-2.9063,-2.936,-2.9898,-3.0737,-3.0506,-3.0487,-3.0756,-3.0775,-3.0285,-2.9257,-2.9545,-2.9343,-2.8615,-2.8073,-2.8062,-2.8539,-2.7732,-2.753,-2.7805,-2.8044,-2.7695,-2.6998,-2.7824,-2.7236,-2.5841,-2.608,-2.6172,-2.6135,-2.586,-2.575,-2.5676,0.0,0.0,0.0,0.0,0.0,0.0,0.0,0.0,0.0,-2.2149,-2.3528,-2.5177,-2.7039,-2.6754,-2.6915,-2.8145,-2.7358,-2.6597,-2.6128,-2.5498,-2.5092,0.0,0.0,0.0,0.0,-2.6752,-2.8303,-2.9817,-3.1076,-3.2699,-3.4641,-3.4911,-3.5507,-3.6392,-3.7219,-3.7459,-3.716,-3.5685,-3.3282,-3.0328,-2.8917,-2.8003,-2.733,0.0,0.0,0.0,0.0,0.0,0.0,0.0,0.0,0.0,0.0,0.0,0.0,0.0,0.0,0.0,0.0,0.0,0.0,0.0,0.0,0.0,0.0,0.0,0.0,0.0,0.0,0.0,0.0,0.0,0.0,0.0,0.0,0.0,0.0,0.0,-3.0698,-3.1583,-3.1429,-3.1468,-3.2045,-3.1583,-3.1237,-3.1237,-3.1795,-3.2372,-3.2949,-3.2699,-3.2545,-3.2545,-3.2173,-3.1479,-3.0452,-3.0163,-2.9795,-2.9373,-2.8581,-2.8484,-2.8975,-2.8448,-2.8209,-2.8227,-2.8778,-2.8539,-2.786,-2.8686,-2.7897,-2.6245,-2.6796,-2.6998,-2.6979,-2.6704,-2.6594,-2.6502,0.0,0.0,0.0,0.0,0.0,0.0,0.0,-2.0701,-2.1814,-2.1977,-2.3398,-2.4827,-2.5954,-2.6779,-2.725,-2.7264,-2.6494,-2.6061,-2.6269,-2.4534,-2.4024,0.0,0.0,0.0,-2.6691,-2.8883,-3.0763,-3.2297,-3.3604,-3.4699,-3.5603,-3.6392,-3.7219,-3.8084,-3.895,-3.9777,-4.0489,-3.9738,-3.7074,-3.3138,-3.0477,-3.0362,-3.1328,0.0,0.0,0.0,0.0,0.0,0.0,0.0,0.0,0.0,0.0,0.0,0.0,0.0,0.0,0.0,0.0,0.0,0.0,0.0,0.0,0.0,0.0,0.0,0.0,0.0,0.0,0.0,0.0,0.0,0.0,0.0,0.0,0.0,-3.0456,-3.191,-3.3295,-3.4141,-3.3545,-3.3064,-3.3064,-3.3064,-3.3064,-3.3064,-3.4603,-3.5545,-3.5545,-3.4718,-3.4218,-3.4199,-3.3115,-3.2114,-3.131,-3.081,-3.0174,-2.9392,-2.9134,-2.8994,-2.8994,-2.8994,-2.8994,-2.8994,-2.8994,-2.8576,-2.7897,-2.8686,-2.8539,-2.7842,-2.7842,-2.7842,-2.7732,-2.6961,-2.6633,-2.6481,0.0,0.0,0.0,0.0,0.0,0.0,0.0,-2.0189,-2.1134,-2.1902,-2.3449,-2.5325,-2.7582,-2.7845,-2.811,-2.8746,-2.6805,-2.5652,-2.5841,-2.4145,-2.3866,0.0,0.0,0.0,-2.8821,-3.0089,-3.1891,-3.4291,-3.4855,-3.5892,-3.7315,-3.7546,-3.8104,-3.8969,-3.9796,-4.0642,-4.147,-4.1873,-4.103,-3.9073,-3.5301,-3.2955,-3.152,0.0,0.0,0.0,0.0,0.0,0.0,0.0,0.0,0.0,0.0,0.0,0.0,0.0,0.0,0.0,0.0,0.0,0.0,0.0,0.0,0.0,0.0,0.0,0.0,0.0,0.0,0.0,0.0,0.0,0.0,0.0,0.0,-3.2211,-3.1501,-3.3359,-3.4872,-3.5122,-3.6007,-3.6603,-3.6603,-3.6603,-3.6603,-3.6603,-3.6469,-3.6372,-3.6372,-3.5603,-3.4853,-3.4218,-3.3149,-3.2086,-3.1101,-3.0188,-2.9532,-2.9112,-2.904,-2.8994,-2.8994,-2.8994,-2.8994,-2.8994,-2.8994,-2.8865,-2.8705,-2.8902,-2.8865,-2.8686,-2.8686,-2.8686,-2.865,-2.8407,-2.745,-2.6177,0.0,0.0,0.0,0.0,0.0,0.0,0.0,-1.9987,-2.0715,-2.13,-2.3115,-2.4984,-2.654,-2.7176,-2.7412,-2.7249,-2.6091,-2.5206,-2.4739,-2.4424,0.0,0.0,0.0,-2.8744,-3.0527,-3.1864,-3.3562,-3.5615,-3.6247,-3.7046,-3.8027,-3.8719,-3.9315,-3.9854,-4.1046,-4.1873,-4.2374,-4.2893,-4.2816,-4.2124,-3.9681,-3.7584,-3.568,-3.341,-3.2891,-3.3064,-3.0641,-3.0833,-3.1929,-3.0102,0.0,0.0,0.0,0.0,0.0,0.0,0.0,0.0,0.0,0.0,0.0,0.0,0.0,0.0,0.0,0.0,0.0,0.0,0.0,0.0,0.0,0.0,0.0,0.0,-3.4243,-3.5326,-3.5435,-3.6084,-3.668,-3.7046,-3.795,-3.8546,-3.8546,-3.82,-3.8142,-3.8527,-3.8084,-3.7796,-3.7796,-3.7007,-3.6161,-3.5276,-3.4088,-3.3012,-3.2033,-3.1166,-3.0485,-3.0008,-3.0008,-2.9843,-2.9512,-2.9512,-2.9305,-2.8994,-2.8994,-2.8994,-2.8994,-2.8994,-2.8994,-2.8994,0.0,0.0,0.0,0.0,-2.8167,-2.702,0.0,0.0,0.0,0.0,0.0,0.0,0.0,-1.9882,-2.034,-2.0356,-2.252,-2.4025,-2.3933,-2.5456,-2.586,-2.4337,-2.4759,-2.4598,-2.3363,0.0,0.0,-2.6972,-2.8663,-3.0379,-3.2088,-3.3937,-3.5458,-3.6644,-3.774,-3.8334,-3.8469,-4.0046,-4.0835,-4.0989,-4.2547,-4.3297,-4.3374,-4.3374,-4.3374,-4.3374,-4.3374,-4.2758,-4.1393,-3.7526,-3.7411,-3.8873,-3.5641,-3.4237,-3.3737,-3.2641,0.0,0.0,0.0,0.0,0.0,0.0,0.0,0.0,0.0,0.0,0.0,0.0,0.0,0.0,0.0,0.0,0.0,0.0,0.0,0.0,0.0,0.0,0.0,0.0,-3.6935,-3.9013,-4.0585,-3.9508,-3.8834,-3.9488,-3.9585,-3.9527,-3.9431,-3.8738,-3.8604,-3.9373,-3.9354,-3.9296,-3.9296,-3.8454,0.0,0.0,0.0,-3.428,-3.3412,-3.2799,-3.2125,-3.1384,-3.1384,-3.1017,-3.0338,-3.0338,-2.9953,-2.925,-2.925,-2.9237,-2.9122,-2.9122,-2.9067,-2.8994,-2.8994,-2.8994,-2.8994,-2.8952,-2.8646,-2.8174,0.0,0.0,0.0,0.0,0.0,0.0,0.0,-1.9179,-1.9337,-1.9512,-2.1694,-2.2978,-2.2318,-2.4282,-2.5236,-2.4281,-2.3749,-2.3346,0.0,0.0,-2.6167,-2.7561,-2.9996,-3.2208,-3.4088,-3.5363,-3.6891,-3.8731,-3.9588,-4.0373,-4.1085,-4.2124,-4.2931,-4.3585,-4.3912,-4.4451,-4.5105,-4.5105,-4.5105,-4.5105,-4.5105,-4.3778,-4.1643,-4.0104,-3.9431,-3.9027,-3.6969,-3.7892,-3.9642,-3.6719,-3.6988,-3.8046,-3.518,0.0,0.0,0.0,0.0,0.0,0.0,0.0,0.0,0.0,0.0,0.0,0.0,0.0,0.0,0.0,0.0,0.0,0.0,0.0,0.0,-3.8141,-3.9438,-4.0715,-4.2357,-4.2316,-4.1912,-4.1373,-4.1316,-4.1046,-4.0335,-4.0123,-4.0085,-4.0258,-3.9662,-3.9296,-3.9296,-3.8235,-3.7321,-3.6724,-3.5399,-3.428,-3.3412,-3.2449,-3.1784,-3.1384,-3.1384,0.0,-3.1164,-3.1164,-3.1072,-3.0944,-3.0944,-3.0577,-2.9971,-2.9971,-2.9604,-2.8994,-2.8994,-2.8994,-2.8952,-2.8633,-2.7932,-2.7053,0.0,0.0,0.0,0.0,0.0,0.0,0.0,-1.9002,-1.9035,-1.9134,-2.0587,-2.1534,-2.1385,-2.2914,-2.3792,-2.3391,-2.3142,-2.3345,0.0,-2.5328,-2.6888,-2.8906,-3.0669,-3.2564,-3.4658,-3.6045,-3.7299,-3.8408,-4.0249,-4.1286,-4.1568,-4.3035,-4.3912,-4.4316,-4.4759,-4.5182,-4.5586,-4.5586,-4.5586,-4.5586,-4.5586,-4.4836,-4.3643,-4.322,-4.2797,-4.2277,-4.0969,-4.1335,-4.2124,-3.9988,-3.9546,-3.9527,-3.743,-3.5295,-3.3276,0.0,0.0,0.0,0.0,0.0,0.0,0.0,0.0,0.0,0.0,0.0,0.0,0.0,0.0,-3.5521,0.0,0.0,-3.8975,-4.1023,-4.2033,-4.2958,-4.4182,-4.4355,-4.372,-4.2008,-4.1797,-4.147,-4.0566,-4.0142,-4.0065,-4.0469,-3.9738,-3.9469,-3.9873,-3.853,-3.7632,-3.7373,-3.577,-3.468,-3.4262,-3.3417,-3.292,-3.2791,-3.2654,-3.2394,-3.2008,-3.2008,-3.177,-3.1384,-3.1384,-3.1164,-3.0797,-3.0809,-3.0546,-3.0173,-2.9764,-2.9342,-2.8952,-2.854,-2.796,-2.7296,0.0,0.0,0.0,0.0,0.0,0.0,0.0,0.0,-1.8825,-1.8698,-1.9525,-2.0205,-2.0413,-2.1547,-2.2357,-2.2578,-2.2772,0.0,0.0,-2.6153,-2.7677,-3.0099,-3.1182,-3.2706,-3.4819,-3.6394,-3.7351,-3.7662,-4.0327,-4.1571,-4.1489,-4.3274,-4.4192,-4.4384,-4.5093,-4.5419,-4.5419,-4.5419,-4.5419,-4.5419,-4.5419,-4.5419,-4.5419,-4.5476,-4.5531,-4.549,-4.4605,-4.3566,-4.2547,-4.2181,-4.0931,-3.9411,-3.87,-3.745,-3.568,-3.2776,-3.1698,0.0,0.0,0.0,0.0,0.0,0.0,0.0,0.0,0.0,-3.4911,-3.6352,-3.7278,-3.8265,-3.9653,-4.0654,-4.1749,-4.322,-4.4166,-4.4914,-4.5509,-4.5451,-4.4528,-4.2316,-4.2047,-4.172,-4.0835,-4.0008,-3.9796,-4.045,-3.9892,-3.9815,-4.0469,-3.9169,-3.8366,-3.8257,-3.6673,-3.5753,-3.5581,-3.4938,-3.4558,-3.4442,-3.406,-3.3493,-3.2834,-3.2834,-3.2485,-3.1843,-3.1696,-3.1623,-3.1604,-3.1477,-3.1397,-3.1311,-3.0497,-2.9777,-2.9077,-2.8655,-2.8254,-2.7858,0.0,0.0,0.0,0.0,0.0,0.0,0.0,0.0,0.0,-1.763,-1.8891,-1.9564,-1.8845,-2.0419,-2.1915,-2.285,0.0,0.0,-2.5273,-2.6153,-2.7677,-3.0099,-3.1895,-3.3641,-3.5376,-3.6528,-3.7489,-3.8307,-4.011,-4.1358,-4.2025,-4.2961,-4.3818,-4.4575,-4.4669,-4.4707,-4.4707,-4.4707,-4.4707,-4.4707,-4.4707,-4.4707,-4.4732,-4.5052,-4.5342,-4.549,-4.4605,-4.2777,-4.1008,-4.247,-4.1797,-4.0335,-4.0239,-3.9604,-3.8065,-3.3968,0.0,-3.0475,-3.0198,-3.0936,-3.2352,-3.4695,-3.4775,-3.5233,0.0,0.0,-3.885,-3.8986,-3.9743,-4.0455,-4.0636,-4.1903,-4.3239,-4.4186,-4.4991,-4.5509,-4.5586,-4.4932,-4.4066,-4.3066,-4.2951,-4.2604,-4.1739,-4.0873,-4.0392,-4.0489,-4.0412,-4.0412,-4.0489,-4.0095,-3.9656,-3.9181,-3.8645,-3.8041,-3.7315,-3.6499,-3.5834,-3.5347,-3.453,-3.3963,-3.3678,-3.3678,-3.3623,-3.3495,-3.2779,-3.2485,-3.2412,-3.1678,-3.1409,-3.1311,-3.0503,-2.9929,-2.9475,-2.9091,-2.8493,-2.7888,0.0,0.0,0.0,0.0,0.0,0.0,0.0,0.0,0.0,0.0,-1.8181,-1.8815,-1.8741,-2.0788,-2.2157,0.0,0.0,0.0,-2.5023,-2.6051,-2.7677,-3.0099,-3.1402,-3.2919,-3.4708,-3.6133,-3.7047,-3.7398,-3.9736,-4.096,-4.1132,-4.2598,-4.3492,-4.3869,-4.4379,-4.458,-4.458,-4.458,-4.458,-4.458,-4.458,-4.458,-4.4511,-4.3658,-4.2936,-4.2316,-4.2151,-4.1104,0.0,0.0,-3.8892,-3.8469,-3.9469,-3.82,-3.5968,-3.418,-3.2795,0.0,-3.3141,-3.3716,-3.4414,0.0,-3.7655,-3.9166,-4.0466,-4.1224,-4.1795,-4.2319,-4.3472,-4.4268,-4.3799,-4.4608,-4.5318,0.0,-4.5393,-4.5413,-4.4913,-4.4528,-4.3816,-4.2508,-4.2335,-4.2008,-4.1123,-4.07,-4.0489,-4.0489,-4.0489,-4.0489,-4.0489,-3.9948,-3.9528,-3.9315,-3.8665,-3.8156,-3.7827,-3.7328,-3.6616,-3.5713,-3.5212,-3.4556,-3.3807,-3.3807,-3.3807,-3.377,-3.344,-3.3311,-3.3275,-3.2944,-3.2797,-3.2724,-3.1916,-3.1362,-3.0818,-2.9485,-2.8405,-2.7592,0.0,0.0,0.0,0.0,0.0,0.0,0.0,0.0,0.0,0.0,0.0,-1.8091,-1.8938,-2.0975,-2.2142,0.0,0.0,0.0,0.0,-2.564,-2.7255,-2.9439,-3.0522,-3.1912,-3.3722,-3.5379,-3.6363,-3.657,-3.8838,-4.008,-4.0308,-4.1922,-4.2808,-4.3071,-4.3905,-4.4299,-4.4299,-4.4299,-4.4299,-4.4299,-4.4299,-4.4018,-4.3446,-4.1907,-4.0291,-3.8897,-3.9231,-3.827,0.0,0.0,-3.5353,-3.5257,-3.6988,-3.5988,-3.4141,-3.391,-3.3391,-3.3237,-3.4795,-3.5386,0.0,-3.755,-4.0146,-4.2264,-4.216,-4.3209,-4.441,-4.5087,-4.5954,-4.6453,-4.5836,-4.6182,-4.6336,-4.5701,-4.5586,-4.5374,-4.4739,-4.4259,-4.3528,-4.2297,-4.1546,-4.0854,-4.0219,-4.0354,-4.0489,-4.0489,-4.0489,-4.0489,-4.0489,-3.995,-3.9623,-3.9623,-3.9008,-3.8681,-3.8681,-3.8185,-3.7471,-3.6583,-3.5843,-3.502,-3.4119,-3.3899,-3.3807,-3.3807,-3.3807,-3.3807,-3.3807,-3.3807,-3.3807,-3.3715,-3.2802,-3.2182,-3.1643,-3.0013,-2.8652,-2.7656,0.0,0.0,0.0,0.0,0.0,0.0,0.0,0.0,0.0,0.0,0.0,0.0,0.0,0.0,0.0,0.0,0.0,0.0,0.0,-2.4801,-2.6174,-2.7787,-2.9384,-3.0999,-3.2596,-3.4229,-3.5459,-3.6313,-3.7158,-3.8419,-3.9932,-4.0777,-4.1585,-4.2356,-4.3146,-4.3548,-4.3548,-4.3548,-4.3548,-4.3548,-4.3548,-4.2595,-4.1048,-3.9761,-3.789,-3.5975,-3.6311,0.0,0.0,0.0,-3.1948,-3.0879,-3.2564,-3.3603,0.0,-3.3179,-3.291,-3.3103,-3.3987,0.0,-3.6295,-3.9565,-4.1739,-4.3489,-4.5086,-4.6144,-4.6797,-4.6817,-4.6201,-4.5643,-4.5605,-4.5605,-4.5624,-4.5586,-4.5586,-4.5586,-4.5547,-4.4162,-4.3124,-4.3066,-4.0873,-3.9373,0.0,-4.0027,-4.0489,-4.0489,-4.0489,-4.0489,-4.0489,-4.0469,-4.045,-4.045,-4.0431,-4.0412,-4.0412,-3.9315,-3.863,-3.8301,-3.64,-3.531,-3.4935,-3.4174,-3.3807,-3.3807,-3.3807,-3.3807,-3.3807,-3.3807,-3.3807,-3.3688,-3.2462,-3.1769,-3.1331,-3.075,-2.9643,-2.8435,0.0,0.0,0.0,0.0,0.0,0.0,0.0,0.0,0.0,0.0,0.0,0.0,0.0,0.0,0.0,0.0,0.0,0.0,0.0,-2.4055,-2.5226,-2.5595,-2.7556,-2.9276,-3.0654,-3.1968,-3.3018,-3.3862,-3.5202,-3.6413,-3.7533,-3.8891,-3.9937,-4.0763,-4.2103,-4.269,-4.269,-4.269,-4.2396,-4.1809,-4.0744,-3.9662,-3.8444,-3.5809,-3.3759,-3.2091,0.0,0.0,0.0,0.0,0.0,0.0,-2.9685,-2.9704,-2.9429,-3.0833,-3.166,-3.2776,-3.5872,0.0,-4.095,-4.2604,-4.5163,-4.7278,-4.7259,-4.7932,-4.824,-4.7144,-4.6201,-4.5259,-4.4143,-4.3932,-4.3932,-4.3932,-4.4393,-4.4739,-4.4739,-4.4239,-4.3258,-4.1585,-4.1123,0.0,0.0,0.0,0.0,-3.9662,-3.97,-3.9931,-4.0469,-4.0489,-4.0489,-4.0489,-4.0489,-4.0489,-4.0489,-3.9945,-3.8973,-3.7586,-3.5423,-3.43,-3.4192,-3.3917,-3.3807,-3.3807,-3.3807,-3.3807,-3.3807,-3.3807,-3.3807,-3.3743,-3.3071,-3.2527,-3.2077,-3.1568,-3.0298,-2.8816,0.0,0.0,0.0,0.0,0.0,0.0,0.0,0.0,0.0,0.0,0.0,0.0,0.0,0.0,0.0,0.0,0.0,0.0,0.0,0.0,-2.3817,-2.3638,-2.5551,-2.726,-2.8639,-2.9689,-3.0662,-3.1561,-3.2584,-3.3588,-3.4578,-3.5899,-3.6945,-3.7771,-3.9111,-3.9863,-4.0139,-3.9827,-3.9405,-3.8817,-3.7477,-3.6285,-3.5018,-3.2339,-3.0425,0.0,0.0,0.0,0.0,0.0,0.0,0.0,-2.7498,-2.814,-2.8794,-3.0737,-3.2564,-3.4814,-3.8757,-4.1643,-4.3874,-4.5297,-4.7548,-4.9163,-4.8298,-4.8529,-4.8375,-4.6374,-4.5047,-4.3816,-4.2431,-4.1681,-4.147,-4.2066,-4.2354,-4.2835,-4.3739,-4.3605,-4.3028,-4.197,-4.1816,-4.1393,0.0,0.0,0.0,-3.9681,-4.0008,-4.0277,-4.0489,-4.0489,-4.0489,-4.0489,-4.0489,-4.0457,-4.0356,-4.0081,-3.8899,-3.6873,-3.5391,-3.4376,-3.3807,-3.3807,-3.3807,-3.3807,-3.3807,-3.3807,-3.3807,-3.3807,-3.3707,-3.355,-3.3105,-3.2681,-3.2213,-3.1733,-3.0509,-2.8975,0.0,0.0,0.0,0.0,0.0,0.0,0.0,0.0,0.0,0.0,0.0,0.0,0.0,0.0,0.0,0.0,0.0,0.0,0.0,0.0,0.0,-2.2003,-2.3508,-2.5102,-2.6632,-2.7477,-2.8425,-2.9492,-2.9528,-3.0137,-3.1249,-3.2049,-3.2881,-3.3688,-3.4513,-3.532,-3.6064,-3.5238,-3.4844,-3.4734,-3.3899,-3.2614,-3.1035,-2.9439,0.0,0.0,0.0,0.0,0.0,0.0,0.0,0.0,0.0,-2.8957,-3.1987,-3.2852,-3.5526,-3.8911,-4.2258,-4.3855,-4.5143,-4.7567,-4.8798,-4.9163,-4.8298,-4.8009,-4.7201,-4.4701,-4.2777,-4.1277,0.0,0.0,-3.8546,-4.0162,-3.9931,-4.0412,-4.2874,-4.2527,-4.2566,0.0,0.0,0.0,0.0,0.0,0.0,-4.0642,-4.1354,-4.147,-4.0662,-4.0585,-4.0566,-4.0566,-4.0508,-4.0372,-4.0101,-3.9659,-3.8378,-3.6303,-3.6211,-3.533,-3.3807,-3.3807,-3.3807,-3.3807,-3.3807,-3.3807,-3.3807,-3.378,-3.355,-3.3136,-3.2648,-3.2196,-3.1752,-3.1351,-3.026,-2.8901,0.0,0.0,0.0,0.0,0.0,0.0,0.0,0.0,0.0,0.0,0.0,0.0,0.0,0.0,0.0,0.0,0.0,0.0,0.0,0.0,0.0,0.0,0.0,0.0,0.0,0.0,0.0,-2.6647,-2.7245,-2.8013,-2.8963,-2.9764,-3.0685,-3.1674,-3.2538,-3.3141,-3.3532,-3.333,-3.2871,-3.2192,0.0,-2.9622,-2.8539,0.0,0.0,0.0,0.0,0.0,0.0,0.0,0.0,0.0,0.0,-3.1289,-3.3853,-3.5295,-3.8161,-4.1296,-4.3412,-4.599,-4.8259,-4.8913,-4.924,-4.9163,-4.8298,-4.6624,-4.4741,-4.2883,-4.0095,-3.7757,0.0,0.0,0.0,-3.9431,-4.1527,0.0,-4.4778,-4.4759,0.0,-4.4335,0.0,-4.3431,-4.2835,-4.3104,0.0,0.0,-4.2047,-4.1989,-4.2412,-4.1816,-4.147,-4.147,-4.0835,-4.0372,-4.0101,-3.8346,-3.7047,-3.6266,-3.5018,-3.4211,-3.3807,-3.3807,-3.3807,-3.3807,-3.3807,-3.3807,-3.378,-3.347,-3.3286,-3.3105,-3.2298,-3.1933,-3.1752,-3.1351,-3.0017,-2.8412,0.0,0.0,0.0,0.0,0.0,0.0,0.0,0.0,0.0,0.0,0.0,0.0,0.0,0.0,0.0,0.0,0.0,0.0,0.0,0.0,0.0,0.0,0.0,0.0,0.0,0.0,0.0,0.0,0.0,0.0,-2.5709,-2.648,-2.7421,-2.8506,-2.9004,-2.9497,-2.9953,-2.9586,0.0,0.0,0.0,0.0,0.0,0.0,0.0,0.0,0.0,0.0,0.0,0.0,0.0,-3.1403,-3.2656,-3.4836,-3.7373,-3.9431,0.0,-4.4951,-4.6644,-4.9048,-5.0971,-5.0587,-5.0221,-4.9356,-4.6971,-4.5047,-4.2896,-3.9775,-3.7256,0.0,-3.4603,-3.5199,0.0,0.0,0.0,0.0,-4.422,-4.4489,-4.4586,0.0,-4.4874,0.0,-4.4239,-4.4605,-4.4682,0.0,-4.3393,-4.297,-4.3085,-4.2643,-4.22,-4.1816,-4.1335,-4.0686,-3.988,-3.8352,-3.7156,-3.6285,-3.5349,-3.4504,-3.3807,-3.3807,-3.3807,-3.3807,-3.3807,-3.3807,-3.378,-3.3375,-3.3086,-3.2809,-3.2092,-3.1696,-3.1473,-3.0934,-2.9671,-2.8184,0.0,0.0,0.0,0.0,0.0,0.0,0.0,0.0,0.0,0.0,0.0,0.0,0.0,0.0,0.0,0.0,0.0,0.0,0.0,0.0,0.0,0.0,0.0,0.0,0.0,0.0,0.0,0.0,0.0,0.0,0.0,0.0,0.0,0.0,0.0,0.0,0.0,0.0,0.0,0.0,0.0,0.0,0.0,0.0,0.0,0.0,0.0,0.0,0.0,0.0,-3.2431,-3.3918,-3.6364,-3.9068,-4.1777,-4.3989,-4.6374,-4.8625,-5.026,-5.176,-5.2683,-5.1933,-5.0952,-4.9125,-4.5066,-4.3181,-4.0973,-3.6373,0.0,-3.3577,-3.2817,-3.2935,-3.3961,-3.6469,0.0,-3.9662,-4.297,-4.3431,-4.397,-4.5432,-4.5586,-4.5586,-4.5586,-4.5586,-4.5586,-4.5586,-4.4893,-4.4162,-4.347,-4.3316,-4.278,-4.1767,-4.1596,-4.0826,-3.9402,-3.8692,-3.7624,-3.6138,-3.6009,-3.5202,-3.3807,-3.3807,-3.3807,-3.3807,-3.3807,-3.378,-3.3698,-3.3273,-3.2809,-3.235,-3.1897,-3.1507,-3.1106,-3.0378,-2.9309,-2.8148,0.0,0.0,0.0,0.0,0.0,0.0,0.0,0.0,0.0,0.0,-1.3768,-1.3735,0.0,0.0,0.0,0.0,0.0,0.0,0.0,0.0,0.0,0.0,0.0,0.0,0.0,0.0,0.0,0.0,0.0,0.0,0.0,0.0,0.0,0.0,0.0,0.0,0.0,0.0,0.0,0.0,0.0,0.0,0.0,0.0,0.0,0.0,0.0,0.0,0.0,0.0,-3.5095,-3.8458,-4.0303,-4.3145,-4.5874,-4.6317,-4.774,-4.9394,-5.0414,-5.0894,-5.1087,-5.0952,-4.9221,-4.6817,-4.3951,-4.0499,0.0,0.0,-3.2779,-3.1137,-3.1033,-3.2647,-3.4814,-3.7353,0.0,0.0,0.0,0.0,-4.5259,0.0,0.0,-4.5586,-4.5586,-4.5586,0.0,0.0,-4.5451,-4.5297,-4.5163,-4.447,-4.3249,-4.1437,-4.0473,-3.941,-3.8196,-3.7211,-3.6211,-3.521,-3.4559,-3.4082,-3.3807,-3.3807,-3.3807,-3.3807,-3.3807,-3.3605,-3.3268,-3.283,-3.2332,-3.1897,-3.1487,-3.1252,-3.1106,-3.0378,-2.9374,-2.843,0.0,0.0,0.0,0.0,0.0,0.0,0.0,-1.3971,-1.4242,-1.4986,-1.4896,-1.4864,-1.5187,-1.5658,-1.6075,0.0,0.0,0.0,0.0,0.0,0.0,0.0,0.0,0.0,0.0,0.0,-2.0142,-1.9993,0.0,-2.1132,-2.1826,-2.2364,-2.3084,-2.3976,-2.3976,-2.4054,0.0,0.0,0.0,-2.419,-2.419,-2.419,0.0,0.0,0.0,0.0,0.0,0.0,0.0,0.0,-3.416,-3.8007,-4.1873,-4.4855,-4.7067,-4.7952,-4.9394,-5.0894,-5.176,-5.2318,-5.2452,-5.1548,-4.9086,-4.5893,-4.2008,0.0,0.0,0.0,-3.0424,-2.939,-2.9833,0.0,0.0,0.0,0.0,0.0,0.0,0.0,0.0,0.0,0.0,0.0,0.0,-4.5586,-4.5586,-4.5586,-4.5586,-4.5586,-4.5586,-4.4374,-4.3227,-4.2276,-4.0507,-3.9133,-3.8164,-3.735,-3.6285,-3.499,-3.4605,-3.4211,-3.3807,-3.3807,-3.3807,-3.3807,-3.3807,-3.3567,-3.3163,-3.2702,-3.223,-3.1752,-3.1351,-3.119,-3.1106,-3.0378,-2.9576,-2.8918,0.0,0.0,0.0,0.0,0.0,0.0,0.0,-1.4494,-1.4834,-1.5714,-1.593,-1.6044,-1.62,-1.6361,-1.6571,0.0,0.0,0.0,0.0,0.0,0.0,0.0,0.0,0.0,0.0,0.0,0.0,-1.8988,-1.978,0.0,0.0,0.0,0.0,0.0,-2.4116,-2.419,-2.419,-2.419,0.0,0.0,0.0,-2.419,0.0,0.0,0.0,0.0,0.0,0.0,0.0,0.0,-3.2045,-3.5315,-4.0508,-4.4066,-4.6567,-4.7702,-4.9625,-5.1548,-5.2433,-5.3164,-5.3318,-5.176,-4.8836,-4.5009,-3.9892,-3.6161,0.0,0.0,-2.8539,-2.8357,-2.9148,0.0,-3.2321,0.0,-3.5911,0.0,0.0,0.0,0.0,0.0,0.0,0.0,-4.5586,-4.5586,0.0,-4.5586,-4.5586,-4.5509,-4.5316,-4.4066,-4.3165,-4.2729,-4.0935,-3.9365,-3.8131,-3.7664,-3.6592,-3.494,-3.486,-3.4502,-3.3865,-3.3842,-3.3807,-3.3807,-3.3707,-3.3444,-3.3015,-3.2553,-3.2074,-3.1623,-3.1312,-3.119,-3.1106,-3.0378,-2.985,-2.9501,0.0,0.0,0.0,0.0,0.0,0.0,0.0,-1.4494,-1.502,-1.6411,-1.6199,-1.6253,-1.7152,-1.7131,-1.6868,0.0,0.0,0.0,0.0,0.0,0.0,0.0,0.0,0.0,0.0,0.0,0.0,-1.925,-1.9359,0.0,0.0,0.0,0.0,0.0,0.0,-2.419,-2.419,-2.419,0.0,0.0,0.0,0.0,0.0,0.0,0.0,0.0,0.0,0.0,0.0,0.0,0.0,-3.1371,-3.4218,-3.945,-4.4432,-4.3855,0.0,0.0,-5.0683,-5.0991,-5.0818,-4.9875,-4.7067,-4.3201,-3.8104,0.0,0.0,-2.8747,-2.8139,-2.8345,-2.9157,-2.996,-3.1371,0.0,0.0,-3.6815,0.0,0.0,0.0,0.0,0.0,0.0,-4.5586,-4.5586,-4.5586,-4.5586,-4.5586,-4.524,-4.4451,-4.4259,-4.3345,-4.1533,-4.1264,-3.9884,-3.7263,-3.7159,-3.6346,-3.4724,-3.4423,-3.4237,-3.4157,-3.3899,-3.3807,-3.378,-3.3419,-3.2983,-3.2535,-3.2074,-3.164,-3.1252,-3.123,-3.119,-3.1106,-3.0378,-3.0145,-3.0096,0.0,0.0,0.0,0.0,0.0,0.0,-1.4394,-1.4885,-1.5528,-1.6563,-1.7041,-1.7448,-1.7842,-1.7402,-1.7076,-1.7011,0.0,0.0,0.0,0.0,0.0,0.0,0.0,0.0,0.0,0.0,-1.8861,-1.8415,-1.9173,0.0,0.0,0.0,0.0,0.0,0.0,-2.3933,-2.3492,-2.3492,0.0,0.0,0.0,0.0,0.0,0.0,0.0,0.0,0.0,0.0,0.0,0.0,0.0,0.0,-2.8698,-3.2468,0.0,0.0,-4.422,-4.6971,-4.9894,-5.1048,-5.1106,-4.974,-4.6067,-4.1742,-3.7679,0.0,-2.9766,-2.7798,-2.7338,-2.7588,-2.8431,-2.9148,-3.0294,-3.2352,0.0,0.0,-3.7661,0.0,0.0,0.0,0.0,0.0,0.0,0.0,-4.5374,-4.4855,-4.4816,-4.422,-4.2874,-4.3297,-4.3205,-4.2408,-4.1227,-3.9566,-3.7414,-3.7196,-3.6279,-3.4694,-3.4572,-3.4408,-3.4184,-3.4097,-3.3817,-3.3441,-3.3262,-3.2784,-3.2057,-3.1897,-3.1565,-3.119,-3.119,-3.119,-3.1157,-3.0869,-3.0819,-3.0794,0.0,0.0,0.0,0.0,0.0,-1.365,-1.4394,-1.5138,-1.5849,-1.6597,-1.7325,-1.7883,-1.817,-1.7265,-1.6841,-1.7256,-1.7569,0.0,0.0,0.0,0.0,0.0,0.0,0.0,0.0,0.0,-1.9037,-1.8146,-1.9286,-2.016,0.0,0.0,-2.2758,-2.3859,0.0,0.0,0.0,0.0,0.0,0.0,0.0,0.0,0.0,0.0,0.0,0.0,0.0,0.0,0.0,0.0,0.0,0.0,0.0,0.0,0.0,0.0,-4.0873,-4.422,-4.724,-4.9394,-5.0375,-4.8682,-4.4643,-4.0185,0.0,0.0,-2.848,-2.6845,-2.6876,-2.7368,-2.7984,-2.8856,-2.989,-3.1121,0.0,-3.2006,-3.5468,0.0,0.0,0.0,0.0,-4.309,0.0,-4.5143,-4.5007,-4.4355,-4.4085,-4.3431,-4.2258,-4.2527,-4.2604,-4.2335,-4.1203,-3.9659,-3.7745,-3.7738,-3.6787,-3.4944,-3.502,-3.4809,-3.4336,-3.4161,-3.3749,-3.3176,-3.3037,-3.2555,-3.1789,-3.166,-3.1545,-3.1389,-3.1269,-3.1252,-3.1351,-3.1252,-3.119,-3.1157,0.0,0.0,0.0,0.0,0.0,0.0,-1.4394,-1.5138,-1.5849,-1.6597,-1.6716,-1.7092,-1.808,-1.6658,-1.6021,-1.7014,-1.6864,0.0,0.0,0.0,0.0,0.0,0.0,0.0,0.0,0.0,-1.9002,-1.9002,-1.9795,-2.0192,-2.0246,-2.2118,-2.3015,-2.3052,0.0,0.0,0.0,0.0,0.0,0.0,0.0,0.0,0.0,0.0,0.0,0.0,0.0,0.0,0.0,0.0,0.0,0.0,0.0,0.0,0.0,0.0,-3.5892,-4.1854,-4.1893,-4.4951,-4.774,-4.6047,-4.245,-3.8454,0.0,0.0,-2.7644,-2.5948,-2.6935,-2.8092,-2.8099,-2.9356,-3.0379,-3.0398,-3.1141,0.0,-3.3987,0.0,0.0,0.0,0.0,-4.1506,-4.3248,-4.4085,-4.4449,-4.4316,-4.3566,-4.3104,-4.3085,-4.2277,-4.1412,-4.0546,-4.1335,-4.0566,-3.8027,-3.8854,-3.8007,-3.5493,-3.5761,-3.5475,-3.4669,-3.4083,-3.356,-3.3166,-3.2727,-3.2248,-3.1789,-3.1389,-3.1449,-3.1752,-3.1351,-3.1449,-3.1752,-3.1351,-3.119,-3.1089,0.0,0.0,0.0,0.0,0.0,0.0,0.0,-1.5138,-1.568,-1.5917,-1.6394,-1.6618,-1.6427,-1.5484,-1.499,-1.5304,-1.5705,0.0,0.0,0.0,0.0,0.0,0.0,0.0,0.0,0.0,-1.9165,-1.9556,-1.9993,-2.077,-2.1874,-2.2629,-2.3381,-2.4039,-2.4299,-2.4193,0.0,0.0,0.0,0.0,0.0,0.0,0.0,0.0,0.0,0.0,0.0,0.0,0.0,0.0,0.0,0.0,0.0,0.0,0.0,0.0,0.0,0.0,-3.77,-3.9738,-4.0931,-3.9796,-3.7247,-3.4438,-3.2259,0.0,-2.6966,-2.589,-2.654,-2.7269,-2.7219,-2.851,-2.9771,-3.0302,-3.1172,0.0,0.0,0.0,0.0,0.0,-4.2692,-4.4478,0.0,0.0,-4.4872,-4.3585,-4.3239,-4.2585,-4.1393,-4.1066,-4.1066,-4.1373,-4.0531,-3.9415,-3.8007,-3.7666,-3.6839,-3.5493,-3.5405,-3.5115,-3.4679,-3.3974,-3.3488,-3.3169,-3.2692,-3.2417,-3.2282,-3.2144,-3.2144,-3.223,-3.1806,-3.1696,-3.1752,-3.1351,-3.119,-3.1157,0.0,0.0,0.0,0.0,0.0,0.0,0.0,-1.4952,-1.5494,-1.5223,-1.5815,-1.6103,-1.5646,-1.4738,-1.4245,-1.4479,-1.4704,0.0,0.0,0.0,0.0,0.0,0.0,0.0,0.0,-1.8983,-1.9431,-2.0046,-2.0572,-2.148,-2.2753,-2.3309,-2.3893,-2.4512,-2.4575,-2.4411,0.0,0.0,0.0,0.0,0.0,0.0,-2.5141,0.0,0.0,0.0,0.0,0.0,0.0,0.0,0.0,0.0,0.0,0.0,0.0,0.0,-2.7274,0.0,0.0,-3.5724,-3.693,-3.6051,-3.3939,0.0,0.0,0.0,-2.6264,-2.5792,-2.6348,-2.6887,-2.6862,-2.8144,-2.9398,-2.9886,-3.1025,0.0,0.0,0.0,0.0,-4.0638,0.0,0.0,0.0,-4.4892,-4.4393,-4.3181,-4.2489,-4.1643,-4.0546,-4.0489,-4.0604,-4.0857,-3.9842,-3.8723,-3.7526,-3.7296,-3.656,-3.5354,-3.5386,-3.5078,-3.4494,-3.3478,-3.2921,-3.271,-3.1956,-3.1777,0.0,-3.2042,-3.2349,-3.2713,-3.2057,-3.1915,-3.2004,-3.1411,-3.119,-3.119,0.0,0.0,0.0,0.0,0.0,0.0,0.0,-1.4631,-1.5274,-1.4616,-1.5105,-1.5494,-1.5462,-1.435,-1.3816,-1.436,0.0,0.0,0.0,0.0,0.0,0.0,0.0,0.0,0.0,-1.9196,-1.9711,-2.0576,-2.14,-2.2244,-2.3107,-2.4058,-2.4512,-2.4528,-2.4731,-2.4891,0.0,0.0,0.0,0.0,0.0,0.0,0.0,0.0,0.0,0.0,0.0,0.0,0.0,0.0,0.0,0.0,0.0,0.0,0.0,0.0,0.0,0.0,0.0,0.0,0.0,0.0,0.0,0.0,0.0,0.0,0.0,0.0,0.0,-2.6855,-2.6973,-2.8201,-2.9272,-2.9459,-3.0898,0.0,0.0,0.0,0.0,0.0,-4.2851,0.0,-4.3432,-4.346,-4.339,-4.3124,-4.1546,-4.0566,-4.0489,-4.045,-4.0046,-3.9227,-3.915,-3.8339,-3.6704,-3.7464,-3.6915,-3.5102,-3.5589,-3.5227,-3.4057,-3.2739,-3.2049,-3.1887,-3.0759,-3.0694,-3.1395,-3.1395,-3.2125,-3.3136,-3.2264,-3.2127,-3.2384,-3.1562,-3.123,-3.119,0.0,0.0,0.0,0.0,0.0,0.0,0.0,0.0,0.0,0.0,-1.4739,-1.4584,-1.4109,-1.3699,-1.3497,0.0,0.0,0.0,0.0,0.0,0.0,0.0,0.0,0.0,0.0,-1.9274,-2.0005,-2.1492,-2.1711,-2.252,-2.3933,-2.4317,-2.4575,-2.4746,-2.4891,-2.5053,0.0,0.0,0.0,0.0,0.0,0.0,0.0,0.0,0.0,0.0,-2.5428,-2.5447,0.0,0.0,0.0,0.0,0.0,0.0,0.0,0.0,-2.553,-2.5755,-2.6533,0.0,-2.7847,-2.7634,-2.7179,0.0,0.0,0.0,0.0,0.0,0.0,0.0,0.0,0.0,0.0,0.0,0.0,0.0,0.0,0.0,0.0,-4.2802,-4.4616,-4.5136,-4.3683,-4.4051,-4.4061,-4.3253,-4.214,-4.12,-4.0527,-3.9912,-3.92,-3.8339,-3.7651,-3.7113,-3.6709,-3.6281,-3.5767,-3.5096,-3.5021,-3.4386,-3.326,-3.2682,-3.2092,-3.1521,-3.1196,-3.153,-3.2293,-3.2293,-3.2821,-3.3606,-3.3075,-3.2713,-3.2417,-3.1861,-3.147,-3.119,0.0,0.0,0.0,0.0,0.0,0.0,0.0,0.0,0.0,0.0,0.0,0.0,0.0,0.0,0.0,0.0,0.0,0.0,0.0,0.0,0.0,0.0,0.0,0.0,-1.9289,-1.9305,-1.9932,-2.1198,-2.1602,-2.248,-2.3803,-2.4358,-2.4727,-2.4904,-2.5053,-2.5203,0.0,0.0,0.0,0.0,-2.5303,0.0,0.0,0.0,0.0,0.0,-2.5476,-2.5488,0.0,-2.5543,-2.5558,-2.5544,0.0,0.0,0.0,0.0,-2.5626,-2.564,-2.564,-2.5913,-2.6183,-2.6183,-2.6225,-2.6237,0.0,0.0,0.0,0.0,0.0,0.0,0.0,0.0,0.0,0.0,-3.2859,0.0,0.0,0.0,0.0,-4.3314,-4.4165,-4.4414,-4.418,-4.4187,-4.3779,-4.273,-4.1813,-4.1046,-4.0527,-3.9754,-3.8907,-3.8027,-3.7142,-3.6526,-3.6152,-3.5608,-3.5187,-3.4898,-3.4603,-3.4089,-3.3336,-3.2643,-3.2173,-3.1923,-3.1369,-3.148,-3.2045,-3.2045,-3.2302,-3.2672,-3.2421,-3.2161,-3.1923,-3.1649,-3.1389,-3.119,0.0,0.0,0.0,0.0,0.0,0.0,0.0,0.0,0.0,0.0,0.0,0.0,0.0,0.0,0.0,0.0,0.0,0.0,0.0,0.0,0.0,0.0,0.0,-1.8437,-1.9271,-1.9445,-1.9924,-2.0686,-2.1613,-2.2541,-2.3505,-2.4407,-2.4904,-2.5065,-2.5243,-2.5322,0.0,0.0,-2.5322,-2.5322,-2.5322,0.0,0.0,0.0,0.0,0.0,0.0,0.0,0.0,-2.5599,-2.5614,-2.5638,-2.5672,0.0,0.0,0.0,0.0,0.0,-2.5686,-2.6409,-2.7107,-2.6855,-2.6797,-2.6797,0.0,0.0,0.0,0.0,0.0,0.0,0.0,0.0,0.0,0.0,0.0,0.0,-3.9961,-3.9082,-3.9434,-4.3066,-4.2969,-4.3027,-4.4141,-4.373,-4.301,-4.2106,-4.12,-4.06,-4.035,-3.9542,-3.8638,-3.7637,-3.6766,-3.5911,-3.5067,-3.4957,-3.477,-3.449,-3.418,-3.3892,-3.3587,-3.269,-3.2337,-3.2368,-3.1311,-3.1074,-3.1384,-3.1256,-3.1249,-3.1331,-3.1387,-3.1299,-3.1192,-3.1291,-3.1274,-3.1196,0.0,0.0,0.0,0.0,0.0,0.0,0.0,0.0,0.0,0.0,0.0,0.0,0.0,0.0,0.0,0.0,0.0,0.0,0.0,0.0,0.0,0.0,-1.9149,-1.9146,-1.9305,-2.0129,-2.0908,-2.1584,-2.2709,-2.3607,-2.4325,-2.4761,-2.5115,-2.534,-2.538,-2.5428,-2.5466,-2.5466,-2.5466,-2.5466,-2.5466,0.0,0.0,0.0,0.0,0.0,0.0,0.0,0.0,-2.5676,-2.5675,-2.5696,-2.5703,0.0,0.0,0.0,0.0,0.0,-2.5608,-2.6759,-2.7608,-2.6247,-2.5898,-2.5898,0.0,0.0,0.0,0.0,0.0,0.0,0.0,0.0,0.0,0.0,0.0,-3.8359,0.0,0.0,-4.1855,-4.2519,-4.3125,-4.3047,-4.1875,-4.2207,-4.2421,-4.2271,-4.1304,-4.0369,-3.9595,-3.87,-3.7488,-3.5932,-3.5039,-3.4098,-3.3051,-3.3686,-3.386,-3.3603,-3.3315,-3.305,-3.2787,-3.2972,-3.25,-3.1543,-3.1048,-3.1048,-3.1347,-3.0668,-3.0629,-3.1057,-3.1647,-3.1426,-3.0803,-3.1638,-3.1647,-3.1185,0.0,0.0,0.0,0.0,0.0,0.0,0.0,0.0,0.0,0.0,0.0,0.0,0.0,0.0,0.0,0.0,0.0,0.0,0.0,0.0,0.0,-1.9271,-1.9305,-1.9305,-1.9305,-2.0303,-2.0901,-2.1106,-2.2712,-2.3649,-2.3975,-2.4815,-2.5271,-2.539,-2.5445,-2.5478,-2.5498,-2.5498,-2.5498,-2.5498,0.0,0.0,0.0,0.0,0.0,0.0,0.0,0.0,0.0,0.0,-2.5703,-2.5703,-2.5703,0.0,0.0,0.0,0.0,0.0,-2.5563,-2.6109,-2.6521,-2.5816,-2.6718,-2.7637,0.0,0.0,0.0,0.0,0.0,0.0,0.0,0.0,-3.2773,-3.6328,0.0,-3.9707,-4.2598,-4.1465,-4.0859,-4.2246,-4.1953,-4.1699,-4.1836,-4.1758,-4.168,-4.1601,-4.0223,-3.9199,-3.8777,-3.7411,-3.6084,-3.4841,-3.3862,-3.2871,-3.1911,-3.2014,-3.2238,-3.2518,-3.2274,-3.2305,-3.2603,-3.2346,-3.2163,-3.2027,-3.1389,-3.0854,-3.0425,-3.0265,-2.994,-2.9584,-3.0163,-3.0379,-3.0232,-2.9472,-2.903,-2.8757,0.0,0.0,0.0,0.0,0.0,0.0,0.0,0.0,0.0,0.0,0.0,0.0,0.0,0.0,0.0,0.0,0.0,0.0,0.0,0.0,-1.932,-1.9365,-1.932,-1.9305,-1.9305,-2.0303,-2.0819,-2.0857,-2.2689,-2.3689,-2.3955,-2.4933,-2.5428,-2.5457,-2.5498,-2.5537,-2.5551,-2.5551,-2.5551,-2.5551,0.0,0.0,0.0,0.0,0.0,0.0,0.0,0.0,0.0,0.0,0.0,0.0,0.0,0.0,0.0,-2.5614,-2.5582,-2.5543,-2.5486,-2.562,-2.5735,-2.5611,0.0,0.0,0.0,0.0,0.0,0.0,0.0,0.0,0.0,-3.207,0.0,-3.8848,-3.9941,-4.0781,-4.2461,-4.0859,-4.0215,-4.2168,-4.1094,-4.0625,-4.1719,-4.1269,-4.0759,-4.0424,-3.9097,-3.8096,-3.7616,-3.6265,-3.4918,-3.3641,-3.2766,-3.1768,-3.0674,-3.0227,-3.0522,-3.151,-3.1249,-3.1544,-3.2302,-3.1678,-3.1733,-3.2284,-3.1364,-3.0436,-2.9583,-2.9639,-2.9057,-2.8183,-2.8788,-2.9559,-3.0043,-2.7621,-2.669,-2.6712,0.0,0.0,0.0,0.0,0.0,0.0,0.0,0.0,0.0,0.0,0.0,0.0,0.0,0.0,0.0,0.0,0.0,0.0,0.0,0.0,-1.938,-1.9569,-1.9394,-1.9305,-1.9305,-2.0303,-2.1152,-2.1883,-2.3171,-2.4296,-2.5264,-2.536,-2.5466,-2.5582,-2.5582,-2.5628,-2.5683,-2.5683,-2.5683,-2.5683,-2.5683,0.0,0.0,0.0,0.0,0.0,0.0,0.0,0.0,0.0,0.0,0.0,0.0,0.0,-2.561,-2.5592,-2.5505,-2.5409,-2.5409,-2.5947,-2.637,-2.5687,-2.5703,0.0,0.0,0.0,0.0,-3.2559,0.0,0.0,0.0,-3.3437,-3.5449,-3.8242,-4.0059,-4.1699,-4.3379,-4.2754,-4.2187,-4.2383,-4.1621,-4.084,-4.0156,-4.0039,-3.9595,-3.867,-3.8415,-3.7554,-3.5875,-3.5611,-3.4383,-3.1968,-3.1546,-3.0529,-2.8723,-2.8427,-2.9096,-3.0674,-3.0406,-3.0705,-3.1476,-3.1421,-3.1421,-3.1421,-3.0257,-2.9682,-2.9521,-2.8477,-2.7789,-2.7483,-2.8592,-2.988,-3.0768,-2.7772,-2.6689,-2.6691,0.0,0.0,0.0,0.0,0.0,0.0,0.0,0.0,0.0,0.0,0.0,0.0,0.0,0.0,0.0,0.0,0.0,0.0,0.0,0.0,-1.938,-1.9582,-1.9413,-1.939,-1.9606,-2.0396,-2.1185,-2.2006,-2.3752,-2.4885,-2.5409,-2.5486,-2.5543,-2.5601,-2.5638,-2.5681,-2.5703,-2.5703,-2.5703,-2.5703,-2.5703,-2.5703,0.0,0.0,0.0,0.0,0.0,0.0,0.0,0.0,-2.5703,-2.5681,-2.5649,-2.5608,-2.5582,-2.5505,-2.5447,-2.539,-2.5341,-2.5967,-2.6409,-2.564,0.0,0.0,0.0,-3.1211,-3.2246,-3.3203,-3.4687,0.0,0.0,0.0,-3.6992,-3.9062,-4.043,-4.1797,-4.3457,-4.2949,-4.2207,-4.1719,-4.0918,-4.0059,-3.918,-3.8561,-3.8064,-3.7687,-3.6503,-3.5292,-3.4121,-3.3485,-3.2372,-3.0699,-3.0418,-2.9635,-2.8258,-2.8029,-2.7978,-2.8125,-2.8533,-2.9384,-3.0632,-3.0136,-3.0033,-3.022,-2.9267,-2.8721,-2.8477,-2.7591,-2.7134,-2.708,-2.7992,-2.8337,-2.8269,-2.713,-2.6707,-2.672,0.0,0.0,0.0,0.0,0.0,0.0,0.0,0.0,0.0,0.0,0.0,0.0,0.0,0.0,0.0,0.0,0.0,0.0,-1.9305,-1.9305,-1.9409,-1.9643,-1.9495,-1.9545,-1.9858,-2.054,-2.1315,-2.2195,-2.4201,-2.528,-2.5421,-2.5543,-2.5608,-2.5628,-2.5687,-2.5703,-2.5703,-2.5703,-2.5703,-2.5703,-2.5703,-2.5703,0.0,0.0,0.0,0.0,0.0,0.0,0.0,0.0,-2.5665,-2.5668,-2.5594,-2.5551,-2.5524,-2.5428,-2.539,-2.537,-2.5303,-2.5736,-2.6053,0.0,0.0,0.0,0.0,-3.2739,-3.4222,-3.5878,-3.6797,0.0,-3.6152,0.0,0.0,0.0,-3.9805,-4.0879,-4.2305,-4.1758,-4.0996,-4.0449,-3.9844,-3.9021,-3.7858,-3.7172,-3.6543,-3.5944,-3.4674,-3.3442,-3.2305,-3.1578,-3.0707,-2.9651,-2.9103,-2.8464,-2.7736,-2.7255,-2.6759,-2.6227,-2.6778,-2.775,-2.9053,-2.8375,-2.8294,-2.8608,-2.7803,-2.7414,-2.7255,-2.6659,-2.6188,-2.59,-2.6417,-2.6354,-2.6056,-2.6541,-2.6121,-2.5302,0.0,0.0,0.0,0.0,0.0,0.0,0.0,0.0,0.0,0.0,0.0,0.0,0.0,0.0,0.0,0.0,0.0,0.0,-1.9305,-1.9305,-1.9448,-1.9797,-1.9669,-1.9726,-2.0003,-2.0725,-2.1609,-2.2618,-2.4484,-2.5437,-2.5508,-2.5564,-2.5641,-2.5703,-2.5703,-2.5703,-2.5703,-2.5703,-2.5703,-2.5703,-2.5703,-2.5703,-2.5703,0.0,0.0,0.0,0.0,0.0,0.0,0.0,-2.5601,-2.5591,-2.5523,-2.5452,-2.5409,-2.5409,-2.5341,-2.5303,-2.5303,-2.5303,0.0,0.0,0.0,0.0,0.0,-3.3884,-3.5988,-4.1206,0.0,-3.7031,-3.6172,-3.5312,0.0,-3.7012,-3.8027,-3.8887,-3.9746,-3.9141,-3.8594,-3.8555,-3.8574,-3.7864,-3.6063,-3.5871,-3.5102,-3.3211,-3.3075,-3.2266,-3.0456,-3.0171,-2.9673,-2.8798,-2.7556,-2.6898,-2.6898,-2.5909,-2.5403,-2.5403,-2.5403,-2.5805,-2.6573,-2.6236,-2.6277,-2.6551,-2.5828,-2.5686,-2.5967,-2.5638,-2.4818,-2.3779,-2.3802,-2.4062,-2.4655,-2.6121,-2.4805,-2.2316,0.0,0.0,0.0,0.0,0.0,0.0,0.0,0.0,0.0,0.0,0.0,0.0,0.0,0.0,0.0,0.0,0.0,0.0,-1.9305,-1.9423,-1.9604,-1.9778,-1.9762,-1.9888,-2.0197,-2.1579,-2.267,-2.3449,-2.4802,-2.5476,-2.5508,-2.5564,-2.5641,-2.5703,-2.5644,-2.5664,-2.5703,-2.5703,-2.5703,-2.5703,-2.5703,-2.5703,-2.5703,0.0,0.0,0.0,0.0,0.0,0.0,0.0,0.0,0.0,-2.5453,-2.5427,-2.539,-2.5341,-2.5322,-2.5303,-2.5303,0.0,0.0,0.0,0.0,0.0,0.0,-3.4199,0.0,0.0,-3.8673,-3.707,-3.6816,-3.6641,0.0,-3.6406,-3.7129,-3.7773,-3.8027,-3.8291,-3.7783,-3.6004,-3.6287,-3.5938,-3.4171,-3.3412,-3.2536,-3.1352,-3.0662,-2.9743,-2.8496,-2.8375,-2.807,-2.7466,-2.7101,-2.6563,-2.5853,-2.5553,-2.5127,-2.4538,-2.4322,-2.4929,-2.6236,-2.6385,-2.6213,-2.5828,-2.5828,-2.5919,-2.5931,-2.5084,-2.392,-2.2739,-2.2757,-2.2849,-2.3013,-2.3452,-2.3029,-2.2282,0.0,0.0,0.0,0.0,0.0,0.0,0.0,0.0,0.0,0.0,0.0,0.0,0.0,0.0,0.0,0.0,0.0,0.0,0.0,-1.9527,-1.9682,-1.9869,-1.9824,-2.0253,-2.1185,-2.2256,-2.3342,-2.4443,-2.5148,-2.5495,-2.5508,-2.5564,-2.5635,-2.5703,-2.5638,-2.5644,-2.5703,-2.5703,-2.5703,-2.5703,-2.5703,-2.5703,-2.5703,0.0,0.0,0.0,0.0,0.0,0.0,0.0,0.0,0.0,-2.539,0.0,-2.5341,-2.5303,-2.5303,-2.5303,-2.5303,0.0,0.0,0.0,0.0,0.0,0.0,0.0,0.0,0.0,0.0,-3.7513,-3.7206,-3.6387,-3.5801,-3.5976,-3.584,-3.582,-3.6172,-3.628,-3.5757,-3.4236,-3.4168,-3.3697,-3.2264,-3.1341,-3.0417,-2.9529,-2.8943,-2.8173,-2.7139,-2.7009,-2.6793,-2.6413,-2.6043,-2.5689,-2.5403,-2.509,-2.4667,-2.4208,-2.3876,-2.4219,-2.5141,-2.5226,-2.5095,-2.4801,-2.5141,-2.5204,-2.5036,-2.4236,-2.3335,-2.2453,-2.2355,-2.2291,-2.2291,-2.2291,-2.2291,-2.232,0.0,0.0,0.0,0.0,0.0,0.0,0.0,0.0,0.0,0.0,0.0,0.0,0.0,0.0,0.0,0.0,0.0,0.0,0.0,0.0,-1.99,-2.0231,-2.0129,-2.0842,-2.2456,-2.2786,-2.3697,-2.5293,-2.5428,-2.5498,-2.5507,-2.5577,-2.5649,-2.5707,-2.5632,-2.5643,-2.5703,-2.5703,-2.5703,-2.5703,-2.5682,-2.5681,-2.5681,-2.5682,0.0,0.0,0.0,0.0,0.0,0.0,0.0,0.0,-2.5322,-2.5303,-2.5303,-2.5303,-2.5303,-2.5303,-2.5303,0.0,0.0,0.0,0.0,0.0,0.0,0.0,-4.1268,-4.0404,0.0,-3.8112,-3.7229,-3.5175,-3.4062,-3.543,-3.4258,-3.3418,-3.404,-3.3453,-3.2892,-3.2737,-3.209,-3.1268,-3.0352,-2.954,-2.8699,-2.7838,-2.7697,-2.7198,-2.6228,-2.5963,-2.5764,-2.5578,-2.4672,-2.4538,-2.5293,-2.4537,-2.417,-2.4208,-2.3795,-2.361,-2.3649,-2.3369,-2.3414,-2.3774,-2.4054,-2.3958,-2.3628,-2.3282,-2.2972,-2.2634,-2.2415,-2.231,-2.231,-2.231,-2.231,-2.231,0.0,0.0,0.0,0.0,0.0,0.0,0.0,0.0,0.0,0.0,0.0,0.0,0.0,0.0,0.0,0.0,0.0,0.0,0.0,0.0,-2.1265,-2.2007,-2.2115,-2.2028,-2.1739,-2.3149,-2.4072,-2.4456,-2.5159,-2.5534,-2.5578,-2.5593,-2.5644,-2.5707,-2.5633,-2.5644,-2.5703,-2.5703,-2.5703,-2.5702,-2.5632,-2.5615,-2.5619,-2.5552,-2.5499,0.0,0.0,0.0,0.0,0.0,0.0,0.0,-2.5303,-2.5303,-2.5303,-2.5303,-2.5303,-2.5303,0.0,-2.5947,0.0,0.0,0.0,0.0,0.0,-3.7522,-3.7599,-3.6796,-3.7488,-3.7791,-3.6292,-3.5662,-3.4824,-3.3203,-3.2617,-3.1938,-3.0699,-3.0839,-3.0598,-2.9274,-2.9461,-2.937,-2.8544,-2.7676,-2.7094,-2.6883,-2.6096,-2.5482,-2.5135,-2.4945,-2.4726,-2.4523,-2.432,-2.4281,-2.4447,-2.4028,-2.3937,-2.419,-2.3323,-2.3045,-2.3305,-2.3522,-2.3774,-2.4074,-2.3896,-2.3628,-2.3277,-2.2947,-2.2625,-2.2388,-2.2321,-2.231,-2.231,-2.231,-2.231,-2.2321,0.0,0.0,0.0,0.0,0.0,0.0,0.0,0.0,0.0,0.0,0.0,0.0,0.0,0.0,0.0,0.0,0.0,0.0,0.0,0.0,-2.1691,-2.256,-2.2335,-2.2324,-2.2642,-2.3256,-2.3995,-2.488,-2.5332,-2.5563,0.0,-2.5606,-2.5631,-2.5707,-2.5633,-2.5624,-2.5654,-2.5654,-2.5625,-2.5598,-2.5576,-2.5556,-2.5563,-2.5511,-2.5459,-2.5409,-2.5447,0.0,0.0,0.0,0.0,0.0,0.0,0.0,-2.5303,-2.5303,-2.5303,-2.5303,0.0,0.0,0.0,0.0,0.0,0.0,0.0,-3.5205,-3.4653,-3.3851,-3.5158,-3.5911,-3.421,-3.3678,-3.293,-3.1133,-3.0484,-2.9849,-2.8877,-2.9028,-2.8931,-2.8063,-2.7915,-2.7742,-2.7323,-2.6495,-2.5994,-2.5981,-2.5369,-2.4946,-2.4821,-2.4616,-2.4411,-2.4208,-2.419,-2.4113,-2.3958,-2.3795,-2.3714,-2.3714,-2.3021,-2.2797,-2.2972,-2.3141,-2.35,-2.3937,-2.3628,-2.3259,-2.2947,-2.2772,-2.2537,-2.231,-2.231,-2.231,-2.231,-2.2436,-2.25,-2.2476,0.0,0.0,0.0,0.0,0.0,0.0,0.0,0.0,0.0,0.0,0.0,0.0,0.0,0.0,0.0,0.0,0.0,0.0,0.0,0.0,0.0,-2.2851,-2.2421,-2.2748,-2.3941,-2.3563,-2.41,-2.5601,-2.5601,0.0,0.0,0.0,0.0,-2.5703,-2.5639,-2.5605,-2.5601,-2.5582,-2.5545,-2.549,-2.549,-2.5483,-2.5486,-2.5466,-2.5428,-2.539,-2.539,-2.5341,-2.5303,-2.5303,0.0,0.0,0.0,0.0,-2.5253,-2.5253,-2.5253,-2.5264,0.0,0.0,0.0,0.0,0.0,0.0,0.0,-3.2346,-3.2052,-3.1392,-3.2741,-3.3499,-3.178,-3.1002,-3.0293,-2.9219,-2.8382,-2.7798,-2.7605,-2.7509,-2.747,-2.7489,-2.6834,-2.64,-2.64,-2.5726,-2.5284,-2.5245,-2.5072,-2.4911,-2.4764,-2.4559,-2.4374,-2.4208,-2.419,-2.4036,-2.3692,-2.3649,-2.3459,-2.3189,-2.2873,-2.2695,-2.2695,-2.2695,-2.3045,-2.3588,-2.3117,-2.2779,-2.2504,-2.2453,-2.2312,-2.2124,-2.2124,-2.222,-2.2354,-2.2306,-2.2408,-2.2509,0.0,0.0,0.0,0.0,0.0,0.0,0.0,0.0,0.0,0.0,0.0,0.0,0.0,0.0,0.0,0.0,0.0,0.0,0.0,0.0,0.0,-2.4015,-2.4553,-2.4677,-2.4268,-2.4898,-2.5351,-2.5601,0.0,0.0,0.0,0.0,0.0,-2.5703,0.0,-2.5603,-2.5601,-2.5543,-2.5505,-2.5495,-2.5437,-2.5418,-2.5409,-2.5341,-2.5322,-2.5303,-2.5303,-2.5303,-2.5303,-2.5303,-2.5303,0.0,0.0,0.0,-2.5034,-2.5034,-2.5034,-2.5088,0.0,0.0,0.0,0.0,0.0,0.0,0.0,0.0,-2.9582,0.0,-3.0931,-3.1651,-2.997,-2.9629,-2.9082,-2.75,-2.7087,-2.6708,-2.5938,-2.5784,-2.5765,-2.5803,-2.5659,-2.5563,-2.5563,-2.5409,-2.5226,-2.5053,-2.4908,-2.4746,-2.4561,-2.4356,-2.4226,-2.419,-2.419,-2.4036,-2.3692,-2.3414,-2.3236,-2.3189,-2.2873,-2.2695,-2.2695,-2.2695,-2.2923,-2.32,-2.224,-2.1774,-2.1742,-2.149,-2.1366,-2.1356,-2.1356,-2.1883,-2.2505,-2.1184,-2.1307,-2.2023,0.0,0.0,0.0,0.0,0.0,0.0,0.0,0.0,0.0,0.0,0.0,0.0,0.0,0.0,0.0,0.0,0.0,0.0,0.0,0.0,0.0,-2.4909,-2.4838,-2.4853,-2.5022,-2.4927,-2.5135,-2.5659,0.0,0.0,0.0,-2.5703,-2.5703,0.0,0.0,0.0,0.0,-2.5505,-2.5466,-2.539,-2.537,-2.5341,-2.5341,-2.5303,-2.5303,-2.5303,-2.5303,-2.5303,-2.5303,-2.5303,-2.5303,-2.5274,-2.5203,0.0,0.0,0.0,-2.5088,0.0,0.0,0.0,0.0,0.0,0.0,0.0,-2.9052,0.0,-2.8357,-2.7941,-2.8466,-2.8772,-2.8087,-2.802,-2.7637,-2.6387,-2.6149,-2.5987,-2.5562,-2.546,-2.5449,-2.5429,-2.541,-2.5387,-2.5351,-2.5322,-2.5226,-2.5024,-2.4879,-2.4725,-2.4504,-2.4319,-2.419,-2.419,-2.419,-2.3941,-2.3422,-2.327,-2.3038,-2.2686,-2.2544,-2.2268,-2.1867,-2.1867,-2.203,-2.2275,-2.1798,-2.1505,-2.1327,-2.0755,-2.0788,-2.117,-2.0866,-2.1017,-2.1361,-2.1044,-2.1203,-2.1545,0.0,0.0,0.0,0.0,0.0,0.0,0.0,0.0,0.0,0.0,0.0,0.0,0.0,0.0,0.0,0.0,0.0,0.0,0.0,0.0,0.0,-2.5464,-2.4939,-2.4919,-2.555,-2.4938,-2.4941,0.0,0.0,0.0,-2.5658,-2.5658,-2.5662,0.0,-2.5664,0.0,0.0,0.0,0.0,0.0,-2.5303,-2.5303,-2.5303,-2.5303,-2.5303,-2.5303,-2.5303,-2.5303,-2.5303,-2.5303,-2.5303,-2.5293,-2.5212,-2.5072,0.0,0.0,0.0,0.0,0.0,0.0,0.0,0.0,0.0,0.0,0.0,0.0,-2.708,0.0,-2.6323,-2.6418,-2.6264,-2.6284,-2.6094,-2.541,-2.5273,-2.5262,-2.5227,-2.5213,-2.5254,-2.5449,-2.5245,-2.5152,-2.5322,-2.5264,-2.5149,-2.4966,-2.4804,-2.4652,-2.443,-2.4282,-2.419,-2.419,-2.4113,-2.3785,-2.3205,-2.3064,-2.2764,-2.231,-2.236,-2.2007,-2.1292,-2.1455,-2.1389,-2.1115,-2.1062,-2.1056,-2.1062,-2.0398,-2.0645,-2.1344,-2.067,-2.0605,-2.0915,-2.0775,-2.0878,-2.1007,0.0,0.0,0.0,0.0,0.0,0.0,0.0,0.0,0.0,0.0,0.0,0.0,0.0,0.0,-2.2425,-2.1594,0.0,0.0,0.0,0.0,0.0,-2.5506,-2.5468,0.0,-2.55,-2.5468,0.0,0.0,0.0,0.0,-2.5503,-2.5503,-2.5531,-2.5605,-2.5605,-2.5572,-2.5493,0.0,0.0,0.0,0.0,-2.5303,0.0,-2.5303,-2.5303,-2.5303,-2.5303,-2.5303,-2.5303,-2.5303,-2.5303,-2.5243,-2.4942,-2.4818,-2.4756,0.0,0.0,0.0,0.0,0.0,0.0,0.0,0.0,0.0,0.0,0.0,-2.5226,-2.4485,-2.4992,-2.5343,-2.4582,-2.4436,-2.4453,-2.4453,-2.4414,-2.4394,-2.4452,-2.4394,-2.4687,-2.5586,-2.4835,-2.4582,-2.5409,-2.5207,-2.4966,-2.4832,-2.462,-2.443,-2.4226,-2.4208,-2.419,-2.419,-2.3896,-2.3559,-2.3205,-2.2643,-2.2338,-2.231,-2.2563,-2.2263,-2.1512,-2.214,-2.1468,-1.9779,-1.9526,-1.9992,-2.0876,-2.0524,-2.1051,-2.194,-2.0825,-2.1233,-2.2134,-1.9939,-1.9735,-2.0431,0.0,0.0,0.0,0.0,0.0,0.0,0.0,0.0,0.0,0.0,0.0,0.0,0.0,-2.2183,-2.284,-2.2536,-2.3283,0.0,0.0,0.0,0.0,-2.5492,-2.5498,-2.5492,-2.5503,-2.5456,0.0,0.0,0.0,-2.5456,-2.5495,-2.5495,-2.5515,-2.555,-2.5572,-2.5553,-2.5503,-2.547,0.0,0.0,0.0,0.0,0.0,0.0,0.0,0.0,0.0,0.0,-2.5303,-2.5303,-2.5303,-2.5253,-2.5005,-2.4883,-2.476,-2.4561,0.0,0.0,0.0,0.0,0.0,0.0,0.0,-2.5024,-2.3698,-2.4053,-2.4609,-2.437,-2.4535,-2.4651,-2.4409,-2.4369,-2.4199,-2.3652,-2.3555,-2.3535,-2.3555,-2.3535,-2.3652,-2.3984,-2.4122,-2.4277,-2.4466,-2.4793,-2.4893,-2.4636,-2.4542,-2.4411,-2.4208,-2.419,-2.419,-2.419,-2.3871,-2.3437,-2.2869,-2.2493,-2.2388,-2.2563,-2.266,-2.2136,-2.1118,-2.1359,-2.0664,-1.9254,-1.9143,-1.9414,-1.987,-1.9973,-2.0131,-2.0263,-1.9717,-1.9808,-2.0174,-1.9443,-1.9429,-1.9709,0.0,0.0,0.0,0.0,0.0,0.0,0.0,0.0,0.0,0.0,0.0,0.0,0.0,0.0,-2.3833,-2.3841,-2.4333,-2.4659,-2.4705,-2.5164,-2.5433,-2.548,-2.5473,-2.5466,-2.5428,0.0,0.0,0.0,0.0,0.0,0.0,-2.5428,-2.5447,-2.5457,-2.5512,-2.5503,0.0,0.0,0.0,-2.5303,0.0,0.0,-2.5303,0.0,0.0,0.0,0.0,0.0,0.0,-2.5303,-2.5303,-2.5264,-2.5057,-2.4917,-2.479,0.0,0.0,0.0,0.0,0.0,0.0,0.0,0.0,-2.4187,-2.2842,-2.3405,-2.4168,-2.3947,-2.4094,-2.4187,-2.3934,-2.3692,-2.3359,-2.2793,-2.2695,-2.2695,-2.2695,-2.2695,-2.2793,-2.3066,-2.3203,-2.3447,-2.3851,-2.4217,-2.4463,-2.4487,-2.4448,-2.4337,-2.4208,-2.419,-2.4095,-2.3864,-2.365,-2.3221,-2.2583,-2.2381,-2.2388,-2.2563,-2.2772,-2.2306,-2.1277,-2.1506,-2.084,-1.9519,-1.9809,-1.9848,-1.9719,-1.9854,-1.9996,-2.0096,-1.9578,-1.9484,-1.9579,-1.9445,-1.9438,-1.949,0.0,0.0,0.0,0.0,0.0,0.0,0.0,0.0,0.0,-2.0454,0.0,0.0,0.0,0.0,0.0,-2.5498,-2.5503,-2.5499,-2.5505,-2.5505,-2.5466,-2.538,0.0,0.0,0.0,0.0,0.0,0.0,0.0,0.0,0.0,0.0,-2.5322,-2.5409,-2.5409,-2.5409,-2.5409,0.0,-2.537,-2.5303,0.0,-2.5303,-2.5303,0.0,0.0,0.0,-2.5303,-2.5303,0.0,-2.5303,0.0,0.0,0.0,0.0,0.0,0.0,0.0,0.0,0.0,0.0,0.0,0.0,0.0,0.0,-2.1745,0.0,-2.3789,-2.3027,-2.3529,-2.3867,-2.3023,-2.2285,-2.1816,-2.1855,-2.1855,-2.1855,-2.1855,-2.1855,-2.2148,-2.293,-2.2129,-2.211,-2.3659,-2.3494,-2.3637,-2.4393,-2.4301,-2.419,-2.419,-2.419,-2.3903,-2.3218,-2.3199,-2.292,-2.231,-2.231,-2.231,-2.2321,-2.2915,-2.2764,-2.202,-2.2641,-2.2025,-2.0503,-2.1363,-2.1253,-2.045,-2.021,-2.0753,-2.1621,-2.0518,-2.0363,-2.0662,-1.9894,-1.9695,-1.979,0.0,0.0,0.0,0.0,0.0,0.0,0.0,0.0,-2.1556,0.0,0.0,0.0,-2.3682,-2.4795,-2.5573,-2.5575,-2.547,-2.5425,-2.5428,-2.539,-2.5282,-2.5107,-2.5262,-2.5243,0.0,0.0,0.0,0.0,0.0,0.0,0.0,0.0,0.0,0.0,-2.5322,-2.5322,-2.5322,-2.539,0.0,-2.5303,-2.5303,-2.5303,0.0,0.0,0.0,0.0,0.0,-2.5303,-2.5303,0.0,-2.5303,-2.5264,0.0,0.0,0.0,0.0,0.0,0.0,-2.4974,0.0,0.0,0.0,0.0,0.0,-2.0985,0.0,-2.1977,-2.19,-2.2072,-2.2221,-2.2122,-2.1937,-2.1623,-2.1053,-2.0957,-2.0957,-2.0957,-2.0918,-2.0937,-2.1055,-2.1273,-2.1498,-2.1706,-2.2678,-2.3343,-2.3398,-2.3895,-2.419,-2.419,-2.419,-2.3894,-2.3215,-2.32,-2.291,-2.231,-2.231,-2.2508,-2.294,-2.2523,-2.2164,-2.1843,-2.1386,-2.0629,-1.9638,-1.9877,-1.984,-1.9675,-2.018,-2.0151,-1.9772,-1.9761,-1.9818,-1.9926,-1.9795,-1.9774,-1.9813,0.0,0.0,0.0,0.0,0.0,0.0,-2.2146,-2.2282,-2.2469,0.0,0.0,0.0,-2.484,-2.5255,-2.5505,-2.5486,-2.5409,-2.537,-2.537,-2.5243,-2.5163,-2.5141,-2.5163,-2.5163,-2.5141,0.0,0.0,0.0,0.0,0.0,0.0,0.0,0.0,0.0,0.0,0.0,0.0,0.0,0.0,0.0,-2.5303,0.0,0.0,-2.5303,-2.5303,0.0,0.0,0.0,-2.5303,-2.5303,-2.5303,0.0,0.0,0.0,0.0,0.0,0.0,0.0,0.0,0.0,0.0,0.0,0.0,0.0,-2.0685,-2.1063,-2.1673,-2.1706,-2.1825,-2.1882,-2.174,-2.1421,-2.1023,-2.0582,-2.0469,-2.0466,-2.0542,-2.0454,-2.0344,-2.0227,-2.0473,-2.0696,-2.0849,-2.1948,-2.2758,-2.2994,-2.3747,-2.4153,-2.4005,-2.3992,-2.3692,-2.3007,-2.2977,-2.2755,-2.231,-2.2398,-2.2488,-2.2498,-2.2291,-2.1985,-2.1589,-2.1202,-2.0592,-1.9803,-1.9803,-1.9601,-1.9341,-1.9803,-1.965,-1.915,-1.9365,-1.955,-1.9695,-1.9774,-1.9888,-2.0021,0.0,0.0,0.0,-2.1687,-2.1862,-2.217,-2.3098,-2.3242,-2.3279,0.0,-2.405,-2.4767,-2.5438,-2.5437,-2.539,-2.5322,-2.5303,-2.5303,-2.5303,-2.5111,-2.5088,-2.5264,-2.5099,-2.5088,-2.5264,-2.5303,0.0,0.0,0.0,0.0,0.0,0.0,0.0,0.0,0.0,0.0,0.0,0.0,0.0,-2.5264,-2.5284,-2.5303,0.0,0.0,-2.5303,-2.5303,-2.5303,-2.5303,-2.5303,-2.5303,-2.5303,0.0,0.0,0.0,0.0,0.0,-2.5284,0.0,0.0,0.0,0.0,0.0,-2.1517,0.0,-2.0776,-2.1483,-2.1976,-2.1816,-2.203,-2.2072,-2.1556,-2.0819,-2.0307,-2.0273,-2.0225,-2.0257,-2.043,-2.0283,-2.0131,-2.0012,-1.975,-1.9819,-2.0489,-2.1193,-2.1933,-2.2647,-2.3508,-2.3913,-2.371,-2.3665,-2.3353,-2.2722,-2.275,-2.2634,-2.2349,-2.2513,-2.2277,-2.1635,-2.2028,-2.1868,-2.1221,-2.1442,-2.1088,-2.0356,-2.0356,-1.9968,-1.9305,-1.9305,-1.9305,-1.9305,-1.935,-1.9526,-1.979,-1.9843,-2.0031,-2.0312,0.0,0.0,0.0,-2.2673,-2.2831,-2.3121,-2.4003,-2.4103,-2.4316,-2.502,-2.5208,0.0,0.0,-2.5438,-2.539,-2.539,-2.5322,-2.5303,-2.5303,-2.5111,-2.5022,-2.5065,-2.5022,-2.5022,-2.5065,-2.5214,-2.5303,0.0,0.0,0.0,0.0,0.0,0.0,0.0,0.0,0.0,0.0,0.0,0.0,-2.5077,-2.5224,-2.5303,-2.5303,-2.5303,-2.5303,-2.5303,-2.5303,-2.5303,-2.5303,-2.5303,-2.5303,-2.5303,0.0,0.0,0.0,-2.5303,0.0,0.0,0.0,0.0,0.0,0.0,-2.2972,0.0,-2.1408,-2.0776,-2.0309,-2.0455,-2.0521,-2.0589,-2.0627,-2.0506,-2.0176,-1.9549,-1.9821,-2.0164,-2.0238,-2.0096,-1.9837,-1.9497,-1.9345,-1.9219,-1.9039,-1.993,-2.0572,-2.0733,-2.2045,-2.3085,-2.3674,-2.3428,-2.3113,-2.2723,-2.2961,-2.2946,-2.2634,-2.2303,-2.2175,-2.2275,-2.1123,-2.059,-2.0637,-2.0063,-1.9675,-1.9528,-1.9528,-1.9436,-1.9305,-1.9305,-1.9305,-1.9335,-1.9593,-1.9743,-1.9824,-2.0098,-2.0233,-2.0312,0.0,0.0,0.0,-2.3554,-2.3677,-2.3929,-2.4826,-2.4914,0.0,0.0,0.0,0.0,0.0,0.0,0.0,-2.522,-2.5171,-2.5118,-2.5068,-2.4864,-2.4809,-2.4891,-2.4904,-2.4924,-2.501,-2.5203,-2.5253,-2.5152,0.0,0.0,0.0,0.0,0.0,0.0,0.0,0.0,0.0,0.0,-2.501,-2.5022,-2.5214,0.0,-2.5303,-2.5303,-2.5303,-2.5303,-2.5303,-2.5303,-2.5303,-2.5303,-2.5303,0.0,-2.5303,-2.5303,-2.5303,0.0,-2.5286,-2.5232,0.0,0.0,0.0,-2.4225,-2.3395,0.0,0.0,-2.1429,-2.1021,-2.0587,-2.0607,-2.0644,-2.0449,-2.037,-2.0216,-1.9807,-1.9856,-1.9954,-2.0007,-1.9737,-1.9479,-1.9269,-1.9379,-1.9241,-1.8667,-2.0113,-2.1261,-2.1676,-2.2063,-2.2553,-2.3177,-2.3058,-2.285,-2.2704,-2.2397,-2.2262,-2.2363,-2.1754,-2.1402,-2.129,-2.0608,-2.0167,-1.9895,-1.9473,-1.9305,-1.9305,-1.9305,-1.9305,-1.9305,-1.9305,-1.9305,-1.932,-1.9604,-1.9738,-1.9843,-2.0069,-2.0205,-2.0235,0.0,0.0,0.0,0.0,-2.4478,-2.4682,-2.5387,-2.549,0.0,0.0,0.0,0.0,0.0,0.0,0.0,0.0,0.0,-2.5025,-2.5088,-2.4717,-2.4607,-2.4828,-2.479,-2.4809,-2.4998,-2.5163,-2.5173,-2.5065,0.0,0.0,0.0,0.0,0.0,0.0,0.0,0.0,0.0,0.0,0.0,-2.4974,0.0,-2.5303,-2.5303,-2.5303,-2.5303,-2.5303,-2.5303,-2.5303,-2.5303,-2.5303,-2.5303,-2.5303,-2.5322,-2.5322,0.0,0.0,0.0,0.0,0.0,0.0,-2.4354,-2.4355,-2.3654,-2.2831,0.0,0.0,0.0,-2.0998,-2.0972,-2.0976,-2.0479,-2.0342,-2.02,-1.9835,-1.9781,-1.9682,-1.9335,-1.9208,-1.9162,-1.9159,-1.9345,-1.923,-1.858,-2.0188,-2.1625,-2.2483,-2.1933,-2.1773,-2.2237,-2.2218,-2.2186,-2.2259,-2.1534,-2.1368,-2.1848,-2.1173,-2.0598,-2.0174,-2.0255,-1.9932,-1.9305,-1.9305,-1.9305,-1.9305,-1.9305,-1.9305,-1.9305,-1.9305,-1.932,-1.938,-1.9569,-1.9688,-1.9813,-1.9983,-2.0161,-2.0177,-2.4011,-2.4044,0.0,0.0,-2.5351,-2.5389,-2.5485,-2.5447,0.0,0.0,0.0,0.0,0.0,0.0,0.0,0.0,0.0,0.0,-2.6091,0.0,0.0,-2.4962,-2.4678,-2.4678,-2.4979,-2.5022,-2.5111,-2.5264,0.0,0.0,0.0,0.0,0.0,0.0,-2.4444,0.0,0.0,0.0,-2.4814,0.0,-2.5171,-2.5303,0.0,-2.5303,-2.5303,-2.5303,-2.5303,-2.5303,-2.5303,-2.5303,-2.5303,-2.5303,-2.537,-2.539,-2.5409,-2.5466,0.0,0.0,-2.5418,-2.5336,-2.5249,-2.526,-2.4582,-2.3746,-2.2987,0.0,-2.1456,-2.0545,0.0,-2.0458,-2.0334,0.0,0.0,-1.8165,-1.8979,-1.9239,-1.7624,-1.8342,-1.9019,-1.9018,-1.8842,-1.8594,-1.8284,-1.8471,-1.9055,-2.0123,-1.9829,-1.9964,-2.0694,-2.0474,-2.043,-2.0648,-2.0853,-2.1066,-2.1377,-2.0825,-2.0509,-2.0451,-1.9751,-1.9381,-1.9305,-1.9305,-1.9305,-1.9305,-1.9305,-1.9305,-1.9305,-1.9305,-1.9413,-1.9582,-1.9713,-1.9797,-1.9843,-2.0153,-2.0277,-2.0177,-2.4332,-2.4598,0.0,0.0,-2.5409,-2.539,-2.539,-2.537,0.0,0.0,0.0,0.0,0.0,0.0,0.0,0.0,0.0,-2.5666,0.0,0.0,0.0,-2.556,-2.4986,-2.4968,-2.5579,-2.5124,-2.4936,-2.5019,-2.4809,0.0,0.0,0.0,0.0,0.0,-2.4339,0.0,-2.4393,0.0,-2.4804,0.0,0.0,-2.5303,0.0,-2.5303,-2.5303,-2.5303,-2.5303,-2.5303,-2.5303,-2.5341,-2.537,-2.537,-2.5447,-2.547,-2.5464,-2.5552,-2.5509,-2.544,-2.5499,-2.5461,-2.5409,-2.5447,-2.4832,-2.3995,-2.316,-2.2318,-2.1457,-2.0545,0.0,0.0,0.0,0.0,0.0,0.0,-1.9444,-1.9513,-1.8658,-1.8826,-1.9002,-1.9002,-1.9144,-1.9295,-1.945,-1.8181,-1.8053,-1.9797,-1.8984,-1.9019,-2.0372,-2.0311,-2.0439,-2.0916,-2.0448,-2.0423,-2.0825,-2.0043,-1.9693,-1.9803,-1.9455,-1.9305,-1.9305,-1.9305,-1.9305,-1.9305,-1.9305,-1.9305,-1.9305,-1.9305,-1.9118,-1.8856,-1.8993,-1.9106,-1.9248,-1.9468,-1.9234,-1.8734,-2.4541,0.0,0.0,0.0,0.0,-2.516,-2.516,0.0,0.0,0.0,0.0,0.0,-2.6529,-2.733,0.0,0.0,-2.6429,-2.5977,0.0,0.0,-2.5324,-2.5707,-2.5343,-2.5295,-2.5653,-2.5106,-2.4804,-2.4804,-2.4654,0.0,0.0,0.0,0.0,0.0,0.0,-2.4409,-2.4528,0.0,-2.4828,-2.4832,-2.5179,-2.5303,-2.5303,-2.5303,-2.5303,-2.5303,-2.5303,-2.5303,-2.5303,-2.539,-2.5409,-2.5409,-2.5499,-2.5538,-2.5538,-2.5601,-2.5546,-2.5478,-2.558,-2.5528,-2.5374,-2.52,-2.4883,-2.4285,-2.2957,-2.2397,-2.1817,-2.0639,-2.0418,0.0,0.0,0.0,-2.0107,-1.9689,0.0,-1.9501,-1.9118,-1.8972,-1.893,-1.9086,-1.9093,-1.9217,-1.9578,-1.7667,-1.7151,-1.8958,-1.816,-1.8256,-1.9712,-1.9859,-2.0138,-2.0644,-1.9916,-1.9722,-2.0173,-1.9441,-1.915,-1.9305,-1.9305,-1.9305,-1.9289,-1.9069,-1.9087,-1.9305,-1.9069,-1.9087,-1.9305,-1.935,-1.8985,-1.836,-1.8267,-1.8203,-1.8204,-1.8539,-1.8241,-1.7664,-2.4979,-2.4991,0.0,0.0,0.0,0.0,0.0,0.0,0.0,0.0,0.0,0.0,0.0,0.0,0.0,0.0,0.0,-2.6263,-2.6148,-2.6025,-2.5684,-2.5075,-2.5641,-2.5616,0.0,-2.4804,-2.4804,-2.4804,-2.479,0.0,0.0,0.0,0.0,0.0,-2.479,-2.467,-2.451,-2.4858,-2.493,-2.4832,-2.5179,-2.5303,-2.5303,-2.5303,-2.5303,-2.5303,-2.5303,-2.5303,-2.5303,-2.539,-2.5409,-2.5415,-2.5564,-2.5595,-2.5605,-2.5683,-2.5644,-2.5598,-2.56,-2.5556,-2.5292,-2.4453,-2.4863,-2.4813,-2.2307,-2.2427,-2.2546,-2.0775,-2.0456,-2.0465,-2.0331,-2.0188,-1.9799,-1.8795,-1.8977,0.0,0.0,-1.8256,-1.8785,-1.924,-1.8265,-1.757,-1.7577,-1.6409,-1.5961,-1.6752,-1.7016,-1.7463,-1.8243,-1.8514,-1.8791,-1.9075,-1.9052,-1.9124,-1.9326,-1.9308,-1.9289,-1.9305,-1.9305,-1.9305,-1.9271,-1.8482,-1.8555,-1.9268,-1.8482,-1.8574,-1.932,-1.9513,-1.9157,-1.8418,-1.7786,-1.7145,-1.6676,-1.7446,-1.7722,-1.7587,0.0,0.0,0.0,0.0,0.0,0.0,0.0,-2.4716,0.0,0.0,-2.6268,0.0,0.0,-2.7931,-2.8077,0.0,0.0,-2.6239,-2.5653,-2.6087,-2.6309,-2.6066,-2.6702,-2.6667,0.0,-2.5533,-2.5211,-2.4804,-2.4545,0.0,0.0,0.0,0.0,0.0,0.0,-2.4512,0.0,0.0,0.0,0.0,0.0,-2.5303,-2.5303,-2.5303,-2.5303,-2.5303,-2.5303,-2.5303,-2.5322,-2.5428,-2.544,-2.5415,-2.557,-2.56,-2.559,-2.5623,-2.5625,-2.5604,-2.5654,-2.5613,-2.5371,-2.4531,-2.4551,-2.4237,-2.2223,-2.2018,-2.1891,-2.0644,-2.0458,-2.0453,-2.0316,-2.0194,-1.9945,-1.9465,-1.9281,-1.904,0.0,-1.858,-1.8474,-1.8147,-1.7279,-1.6707,-1.6712,-1.6038,-1.5959,-1.6838,-1.7024,-1.7501,-1.8423,-1.8726,-1.8965,-1.9198,-1.9212,-1.923,-1.9289,-1.9305,-1.9305,-1.9305,-1.9305,-1.9014,-1.85,-1.8225,-1.8243,-1.8515,-1.8347,-1.8753,-1.9513,-1.9682,-1.8968,-1.7814,-1.7594,-1.6751,-1.5734,-1.658,-1.6542,-1.6003,-2.4937,0.0,0.0,0.0,0.0,0.0,0.0,0.0,0.0,0.0,-2.6896,0.0,-2.7827,0.0,-2.8326,0.0,-2.6774,-2.637,-2.5813,-2.6294,-2.6601,-2.6601,-2.7014,-2.6809,-2.5869,-2.5579,-2.525,-2.4804,0.0,-2.4478,0.0,0.0,0.0,0.0,0.0,-2.4522,-2.4697,-2.4631,-2.4676,0.0,0.0,-2.5303,-2.5303,-2.5303,-2.5303,-2.5303,-2.5303,-2.5303,-2.5322,-2.5447,-2.547,-2.5466,-2.56,-2.5647,-2.5626,-2.5603,-2.5605,-2.5605,-2.5625,-2.5605,-2.537,-2.4534,-2.4557,-2.4258,-2.2227,-2.1992,-2.1973,-2.1074,-2.0684,-2.0664,-2.1172,-2.0845,-2.0442,-2.0288,-1.9778,-1.9226,0.0,-1.8253,-1.7736,-1.6915,-1.6453,-1.6217,-1.6325,-1.5453,-1.5526,-1.7067,-1.7008,-1.7453,-1.8682,-1.8965,-1.9179,-1.9305,-1.9305,-1.9305,-1.9305,-1.9305,-1.9305,-1.9305,-1.9305,-1.8867,-1.8096,-1.7789,-1.7882,-1.819,-1.8043,-1.8435,-1.9239,-1.9688,-1.8754,-1.7079,-1.7434,-1.6596,-1.5266,-1.583,-1.5695,-1.5234,-2.4828,0.0,0.0,0.0,-2.4321,0.0,0.0,0.0,-2.5695,0.0,-2.7487,-2.8203,-2.8468,-2.8654,-2.8498,-2.7898,-2.7044,-2.6544,-2.6544,-2.6582,0.0,-2.6544,-2.6621,-2.6154,-2.5041,-2.5087,-2.5032,-2.4818,0.0,0.0,0.0,0.0,0.0,0.0,-2.479,0.0,-2.45,-2.4706,-2.4801,-2.4832,-2.5179,-2.5303,-2.5303,-2.5303,-2.5303,-2.5303,-2.5303,-2.5303,-2.5322,-2.5447,-2.5495,-2.5524,-2.5659,-2.5707,-2.5674,-2.5622,-2.5604,-2.5585,-2.5526,-2.5507,-2.5295,-2.4419,-2.4851,-2.4843,-2.2323,-2.2421,-2.2831,-2.2011,-2.1191,-2.1113,-2.2694,-2.2046,-2.1244,-2.1165,0.0,-1.9323,-1.8005,-1.7378,-1.6689,-1.5716,-1.5871,-1.6109,-1.6261,-1.4731,-1.4778,-1.7254,-1.695,-1.7329,-1.8919,-1.9146,-1.9268,-1.9305,-1.9305,-1.9305,-1.9305,-1.9305,-1.9286,-1.925,-1.9265,-1.8823,-1.7982,-1.7211,-1.7372,-1.8236,-1.7482,-1.7645,-1.8534,-1.9535,-1.8496,-1.6383,-1.7327,-1.6676,-1.5189,-1.5189,-1.5253,-1.5291,-2.4949,-2.4708,-2.4495,0.0,-2.4321,-2.4465,0.0,0.0,0.0,0.0,-2.7838,-2.8185,-2.8397,-2.8074,-2.7587,-2.6995,-2.614,0.0,0.0,0.0,0.0,-2.5649,-2.689,-2.6841,-2.5262,-2.635,-2.6276,-2.4949,-2.5461,0.0,-2.4575,0.0,0.0,0.0,0.0,0.0,-2.4509,-2.4704,-2.4864,-2.4979,-2.5217,-2.5303,-2.5303,-2.5303,-2.5303,-2.5303,-2.5303,-2.5303,-2.5322,-2.5447,-2.5468,-2.5451,-2.558,-2.5621,-2.563,-2.5608,-2.5599,-2.5599,-2.558,-2.5541,-2.5279,-2.4428,-2.4866,-2.4953,-2.2905,-2.3185,-2.3617,-2.2674,-2.2447,-2.2489,-2.2662,-2.2406,-2.2083,-2.1821,-2.0662,-1.932,-1.799,-1.7682,-1.7148,-1.5958,-1.6413,-1.622,-1.4685,-1.5203,-1.5928,-1.6692,-1.7168,-1.7874,-1.8942,-1.8611,-1.8684,-1.9271,-1.9305,-1.9305,-1.9305,-1.9456,-1.9198,-1.8572,-1.8653,-1.7966,-1.6619,-1.6394,-1.6453,-1.6674,-1.6574,-1.7007,-1.7823,-1.8841,-1.8486,-1.7334,-1.7593,-1.6715,-1.5272,-1.5272,-1.5291,-1.5311,-2.5022,-2.5005,0.0,-2.4551,0.0,-2.5541,-2.5985,-2.6355,0.0,-2.844,-2.8726,0.0,-2.9093,-2.8479,-2.7982,-2.7706,-2.6563,-2.6024,-2.6409,-2.6178,-2.5986,-2.587,-2.6447,-2.6294,-2.5322,-2.6151,-2.6117,-2.5141,-2.5425,0.0,-2.4716,0.0,0.0,0.0,0.0,-2.4493,-2.4525,-2.4789,-2.5164,-2.5556,-2.5382,-2.5303,0.0,-2.5303,-2.5303,-2.5303,-2.5303,-2.5303,-2.5322,-2.5428,-2.5421,-2.5425,-2.5526,-2.5579,-2.5589,-2.5532,-2.5524,-2.5543,-2.5486,-2.5447,-2.5264,-2.4687,-2.4928,-2.4889,-2.34,-2.3549,-2.3864,-2.3342,-2.314,-2.3202,-2.3717,-2.3385,-2.2709,-2.1716,-2.0445,-1.9201,-1.8139,-1.7966,-1.7636,-1.6712,-1.6728,-1.6246,-1.4698,-1.5684,-1.6494,-1.6658,-1.7508,-1.8188,-1.859,-1.8698,-1.8919,-1.9286,-1.9398,-1.9423,-1.9423,-1.9218,-1.8871,-1.8385,-1.8099,-1.7315,-1.6111,-1.6111,-1.6121,-1.6184,-1.6279,-1.6594,-1.713,-1.804,-1.7933,-1.7176,-1.7176,-1.6407,-1.5297,-1.5304,-1.5327,-1.5349,-2.534,0.0,0.0,0.0,0.0,-2.7214,-2.7156,-2.7811,-2.8727,-2.9885,-2.9957,-2.9983,-3.0156,-2.936,-2.8868,-2.8937,-2.7505,-2.6871,-2.7525,-2.614,-2.563,-2.6409,-2.5687,-2.5303,-2.5303,-2.5399,-2.5399,-2.5303,-2.5236,0.0,0.0,0.0,0.0,0.0,0.0,0.0,0.0,-2.4892,-2.5456,-2.6127,-2.5527,-2.5303,-2.5303,-2.5303,-2.5303,-2.5303,-2.5303,-2.5303,-2.5303,-2.539,-2.5395,-2.5403,-2.5481,-2.5539,-2.5566,-2.5459,-2.5456,-2.5466,-2.537,-2.5303,-2.5264,-2.5091,-2.503,-2.4796,-2.3899,-2.3855,-2.4003,-2.4052,-2.3659,-2.3735,-2.5068,-2.4429,-2.3143,-2.1422,-2.021,-1.9268,-1.86,-1.8348,0.0,-1.7737,-1.7055,0.0,-1.5519,-1.6063,-1.6555,-1.673,-1.7572,-1.8079,-1.8111,-1.8837,-1.9277,-1.9305,-1.9499,-1.9559,-1.9433,-1.8843,-1.8421,-1.8195,-1.7516,-1.6772,-1.5988,-1.5988,-1.605,-1.6155,-1.6155,-1.6218,-1.6388,-1.7215,-1.7119,-1.6503,-1.6638,-1.6118,-1.5309,-1.5307,-1.536,-1.5393,-2.693,0.0,0.0,0.0,0.0,-2.8857,-2.8506,-2.9055,-3.0052,-3.1561,-3.1339,-3.1032,-3.1062,-2.9864,-2.8791,-2.8159,-2.7178,-2.637,-2.5793,-2.5457,-2.536,-2.5514,-2.538,-2.5303,-2.5303,-2.6005,-2.6024,-2.5303,-2.5974,-2.5868,0.0,0.0,0.0,0.0,0.0,0.0,-2.5158,-2.5057,-2.5191,-2.5463,-2.5351,-2.5303,-2.5303,-2.5303,-2.5303,-2.5303,-2.5303,-2.5303,-2.5303,-2.539,-2.5407,-2.5418,-2.5476,-2.5514,-2.5529,-2.557,-2.5496,-2.5428,-2.5466,-2.539,-2.5284,-2.5264,-2.5243,-2.515,-2.4823,-2.4888,-2.5,-2.4919,-2.4947,-2.4952,-2.4906,-2.424,-2.3309,-2.2097,-2.1167,-2.0506,-2.014,-1.9,-1.8342,0.0,-1.786,-1.6822,-1.5757,-1.5764,-1.5869,-1.5912,-1.6188,-1.6849,-1.8041,-1.7731,-1.8077,-1.9268,-1.9499,-1.9247,-1.8533,-1.8672,-1.8023,-1.659,-1.6628,-1.6201,-1.5357,-1.5357,-1.5364,-1.5383,-1.5383,-1.5408,-1.5484,-1.6369,-1.6619,-1.6561,-1.7298,-1.6644,-1.5317,-1.5364,-1.5391,-1.5408,-2.7412,0.0,0.0,0.0,0.0,-2.9945,-3.0672,-3.0782,-3.0897,-3.1211,-3.0997,-3.0649,-3.0209,-2.9517,-2.8775,-2.7967,-2.7101,-2.6428,-2.6005,-2.5553,-2.5303,-2.5303,-2.5303,-2.5303,-2.5303,-2.5707,-2.5947,-2.5967,-2.5947,-2.5887,-2.5822,-2.5369,0.0,0.0,0.0,-2.5491,0.0,-2.5428,-2.5378,-2.5919,-2.5486,-2.5303,-2.5303,-2.5303,-2.5303,-2.5303,-2.5303,-2.5303,-2.5303,-2.5341,-2.5341,-2.5341,-2.539,-2.5428,-2.5456,-2.5498,-2.545,-2.5404,-2.5436,-2.539,-2.5264,-2.5168,-2.4853,-2.4515,-2.4309,-2.4448,-2.4604,-2.4502,-2.4996,-2.5327,-2.4873,-2.3824,-2.2892,-2.2418,-2.1427,-2.0762,-2.0942,-1.9966,-1.9417,-1.9934,0.0,-1.7258,-1.6034,-1.5784,-1.5692,-1.5692,-1.6269,-1.709,-1.8207,-1.8083,-1.8478,-1.9516,-1.9719,-1.9613,-1.9186,-1.8992,-1.8256,-1.6965,-1.665,-1.6042,-1.5189,-1.5189,-1.5189,-1.5189,-1.5189,-1.5189,-1.5266,-1.6131,-1.6247,-1.5965,-1.6849,-1.6426,-1.5349,-1.5388,-1.5405,-1.5404,0.0,-2.8237,0.0,0.0,-3.0009,-3.0977,-3.2216,-3.2154,-3.1775,-3.1275,-3.0737,-3.014,-2.9448,-2.9063,-2.8525,-2.7698,-2.7005,-2.6524,-2.6351,-2.5668,-2.5303,-2.5303,-2.5303,-2.5303,-2.5303,-2.5303,-2.563,-2.6332,-2.5813,-2.5823,-2.6314,-2.5996,0.0,0.0,-2.5177,-2.5826,-2.6916,-2.5535,-2.5466,-2.6198,-2.5505,-2.5264,-2.5303,-2.5303,-2.5303,-2.5303,-2.5303,-2.5303,-2.5303,-2.5303,-2.5303,-2.5303,-2.5303,-2.5341,-2.539,-2.5409,-2.5415,-2.5401,-2.5437,-2.539,-2.5303,-2.513,-2.4514,-2.3928,-2.3755,-2.3721,-2.379,-2.3927,-2.4698,-2.5237,-2.4819,-2.3619,-2.266,-2.2592,-2.165,-2.1088,-2.1569,-2.066,-2.0237,-2.1015,-1.8968,-1.7247,-1.6643,-1.5907,-1.5636,-1.6004,-1.667,-1.7382,-1.8135,-1.8562,-1.9115,-1.9771,-1.9943,-1.9917,-1.9755,-1.9073,-1.8299,-1.7446,-1.6599,-1.5868,-1.5189,-1.5189,-1.5189,-1.5189,-1.5189,-1.5209,-1.5285,-1.6144,-1.6034,-1.5389,-1.6266,-1.6112,-1.5407,-1.5407,-1.5391,-1.539,0.0,0.0,0.0,-3.0761,-3.1783,-3.2225,-3.1853,-3.2359,-3.3045,-3.3737,-3.1833,-3.0359,-3.0294,-2.8929,-2.7659,-2.6794,-2.6659,-2.6255,-2.5476,-2.5341,-2.5303,-2.5303,-2.5303,-2.5303,-2.5303,-2.5303,-2.5341,-2.5418,-2.614,-2.6121,-2.5447,-2.6949,-2.7132,-2.6176,-2.6163,-2.5741,-2.504,-2.4889,-2.4947,-2.5149,-2.5072,-2.5149,-2.5303,-2.5303,-2.5303,-2.5303,-2.5303,-2.5303,-2.5303,-2.5303,-2.5303,-2.5303,-2.5303,-2.5303,-2.5322,-2.5447,-2.5459,-2.5421,-2.5553,-2.5524,-2.5466,-2.539,-2.4755,-2.416,-2.4079,-2.3453,-2.3142,-2.3999,-2.4542,-2.4793,-2.4561,-2.4023,-2.3335,-2.2635,-2.2395,-2.2329,-2.2391,-2.0499,-1.9755,-2.1511,-1.806,-1.6237,-1.8006,-1.6131,-1.5457,-1.7033,-1.6574,-1.6564,-1.7365,-1.8289,-1.9115,-1.9771,-1.9943,-1.964,-1.8926,-1.8183,-1.7407,-1.6599,-1.5734,-1.5285,-1.5189,-1.5189,-1.5189,-1.5189,-1.5189,-1.5234,-1.5349,-1.6164,-1.6033,-1.5387,-1.6266,-1.611,-1.5407,-1.5407,-1.5391,-1.5408,-3.1325,-3.1226,-3.1241,-3.2105,-3.2152,-3.2141,-3.2378,-3.1833,-3.1525,-3.1872,-3.0583,-2.9236,-2.8236,-2.7525,-2.6774,-2.5909,-2.5832,-2.5668,-2.5322,-2.5303,-2.5303,-2.5303,-2.5303,-2.5303,-2.5303,-2.5303,-2.5553,-2.6082,-2.6438,-2.6687,-2.6875,-2.7575,-2.7608,-2.7032,-2.5791,-2.5332,-2.5491,-2.4888,-2.4726,-2.49,-2.4973,-2.5053,-2.513,-2.5245,-2.5303,-2.5303,-2.5303,-2.5303,-2.5303,-2.5303,-2.5303,-2.5303,-2.5303,-2.5322,-2.539,-2.5466,-2.5479,-2.5467,-2.5525,-2.513,-2.4701,-2.4643,-2.402,-2.341,-2.3396,-2.3514,-2.3736,-2.4072,-2.4505,-2.4743,-2.4543,-2.3692,-2.3139,-2.3484,-2.2982,-2.2616,-2.2772,-2.1571,-2.0601,-2.0335,-1.877,-1.7764,-1.7955,-1.6861,-1.625,-1.6563,-1.5881,-1.6246,-1.8099,-1.8158,-1.8745,-2.006,-2.0143,-2.0035,-1.9709,-1.9404,-1.8561,-1.7215,-1.6869,-1.6176,-1.5189,-1.5189,-1.5214,-1.5291,-1.5765,-1.5727,-1.5368,-1.6265,-1.6127,-1.5385,-1.5737,-1.5688,-1.5392,-1.5392,-1.539,-1.538,-3.2158,-3.235,-3.245,-3.2827,-3.2429,-3.216,-3.2506,-3.1333,-3.0206,-2.9737,-2.8909,-2.7909,-2.6736,-2.637,-2.5967,-2.5341,-2.5303,-2.5303,-2.5303,-2.5303,-2.5303,-2.5303,-2.5303,-2.5303,-2.5303,-2.5303,-2.5591,-2.6217,-2.6467,-2.6773,-2.714,-2.739,-2.7412,-2.715,-2.5674,-2.5253,-2.5602,-2.482,-2.4635,-2.4853,-2.485,-2.4943,-2.5111,-2.5187,-2.5245,-2.5303,-2.5303,-2.5303,-2.5322,-2.5322,-2.5341,-2.537,-2.5341,-2.539,-2.5438,-2.5515,-2.5512,-2.5449,-2.5234,-2.4718,-2.4146,-2.3823,-2.3326,-2.2881,-2.2887,-2.3356,-2.3807,-2.3912,-2.4389,-2.4707,-2.4467,-2.3674,-2.3251,-2.3749,-2.3395,-2.2974,-2.2703,-2.1984,-2.1076,-1.9877,-1.9142,-1.8642,-1.8397,-1.7681,-1.7165,-1.6961,-1.6254,-1.6605,-1.8387,-1.8237,-1.8773,-2.0254,-2.0325,-2.0334,-2.0334,-1.9846,-1.8962,-1.7727,-1.7234,-1.6369,-1.5234,-1.5234,-1.5407,-1.5707,-1.6289,-1.6342,-1.6123,-1.6777,-1.6546,-1.5781,-1.5774,-1.5625,-1.5391,-1.5391,-1.5407,-1.5386,-3.1545,-3.1718,-3.1968,-3.2756,-3.2891,-3.2622,-3.1833,-3.0968,-2.9813,-2.814,-2.7178,-2.6621,-2.6601,-2.5832,-2.5303,-2.5303,-2.5303,-2.5303,-2.5303,-2.5303,-2.5303,-2.5303,-2.5303,-2.5303,-2.5303,-2.5303,-2.5303,-2.5322,-2.6179,-2.6159,-2.5348,-2.6214,-2.6503,-2.6304,-2.6285,-2.573,-2.48,-2.4596,-2.4692,-2.4973,-2.4638,-2.4817,-2.5264,-2.5091,-2.513,-2.5303,-2.5303,-2.5341,-2.5409,-2.5409,-2.5447,-2.5486,-2.5428,-2.5447,-2.55,-2.5588,-2.5547,-2.5332,-2.4609,-2.4355,-2.4072,-2.3141,-2.2906,-2.2874,-2.2815,-2.2805,-2.294,-2.34,-2.4208,-2.4688,-2.4282,-2.419,-2.3914,-2.3144,-2.3676,-2.3621,-2.2041,-2.1248,-2.0792,-2.0774,-1.8798,-1.8099,-1.9802,-1.8524,-1.7983,-1.8912,-1.8222,-1.7748,-1.7715,-1.8588,-1.9453,-2.0273,-2.036,-2.0406,-2.0406,-1.8763,-1.788,-1.7783,-1.6131,-1.5311,-1.5291,-1.5291,-1.5765,-1.6584,-1.6592,-1.7089,-1.7862,-1.7881,-1.7404,-1.668,-1.668,-1.6152,-1.5391,-1.5391,-1.5407,-1.5388,-3.2352,-3.2526,-3.2429,-3.2122,-3.2083,-3.1795,-3.0948,-3.0063,-2.9121,-2.8044,-2.714,-2.637,-2.5793,-2.5457,-2.5303,-2.5303,-2.5303,-2.5303,-2.5303,-2.5303,-2.5303,-2.5303,-2.5341,-2.537,-2.537,-2.5409,-2.5409,-2.537,-2.6294,-2.6872,-2.7119,-2.6632,-2.6357,-2.6268,-2.5576,-2.5115,-2.4798,-2.4731,-2.4778,-2.4873,-2.4854,-2.4943,-2.5089,-2.5184,-2.5245,-2.5303,-2.5341,-2.539,-2.5409,-2.5447,-2.5505,-2.5562,-2.5541,-2.5525,-2.5498,-2.5526,-2.5527,-2.5328,-2.448,-2.3813,-2.3124,-2.218,-2.2389,-2.2835,-2.2806,-2.3679,-2.4476,-2.4389,-2.4614,-2.4688,-2.4282,-2.384,-2.3425,-2.3189,-2.2895,-2.2351,-2.1386,-2.0984,-2.0644,-2.0164,-1.9484,-1.9239,-1.9801,-1.9002,-1.8543,-1.8838,-1.8758,-1.8673,-1.8665,-1.8974,-1.9564,-2.0408,-2.0467,-2.0464,-2.046,-1.9352,-1.8484,-1.7844,-1.6727,-1.5871,-1.5292,-1.5292,-1.5482,-1.5848,-1.6982,-1.7338,-1.7166,-1.836,-1.8001,-1.6699,-1.6699,-1.6174,-1.5396,-1.5396,-1.5371,-1.533,-3.2295,-3.2449,-3.2295,-3.1795,-3.1698,-3.1295,-3.0083,-2.9198,-2.8352,-2.7525,-2.6659,-2.5909,-2.536,-2.5303,-2.5303,-2.5303,-2.5303,-2.5303,-2.5303,-2.5303,-2.5303,-2.5341,-2.539,-2.5408,-2.5445,-2.5484,-2.5484,-2.5445,-2.6009,-2.6525,-2.7005,-2.6274,-2.5919,-2.5891,-2.5272,-2.4993,-2.4989,-2.4907,-2.4911,-2.4987,-2.4943,-2.5008,-2.5114,-2.5168,-2.5243,-2.5341,-2.539,-2.5429,-2.5473,-2.5531,-2.557,-2.5604,-2.5598,-2.5547,-2.5468,-2.5512,-2.5492,-2.5206,-2.403,-2.3302,-2.2562,-2.1355,-2.193,-2.2959,-2.3602,-2.4553,-2.5226,-2.4928,-2.4879,-2.4778,-2.4482,-2.3817,-2.3315,-2.3307,-2.2619,-2.1821,-2.1092,-2.0973,-2.0665,-1.9963,-1.9941,-1.9991,-1.9991,-1.9602,-1.9351,-1.9362,-1.9519,-1.9475,-1.915,-1.9181,-1.9593,-2.0439,-2.0169,-2.0015,-2.0014,-1.9151,-1.8267,-1.7404,-1.6551,-1.5871,-1.5342,-1.5351,-1.5546,-1.5951,-1.6984,-1.7519,-1.7708,-1.8453,-1.8124,-1.7121,-1.6813,-1.6143,-1.5367,-1.5353,-1.533,-1.5291,-3.1448,-3.1621,-3.1621,-3.1621,-3.1621,-3.1044,-2.9352,-2.8409,-2.7582,-2.6717,-2.5851,-2.5303,-2.5303,-2.5303,-2.5303,-2.5303,-2.5303,-2.5303,-2.5303,-2.5303,-2.5322,-2.539,-2.5399,-2.5429,-2.5484,-2.5508,-2.5493,-2.5493,-2.5434,-2.5395,-2.5409,-2.5322,-2.5303,-2.5303,-2.5303,-2.5303,-2.5284,-2.5111,-2.5149,-2.5293,-2.4972,-2.5038,-2.5293,-2.5118,-2.5179,-2.5409,-2.5409,-2.5485,-2.5604,-2.5605,-2.5605,-2.5605,-2.5585,-2.5506,-2.5414,-2.5561,-2.5486,-2.5043,-2.3419,-2.2947,-2.2504,-2.0885,-2.1691,-2.3306,-2.4928,-2.5303,-2.5245,-2.5043,-2.4998,-2.496,-2.4814,-2.4049,-2.3417,-2.3417,-2.265,-2.1802,-2.1047,-2.1058,-2.084,-2.0117,-2.0188,-2.0312,-2.0312,-2.0312,-2.0312,-2.0312,-2.0477,-2.0203,-1.9342,-1.9289,-1.9604,-2.0292,-1.9599,-1.9201,-1.9205,-1.8271,-1.7382,-1.6504,-1.5769,-1.5403,-1.5394,-1.5397,-1.5839,-1.6601,-1.6674,-1.7587,-1.8965,-1.8206,-1.7859,-1.7738,-1.6987,-1.6126,-1.5297,-1.5303,-1.5291,-1.5291,-3.0679,-3.0717,-3.0717,-3.0717,-3.0717,-3.0352,-2.9256,-2.8409,-2.7582,-2.6717,-2.5851,-2.5303,-2.5303,-2.5303,-2.5303,-2.5303,-2.5303,-2.5303,-2.5303,-2.5303,-2.5303,-2.5322,-2.5363,-2.5408,-2.5408,-2.5473,-2.5493,-2.5493,-2.5383,-2.5351,-2.5409,-2.5322,-2.5303,-2.5303,-2.5303,-2.5322,-2.537,-2.5322,-2.537,-2.5437,-2.5358,-2.5388,-2.5437,-2.5398,-2.5417,-2.5486,-2.5524,-2.556,-2.5596,-2.5593,-2.5605,-2.5583,-2.5543,-2.5476,-2.5414,-2.5438,-2.539,-2.5111,-2.4091,-2.3801,-2.3531,-2.2466,-2.3003,-2.4063,-2.5072,-2.5303,-2.5245,-2.5043,-2.5003,-2.4949,-2.4815,-2.3664,-2.2745,-2.2745,-2.1502,-2.0516,-2.0479,-2.0365,-2.026,-2.0225,-2.0277,-2.0312,-2.0312,-2.0312,-2.035,-2.0446,-2.1048,-2.1055,-2.0231,-2.0143,-1.9915,-1.9502,-1.9291,-1.9194,-1.9212,-1.7728,-1.6545,-1.5684,-1.5482,-1.5397,-1.54,-1.5399,-1.551,-1.5742,-1.6366,-1.688,-1.7318,-1.773,-1.7508,-1.6895,-1.6691,-1.6088,-1.5303,-1.5303,-1.5272,-1.5214,-3.0448,-3.0417,-3.0294,-2.9929,-2.9833,-2.939,-2.814,-2.7582,-2.6986,-2.612,-2.5591,-2.5303,-2.5303,-2.5303,-2.5303,-2.5303,-2.5303,-2.5303,-2.5303,-2.5303,-2.5303,-2.5341,-2.5376,-2.5418,-2.5456,-2.5476,-2.5498,-2.5498,-2.5436,-2.5409,-2.5447,-2.5409,-2.539,-2.539,-2.539,-2.5409,-2.5457,-2.5448,-2.5468,-2.5488,-2.5488,-2.5488,-2.5488,-2.5488,-2.5528,-2.5543,-2.5582,-2.5627,-2.5649,-2.5658,-2.5609,-2.5556,-2.5511,-2.5428,-2.5341,-2.5341,-2.5322,-2.513,-2.4312,-2.4101,-2.3983,-2.3512,-2.3745,-2.4312,-2.513,-2.5303,-2.5264,-2.5168,-2.5149,-2.4995,-2.4572,-2.3467,-2.2508,-2.2106,-2.0967,-2.0188,-2.0285,-2.0205,-2.0188,-2.0285,-2.0312,-2.0312,-2.0312,-2.0369,-2.0404,-2.0443,-2.0897,-2.076,-1.9908,-2.0173,-2.0141,-1.9719,-1.8965,-1.8544,-1.8512,-1.6877,-1.5823,-1.5359,-1.5359,-1.5359,-1.5358,-1.5345,-1.535,-1.5379,-1.5823,-1.6247,-1.6612,-1.6683,-1.6659,-1.6512,-1.6152,-1.5707,-1.5253,-1.5253,-1.5234,-1.5189,-3.0487,-3.026,-2.9916,-2.9498,-2.9151,-2.8467,-2.7044,-2.6717,-2.6322,-2.5437,-2.5322,-2.5322,-2.5322,-2.5322,-2.5322,-2.5303,-2.5303,-2.5303,-2.5303,-2.5303,-2.5322,-2.539,-2.539,-2.5409,-2.5466,-2.5466,-2.5466,-2.5466,-2.5466,-2.5466,-2.5486,-2.5486,-2.5486,-2.5486,-2.5505,-2.5505,-2.5506,-2.5512,-2.552,-2.5539,-2.5539,-2.5539,-2.5539,-2.5539,-2.5562,-2.5614,-2.5614,-2.5649,-2.5703,-2.5684,-2.5609,-2.55,-2.5486,-2.5409,-2.5303,-2.5303,-2.5303,-2.5149,-2.4476,-2.4274,-2.4274,-2.4274,-2.4274,-2.4457,-2.5149,-2.5303,-2.5303,-2.5303,-2.5303,-2.5063,-2.4253,-2.3396,-2.2524,-2.1658,-2.0831,-2.0312,-2.0312,-2.0331,-2.0331,-2.0331,-2.0331,-2.0331,-2.0331,-2.0427,-2.0477,-2.0427,-2.0463,-2.0131,-1.9319,-1.9931,-2.0285,-2.0269,-1.8789,-1.7836,-1.751,-1.6164,-1.5424,-1.5297,-1.5297,-1.5297,-1.5297,-1.5297,-1.5306,-1.5291,-1.5291,-1.567,-1.6279,-1.5574,-1.5695,-1.6234,-1.5541,-1.5253,-1.5189,-1.5189,-1.5189,-1.517,-3.0417,-2.9437,-2.8857,-3.0155,-2.9198,-2.817,-2.792,-2.7245,-2.6465,-2.5582,-2.5466,-2.5447,-2.539,-2.5447,-2.5428,-2.5303,-2.5341,-2.537,-2.5303,-2.5303,-2.5303,-2.5322,-2.5322,-2.5322,-2.5322,-2.5322,-2.5322,-2.5322,-2.5322,-2.537,-2.5428,-2.5428,-2.5428,-2.5428,-2.5466,-2.5499,-2.5499,-2.5562,-2.5623,-2.5662,-2.5662,-2.5662,-2.5662,-2.5662,-2.5679,-2.5675,-2.5675,-2.5681,-2.5684,-2.5625,-2.5564,-2.5481,-2.5437,-2.537,-2.5303,-2.5303,-2.5303,-2.5264,-2.5149,-2.5111,-2.5111,-2.5111,-2.5111,-2.5149,-2.5264,-2.5303,-2.5303,-2.5303,-2.5341,-2.513,-2.4253,-2.3435,-2.259,-2.1727,-2.0861,-2.0331,-2.0389,-2.0389,-2.0389,-2.0389,-2.0389,-2.0408,-2.0465,-2.0485,-2.0492,-2.0487,-2.0446,-2.0331,-2.0131,-2.0227,-2.0214,-2.0041,-1.9246,-1.8133,-1.6707,-1.643,-1.5973,-1.5306,-1.5306,-1.5306,-1.5306,-1.5306,-1.5295,-1.5291,-1.5234,-1.533,-1.5465,-1.5291,-1.5291,-1.5388,-1.5266,-1.5209,-1.5189,-1.5189,-1.5189,-1.5093,-2.9206,-2.8803,-2.8495,-2.855,-2.8569,-2.8163,-2.6885,-2.6355,-2.5967,-2.5556,-2.5498,-2.5464,-2.5398,-2.5456,-2.5466,-2.537,-2.539,-2.539,-2.537,-2.5322,-2.5303,-2.5303,-2.5303,-2.5303,-2.5303,-2.5303,-2.5303,-2.5303,-2.5341,-2.537,-2.5409,-2.5447,-2.5464,-2.5517,-2.5545,-2.557,-2.5605,-2.5644,-2.5664,-2.5703,-2.5703,-2.5703,-2.5703,-2.5703,-2.5703,-2.5703,-2.5703,-2.5703,-2.5703,-2.5664,-2.5605,-2.5542,-2.548,-2.5428,-2.5409,-2.537,-2.5341,-2.5341,-2.5341,-2.539,-2.5409,-2.5409,-2.5409,-2.5409,-2.5409,-2.5409,-2.5409,-2.5409,-2.5428,-2.5202,-2.4355,-2.3896,-2.3366,-2.25,-2.161,-2.1066,-2.1105,-2.1105,-2.1105,-2.1105,-2.1125,-2.1163,-2.1201,-2.0784,-2.0486,-2.0452,-2.039,-2.0288,-2.0152,-2.0143,-2.005,-1.9901,-1.9239,-1.8305,-1.7049,-1.6683,-1.6304,-1.5945,-1.5465,-1.5253,-1.5253,-1.5253,-1.5253,-1.5234,-1.5209,-1.5214,-1.5234,-1.5209,-1.5189,-1.5189,-1.5189,-1.5189,-1.5189,-1.5189,-1.5189,-1.5074,-2.814,-2.8046,-2.7852,-2.7205,-2.7718,-2.7662,-2.6077,-2.5668,-2.5551,-2.5551,-2.5551,-2.5531,-2.544,-2.5479,-2.5486,-2.539,-2.539,-2.539,-2.539,-2.5322,-2.5303,-2.5303,-2.5303,-2.5303,-2.5303,-2.5303,-2.5303,-2.5303,-2.5341,-2.539,-2.5409,-2.5447,-2.5517,-2.5581,-2.5595,-2.5632,-2.5683,-2.5682,-2.5703,-2.5703,-2.5703,-2.5703,-2.5703,-2.5703,-2.5703,-2.5703,-2.5703,-2.5703,-2.5703,-2.5703,-2.5664,-2.5581,-2.5538,-2.5505,-2.5495,-2.5436,-2.5437,-2.5438,-2.5436,-2.5453,-2.5492,-2.5492,-2.5492,-2.5502,-2.5495,-2.5505,-2.5495,-2.5511,-2.5507,-2.5259,-2.4449,-2.4316,-2.405,-2.3165,-2.2462,-2.2036,-2.2023,-2.2046,-2.1968,-2.1773,-2.1784,-2.1748,-2.1511,-2.089,-2.0475,-2.0381,-2.0334,-2.0205,-2.0012,-1.9993,-1.9914,-1.9762,-1.9304,-1.8678,-1.7811,-1.7121,-1.6696,-1.6484,-1.5618,-1.5189,-1.5189,-1.5189,-1.5189,-1.5189,-1.5189,-1.5189,-1.5189,-1.5189,-1.5189,-1.5189,-1.5189,-1.5189,-1.5209,-1.5171,-1.5146,-1.4992,-2.8039,-2.6911,-2.629,-2.7748,-2.681,-2.6054,-2.6699,-2.6152,-2.5683,-2.5683,-2.5683,-2.5636,-2.5517,-2.555,-2.5524,-2.5322,-2.537,-2.537,-2.5303,-2.5303,-2.5303,-2.5303,-2.5303,-2.5303,-2.5303,-2.5303,-2.5303,-2.5303,-2.5303,-2.5341,-2.5409,-2.5409,-2.5447,-2.5522,-2.5564,-2.5605,-2.5608,-2.5676,-2.5703,-2.5703,-2.5703,-2.5703,-2.5703,-2.5703,-2.5703,-2.5703,-2.5703,-2.5703,-2.5703,-2.5703,-2.5664,-2.56,-2.5596,-2.5543,-2.5495,-2.5492,-2.5541,-2.5581,-2.5517,-2.5498,-2.5498,-2.5498,-2.5498,-2.5498,-2.5504,-2.5505,-2.5495,-2.5492,-2.5545,-2.533,-2.4453,-2.4355,-2.412,-2.3229,-2.303,-2.3009,-2.3003,-2.3046,-2.2792,-2.1972,-2.1894,-2.1554,-2.0682,-2.0542,-2.0454,-2.0308,-2.03,-2.0205,-2.0012,-1.9993,-1.989,-1.9623,-1.9812,-1.9526,-1.8716,-1.7972,-1.7234,-1.6484,-1.5618,-1.5189,-1.5189,-1.5189,-1.5189,-1.5189,-1.5189,-1.5189,-1.5189,-1.5189,-1.5189,-1.5189,-1.5189,-1.5189,-1.5183,-1.5049,-1.5002,-1.4773,-2.6468,-2.5938,-2.5736,-2.6315,-2.5957,-2.5701,-2.599,-2.5805,-2.5624,-2.558,-2.559,-2.5531,-2.5449,-2.5504,-2.5486,-2.537,-2.539,-2.539,-2.537,-2.5322,-2.5303,-2.5303,-2.5303,-2.5303,-2.5303,-2.5303,-2.5303,-2.5303,-2.5303,-2.5303,-2.5341,-2.5341,-2.5409,-2.5505,-2.5522,-2.558,-2.5652,-2.5698,-2.5703,-2.5703,-2.5703,-2.5703,-2.5703,-2.5703,-2.5703,-2.5703,-2.5703,-2.5703,-2.5703,-2.5703,-2.5684,-2.5643,-2.5609,-2.5605,-2.5621,-2.5615,-2.5645,-2.5544,-2.4968,-2.4817,-2.4948,-2.5494,-2.5221,-2.4961,-2.5499,-2.5625,-2.5626,-2.5624,-2.5644,-2.5566,-2.5234,-2.4746,-2.4471,-2.4676,-2.3397,-2.2535,-2.3085,-2.2715,-2.2259,-2.1876,-2.1838,-2.1677,-2.1283,-2.072,-2.0573,-2.1073,-2.0611,-2.041,-2.0671,-1.997,-1.9526,-1.9427,-1.9145,-1.8885,-1.8617,-1.801,-1.7292,-1.6484,-1.5618,-1.5189,-1.5189,-1.5189,-1.5189,-1.5189,-1.5189,-1.5189,-1.5189,-1.5101,-1.5082,-1.5075,-1.503,-1.5008,-1.5,-1.496,-1.4954,-1.4835,-2.5486,-2.5409,-2.5447,-2.539,-2.5466,-2.5522,-2.5485,-2.5522,-2.5551,-2.5499,-2.5499,-2.5464,-2.5409,-2.5447,-2.5447,-2.537,-2.537,-2.537,-2.537,-2.5322,-2.5303,-2.5303,-2.5303,-2.5303,-2.5303,-2.5303,-2.5303,-2.5322,-2.5303,-2.5303,-2.5322,-2.5303,-2.537,-2.5476,-2.5495,-2.5559,-2.5664,-2.5684,-2.5703,-2.5703,-2.5703,-2.5703,-2.5703,-2.5703,-2.5703,-2.5703,-2.5703,-2.5703,-2.5703,-2.5703,-2.5703,-2.5684,-2.5644,-2.5664,-2.5702,-2.5673,-2.5664,-2.5538,-2.4904,-2.456,-2.4453,-2.4805,-2.4824,-2.4863,-2.5215,-2.5508,-2.5703,-2.5703,-2.5703,-2.5703,-2.5703,-2.5215,-2.5,-2.5605,-2.4238,-2.3301,-2.3906,-2.3223,-2.2561,-2.2253,-2.1976,-2.1666,-2.1307,-2.0681,-2.0554,-2.115,-2.0631,-2.0402,-2.0687,-1.9744,-1.9214,-1.9214,-1.8841,-1.8415,-1.7931,-1.7498,-1.6996,-1.6484,-1.5618,-1.5189,-1.5209,-1.5484,-1.5465,-1.5209,-1.5434,-1.5383,-1.5133,-1.5026,-1.4962,-1.4954,-1.4919,-1.4904,-1.4895,-1.4841,-1.4713,-1.4441,-2.5409,-2.5409,-2.539,-2.5303,-2.537,-2.5407,-2.5408,-2.5451,-2.5505,-2.5505,-2.5505,-2.5466,-2.5409,-2.5409,-2.537,-2.5303,-2.5303,-2.5303,-2.5303,-2.5303,-2.5303,-2.5303,-2.5303,-2.5303,-2.5303,-2.5303,-2.5322,-2.5409,-2.5332,-2.5332,-2.5409,-2.5322,-2.5341,-2.5409,-2.5466,-2.555,-2.5605,-2.5664,-2.5703,-2.5703,-2.5703,-2.5703,-2.5703,-2.5703,-2.5703,-2.5703,-2.5703,-2.5703,-2.5703,-2.5703,-2.5703,-2.5703,-2.5703,-2.5703,-2.5684,-2.5625,-2.5605,-2.5586,-2.5508,-2.4902,-2.4121,-2.332,-2.4355,-2.5371,-2.459,-2.5078,-2.5684,-2.5703,-2.5703,-2.5703,-2.5703,-2.5684,-2.5684,-2.5703,-2.5683,-2.5683,-2.5684,-2.4941,-2.4065,-2.3202,-2.2331,-2.1421,-2.0408,-2.0312,-2.0312,-2.0312,-2.0304,-2.0153,-1.9821,-1.9286,-1.9002,-1.9002,-1.9109,-1.8397,-1.6726,-1.6441,-1.6376,-1.6484,-1.5612,-1.5209,-1.5247,-1.6099,-1.6022,-1.5241,-1.596,-1.5788,-1.498,-1.4928,-1.4904,-1.4895,-1.4895,-1.4895,-1.4886,-1.4728,-1.4214,-1.3468,-2.5341,-2.5322,-2.5322,-2.5303,-2.537,-2.538,-2.5339,-2.5399,-2.5409,-2.537,-2.537,-2.5341,-2.5322,-2.5322,-2.5322,-2.5303,-2.5303,-2.5303,-2.5303,-2.5303,-2.5303,-2.5303,-2.5303,-2.5322,-2.537,-2.5322,-2.5322,-2.5409,-2.5324,-2.5305,-2.5322,-2.5303,-2.5341,-2.5409,-2.5466,-2.555,-2.5605,-2.5664,-2.5703,-2.5703,-2.5703,-2.5703,-2.5703,-2.5703,-2.5703,-2.5682,-2.5648,-2.5621,-2.5625,-2.5586,-2.5566,-2.5566,-2.5566,-2.5566,-2.5566,-2.5547,-2.5522,-2.5388,-2.4761,-2.4819,-2.5033,-2.4897,-2.4348,-2.4107,-2.5095,-2.5039,-2.4961,-2.5566,-2.5703,-2.5703,-2.5703,-2.5195,-2.497,-2.555,-2.4645,-2.4057,-2.4569,-2.3933,-2.33,-2.3,-2.2197,-2.1523,-2.1177,-2.0639,-2.0542,-2.11,-2.0977,-2.052,-1.9707,-1.9246,-1.9002,-1.9002,-1.8304,-1.7814,-1.7552,-1.7872,-1.7155,-1.5391,-1.5785,-1.5922,-1.5822,-1.5516,-1.5546,-1.5814,-1.5475,-1.5163,-1.4928,-1.4813,-1.467,-1.454,-1.4448,-1.4332,-1.4143,-1.3671,-1.3435,-1.3308,-2.5303,-2.5303,-2.5303,-2.5303,-2.5322,-2.5341,-2.5303,-2.5322,-2.5341,-2.5303,-2.5303,-2.5303,-2.5303,-2.5303,-2.5303,-2.5303,-2.5303,-2.5303,-2.5303,-2.5303,-2.5303,-2.5303,-2.5303,-2.5322,-2.537,-2.5327,-2.5327,-2.5409,-2.5327,-2.5307,-2.5341,-2.5303,-2.5341,-2.5409,-2.5466,-2.5546,-2.5609,-2.564,-2.5664,-2.5664,-2.5625,-2.5625,-2.5625,-2.5625,-2.5615,-2.5624,-2.5575,-2.5568,-2.5543,-2.5504,-2.5504,-2.5446,-2.5134,-2.5033,-2.5013,-2.4994,-2.4988,-2.4928,-2.4687,-2.4774,-2.5024,-2.5428,-2.4512,-2.3727,-2.4429,-2.4466,-2.4516,-2.5043,-2.5144,-2.5242,-2.5553,-2.4926,-2.4625,-2.5432,-2.4705,-2.4196,-2.4651,-2.3999,-2.3454,-2.3426,-2.2649,-2.2057,-2.1914,-2.1455,-2.134,-2.1759,-2.1582,-2.1063,-2.0117,-1.9605,-1.9165,-1.8861,-1.8107,-1.7719,-1.7704,-1.8551,-1.7917,-1.5857,-1.6422,-1.6649,-1.6562,-1.6413,-1.6431,-1.6544,-1.6035,-1.5572,-1.5146,-1.4685,-1.4391,-1.4197,-1.4118,-1.4011,-1.3807,-1.3163,-1.3027,-1.3096,-2.5303,-2.5303,-2.5303,-2.5303,-2.5303,-2.5303,-2.5303,-2.5303,-2.5303,-2.5303,-2.5303,-2.5303,-2.5303,-2.5303,-2.5303,-2.5303,-2.5303,-2.5303,-2.5303,-2.5303,-2.5303,-2.5303,-2.5303,-2.5303,-2.5303,-2.5298,-2.5337,-2.5409,-2.5322,-2.5322,-2.539,-2.5322,-2.5341,-2.5409,-2.5466,-2.5524,-2.5601,-2.5593,-2.5585,-2.5583,-2.5524,-2.5505,-2.5505,-2.5505,-2.5498,-2.5505,-2.5486,-2.5486,-2.5486,-2.5486,-2.5428,-2.5245,-2.4514,-2.4226,-2.4169,-2.4188,-2.4178,-2.4332,-2.5005,-2.4755,-2.4457,-2.513,-2.4666,-2.3887,-2.3195,-2.3625,-2.4199,-2.4277,-2.4355,-2.4637,-2.5362,-2.4904,-2.4646,-2.5376,-2.5492,-2.5486,-2.5486,-2.4793,-2.4293,-2.431,-2.3524,-2.2911,-2.2658,-2.2559,-2.2412,-2.2214,-2.2062,-2.1659,-2.0882,-2.0174,-1.9456,-1.869,-1.8345,-1.7942,-1.7506,-1.8598,-1.8509,-1.727,-1.7367,-1.7385,-1.7382,-1.8072,-1.7986,-1.7322,-1.7135,-1.654,-1.5579,-1.4596,-1.4119,-1.3959,-1.3902,-1.387,-1.3768,-1.3019,-1.2842,-1.2724,-2.5303,-2.5303,-2.5303,-2.5303,-2.5303,-2.5303,-2.5303,-2.5303,-2.5303,-2.5303,-2.5303,-2.5303,-2.5303,-2.5303,-2.5303,-2.5303,-2.5303,-2.5303,-2.5303,-2.5303,-2.5303,-2.5303,-2.5303,-2.5303,-2.5303,-2.5302,-2.5321,-2.5409,-2.5322,-2.5303,-2.5322,-2.5303,-2.5341,-2.5409,-2.5428,-2.5466,-2.5515,-2.5515,-2.5512,-2.5519,-2.5519,-2.5499,-2.5499,-2.5499,-2.55,-2.5486,-2.5447,-2.5428,-2.5409,-2.537,-2.4928,-2.437,-2.4197,-2.3678,-2.3268,-2.394,-2.4119,-2.4159,-2.4312,-2.4687,-2.4947,-2.4495,-2.3735,-2.3268,-2.3868,-2.3636,-2.3485,-2.4154,-2.4808,-2.5297,-2.5464,-2.5354,-2.5271,-2.5406,-2.5428,-2.5409,-2.5341,-2.5187,-2.5053,-2.5063,-2.4332,-2.3832,-2.3774,-2.2987,-2.2368,-2.207,-2.2006,-2.1754,-2.1225,-2.0311,-1.9606,-1.916,-1.8327,-1.8035,-1.8338,-1.8591,-1.8135,-1.7014,-1.7795,-1.8081,-1.7918,-1.7457,-1.7376,-1.7548,-1.6494,-1.6042,-1.596,-1.4729,-1.436,-1.4533,-1.3906,-1.3603,-1.3425,-1.2742,-1.2151,-1.1523,-2.5303,-2.5303,-2.5303,-2.5303,-2.5303,-2.5303,-2.5303,-2.5303,-2.5303,-2.5303,-2.5303,-2.5303,-2.5303,-2.5303,-2.5303,-2.5303,-2.5303,-2.5303,-2.5303,-2.5303,-2.5303,-2.5303,-2.5303,-2.5303,-2.5303,-2.5303,-2.5322,-2.5341,-2.5322,-2.5303,-2.5303,-2.5303,-2.5341,-2.5409,-2.5409,-2.5447,-2.5505,-2.5473,-2.5441,-2.5447,-2.5428,-2.5409,-2.5409,-2.5409,-2.5409,-2.5341,-2.4928,-2.4514,-2.4216,-2.4591,-2.4178,-2.341,-2.2987,-2.2541,-2.2273,-2.2724,-2.2851,-2.2949,-2.3361,-2.3794,-2.412,-2.4101,-2.3438,-2.2936,-2.3469,-2.2904,-2.2524,-2.339,-2.3918,-2.4456,-2.5254,-2.5082,-2.4947,-2.5313,-2.5341,-2.5341,-2.5303,-2.5303,-2.5303,-2.5303,-2.4851,-2.4476,-2.4312,-2.3695,-2.3178,-2.285,-2.2813,-2.2481,-2.1664,-2.1021,-2.0393,-1.9843,-1.8967,-1.8659,-1.8933,-1.8704,-1.8306,-1.7722,-1.8374,-1.8557,-1.8315,-1.7902,-1.7854,-1.8056,-1.699,-1.6346,-1.6011,-1.4931,-1.4352,-1.4093,-1.3665,-1.3379,-1.3125,-1.242,-1.1763,-1.1188,-2.5303,-2.5303,-2.5303,-2.5303,-2.5303,-2.5303,-2.5303,-2.5303,-2.5303,-2.5303,-2.5303,-2.5303,-2.5303,-2.5303,-2.5303,-2.5303,-2.5303,-2.5303,-2.5303,-2.5303,-2.5303,-2.5303,-2.5303,-2.5303,-2.5303,-2.5303,-2.5303,-2.5303,-2.5303,-2.5303,-2.5303,-2.5303,-2.5341,-2.5409,-2.539,-2.5428,-2.5486,-2.5409,-2.539,-2.539,-2.5322,-2.5303,-2.5284,-2.5149,-2.5091,-2.4985,-2.4178,-2.3419,-2.2901,-2.3621,-2.3304,-2.245,-2.1732,-2.1421,-2.1317,-2.1459,-2.1498,-2.1656,-2.2384,-2.2793,-2.316,-2.3736,-2.3448,-2.3025,-2.3013,-2.2455,-2.2158,-2.287,-2.312,-2.3658,-2.5034,-2.4755,-2.4524,-2.5187,-2.5303,-2.5303,-2.5303,-2.5303,-2.5293,-2.5243,-2.5083,-2.4847,-2.453,-2.4353,-2.4107,-2.3728,-2.371,-2.324,-2.2171,-2.1801,-2.1285,-2.056,-1.9809,-1.9435,-1.9502,-1.909,-1.8825,-1.8722,-1.8948,-1.8895,-1.8585,-1.8585,-1.8566,-1.8492,-1.7736,-1.6992,-1.623,-1.5349,-1.4538,-1.385,-1.3615,-1.3357,-1.3006,-1.2154,-1.1544,-1.1259,-2.5303,-2.5303,-2.5303,-2.5303,-2.5303,-2.5303,-2.5303,-2.5303,-2.5303,-2.5303,-2.5303,-2.5303,-2.5303,-2.5303,-2.5303,-2.5303,-2.5303,-2.5303,-2.5303,-2.5303,-2.5303,-2.5303,-2.5303,-2.5303,-2.5303,-2.5303,-2.5303,-2.5303,-2.5303,-2.5303,-2.5303,-2.5303,-2.5341,-2.5409,-2.5341,-2.5341,-2.5409,-2.5341,-2.5303,-2.5303,-2.5303,-2.5303,-2.5226,-2.4534,-2.4255,-2.4159,-2.3304,-2.2901,-2.2815,-2.2934,-2.2411,-2.1655,-2.1536,-2.102,-2.0608,-2.1297,-2.1509,-2.154,-2.1633,-2.2772,-2.3775,-2.3132,-2.3448,-2.3908,-2.3918,-2.3821,-2.3783,-2.3898,-2.4485,-2.5034,-2.5264,-2.5207,-2.5168,-2.5284,-2.5303,-2.5303,-2.5303,-2.5303,-2.5233,-2.5063,-2.4917,-2.4745,-2.4523,-2.4487,-2.4255,-2.3746,-2.3703,-2.339,-2.2633,-2.1958,-2.1428,-2.1104,-2.0314,-2.003,-2.0252,-2.0195,-1.9836,-1.9221,-1.9226,-1.902,-1.8585,-1.8585,-1.8469,-1.8217,-1.7643,-1.7455,-1.7453,-1.6257,-1.577,-1.5704,-1.4473,-1.3822,-1.3364,-1.2047,-1.1521,-1.1396,-2.5303,-2.5303,-2.5303,-2.5303,-2.5303,-2.5303,-2.5303,-2.5303,-2.5303,-2.5303,-2.5303,-2.5303,-2.5303,-2.5303,-2.5303,-2.5303,-2.5303,-2.5303,-2.5303,-2.5303,-2.5303,-2.5303,-2.5303,-2.5303,-2.5303,-2.487,-2.4851,-2.5303,-2.5303,-2.5303,-2.5303,-2.5303,-2.5322,-2.5341,-2.5303,-2.5322,-2.5341,-2.5303,-2.5303,-2.5303,-2.5303,-2.5303,-2.5264,-2.4908,-2.4485,-2.3983,-2.3109,-2.2199,-2.147,-2.1922,-2.1517,-2.08,-2.0704,-2.0427,-2.0208,-2.057,-2.0666,-2.0762,-2.1201,-2.2326,-2.334,-2.3223,-2.3994,-2.4735,-2.4626,-2.4686,-2.4639,-2.4187,-2.4379,-2.4774,-2.5207,-2.5303,-2.5303,-2.5303,-2.5303,-2.5303,-2.5303,-2.5195,-2.5023,-2.4741,-2.4671,-2.454,-2.4356,-2.416,-2.3887,-2.3443,-2.3252,-2.2946,-2.249,-2.2183,-2.1949,-2.182,-2.1182,-2.0849,-2.0858,-2.056,-2.0164,-1.9696,-1.9696,-1.915,-1.8146,-1.8146,-1.81,-1.7975,-1.7738,-1.7343,-1.6853,-1.6294,-1.5763,-1.5234,-1.4627,-1.3854,-1.2952,-1.1818,-1.1393,-1.1354]}]]